[[{"header":{"parameterUnit":"m.s-1","parameterCategory":1,"la1":30.6,"la2":28.766,"lo1":-90.7593,"lo2":-88.6598,"dy":0.0162,"dx":0.0183,"nx":116,"ny":114,"refTime":"2024-06-22T18:00:00:Z","depth":0,"parameterNumber":2,"parameterNumberName":"U-component_of_WINDS"},"data":[0.0,0.0,0.0,0.0,0.0,0.0,0.0,0.0,0.0,0.0,0.0,0.0,0.0,0.0,0.0,0.0,0.0,0.0,0.0,0.0,0.0,0.0,0.0,0.0,0.0,0.0,0.0,0.0,0.0,0.0,0.0,0.0,0.0,0.0,0.0,0.0,0.0,0.0,0.0,0.0,0.0,0.0,0.0,0.0,0.0,0.0,0.0,0.0,0.0,0.0,0.0,0.0,0.0,0.0,0.0,0.0,0.0,0.0,0.0,0.0,0.0,0.0,0.0,0.0,0.0,0.0,0.0,0.0,0.0,0.0,0.0,0.0,0.0,0.0,0.0,0.0,0.0,0.0,0.0,0.0,0.0,0.0,0.0,0.0,0.0,0.0,0.0,0.0,0.0,0.0,0.0,0.0,0.0,0.0,0.0,0.0,0.0,0.0,0.0,0.0,0.0,0.0,0.0,0.0,0.0,0.0,0.0,0.0,0.0,0.0,0.0,0.0,0.0,0.0,0.0,0.0,0.0,0.0,0.0,0.0,0.0,0.0,0.0,0.0,0.0,0.0,0.0,0.0,0.0,0.0,0.0,0.0,0.0,0.0,0.0,0.0,0.0,0.0,0.0,0.0,0.0,0.0,0.0,0.0,0.0,0.0,0.0,0.0,0.0,0.0,0.0,0.0,0.0,0.0,0.0,0.0,0.0,0.0,0.0,0.0,0.0,0.0,0.0,0.0,0.0,0.0,0.0,0.0,0.0,0.0,0.0,0.0,0.0,0.0,0.0,0.0,0.0,0.0,0.0,0.0,0.0,0.0,0.0,0.0,0.0,0.0,0.0,0.0,0.0,0.0,0.0,0.0,0.0,0.0,0.0,0.0,0.0,0.0,0.0,0.0,0.0,0.0,0.0,0.0,0.0,0.0,0.0,0.0,0.0,0.0,0.0,0.0,0.0,0.0,0.0,0.0,0.0,0.0,0.0,0.0,0.0,0.0,0.0,0.0,0.0,0.0,0.0,0.0,0.0,0.0,0.0,0.0,0.0,0.0,0.0,0.0,0.0,0.0,0.0,0.0,0.0,0.0,0.0,0.0,0.0,0.0,0.0,0.0,0.0,0.0,0.0,0.0,0.0,0.0,0.0,0.0,0.0,0.0,0.0,0.0,0.0,0.0,0.0,0.0,0.0,0.0,0.0,0.0,0.0,0.0,0.0,0.0,0.0,0.0,0.0,0.0,0.0,0.0,0.0,0.0,0.0,0.0,0.0,0.0,0.0,0.0,0.0,0.0,0.0,0.0,0.0,0.0,0.0,0.0,0.0,0.0,0.0,0.0,0.0,0.0,0.0,0.0,0.0,0.0,0.0,0.0,0.0,0.0,0.0,0.0,0.0,0.0,0.0,0.0,0.0,0.0,0.0,0.0,0.0,0.0,0.0,0.0,0.0,0.0,0.0,0.0,0.0,0.0,0.0,0.0,0.0,0.0,0.0,0.0,0.0,0.0,0.0,0.0,0.0,0.0,0.0,0.0,0.0,0.0,0.0,0.0,0.0,0.0,0.0,0.0,0.0,0.0,0.0,0.0,0.0,0.0,0.0,0.0,0.0,0.0,0.0,0.0,0.0,0.0,0.0,0.0,0.0,0.0,0.0,0.0,0.0,0.0,0.0,0.0,0.0,0.0,0.0,0.0,0.0,0.0,0.0,0.0,0.0,0.0,0.0,0.0,0.0,0.0,0.0,0.0,0.0,0.0,0.0,0.0,0.0,0.0,0.0,0.0,0.0,0.0,0.0,0.0,0.0,0.0,0.0,0.0,0.0,0.0,0.0,0.0,0.0,0.0,0.0,0.0,0.0,0.0,0.0,0.0,0.0,0.0,0.0,0.0,0.0,0.0,0.0,0.0,0.0,0.0,0.0,0.0,0.0,0.0,0.0,0.0,0.0,0.0,0.0,0.0,0.0,0.0,0.0,0.0,0.0,0.0,0.0,0.0,0.0,0.0,0.0,0.0,0.0,0.0,0.0,0.0,0.0,0.0,0.0,0.0,0.0,0.0,0.0,0.0,0.0,0.0,0.0,0.0,0.0,0.0,0.0,0.0,0.0,0.0,0.0,0.0,0.0,0.0,0.0,0.0,0.0,0.0,0.0,0.0,0.0,0.0,0.0,0.0,0.0,0.0,0.0,0.0,0.0,0.0,0.0,0.0,0.0,0.0,0.0,0.0,0.0,0.0,0.0,0.0,0.0,0.0,0.0,0.0,0.0,0.0,0.0,0.0,0.0,0.0,0.0,0.0,0.0,0.0,0.0,0.0,0.0,0.0,0.0,0.0,0.0,0.0,0.0,0.0,0.0,0.0,0.0,0.0,0.0,0.0,0.0,0.0,0.0,0.0,0.0,0.0,0.0,0.0,0.0,0.0,0.0,0.0,0.0,0.0,0.0,0.0,0.0,0.0,0.0,0.0,0.0,0.0,0.0,0.0,0.0,0.0,0.0,0.0,0.0,0.0,0.0,0.0,0.0,0.0,0.0,0.0,0.0,0.0,0.0,0.0,0.0,0.0,0.0,0.0,0.0,0.0,0.0,0.0,0.0,0.0,0.0,0.0,0.0,0.0,0.0,0.0,0.0,0.0,0.0,0.0,0.0,0.0,0.0,0.0,0.0,0.0,0.0,0.0,0.0,0.0,0.0,0.0,0.0,0.0,0.0,0.0,0.0,0.0,0.0,0.0,0.0,0.0,0.0,0.0,0.0,0.0,0.0,0.0,0.0,0.0,0.0,0.0,0.0,0.0,0.0,0.0,0.0,0.0,0.0,0.0,0.0,0.0,0.0,0.0,0.0,0.0,0.0,0.0,0.0,0.0,0.0,0.0,0.0,0.0,0.0,0.0,0.0,0.0,0.0,0.0,0.0,0.0,0.0,0.0,0.0,0.0,0.0,0.0,0.0,0.0,0.0,0.0,0.0,0.0,0.0,0.0,0.0,0.0,0.0,0.0,0.0,0.0,0.0,0.0,0.0,0.0,0.0,0.0,0.0,0.0,0.0,0.0,0.0,0.0,0.0,0.0,0.0,0.0,0.0,0.0,0.0,0.0,0.0,0.0,0.0,0.0,0.0,0.0,0.0,0.0,0.0,0.0,0.0,0.0,0.0,0.0,0.0,0.0,0.0,0.0,0.0,0.0,0.0,0.0,0.0,0.0,0.0,0.0,0.0,0.0,0.0,0.0,0.0,0.0,0.0,0.0,0.0,0.0,0.0,0.0,0.0,0.0,0.0,0.0,0.0,0.0,0.0,0.0,0.0,0.0,0.0,0.0,0.0,0.0,0.0,0.0,0.0,0.0,0.0,0.0,0.0,0.0,0.0,0.0,0.0,0.0,0.0,0.0,0.0,0.0,0.0,0.0,0.0,0.0,0.0,0.0,0.0,0.0,0.0,0.0,0.0,0.0,0.0,0.0,0.0,0.0,0.0,0.0,0.0,0.0,0.0,0.0,0.0,0.0,0.0,0.0,0.0,0.0,0.0,0.0,0.0,0.0,0.0,0.0,0.0,0.0,0.0,0.0,0.0,0.0,0.0,0.0,0.0,0.0,0.0,0.0,0.0,0.0,0.0,0.0,0.0,0.0,0.0,0.0,0.0,0.0,0.0,0.0,0.0,0.0,0.0,0.0,0.0,0.0,0.0,0.0,0.0,0.0,0.0,0.0,0.0,0.0,0.0,0.0,0.0,0.0,0.0,0.0,0.0,0.0,0.0,0.0,0.0,0.0,0.0,0.0,0.0,0.0,0.0,0.0,0.0,0.0,0.0,0.0,0.0,0.0,0.0,0.0,0.0,0.0,0.0,0.0,0.0,0.0,0.0,0.0,0.0,0.0,0.0,0.0,0.0,0.0,0.0,0.0,0.0,0.0,0.0,0.0,0.0,0.0,0.0,0.0,0.0,0.0,0.0,0.0,0.0,0.0,0.0,0.0,0.0,0.0,0.0,0.0,0.0,0.0,0.0,0.0,0.0,0.0,0.0,0.0,0.0,0.0,0.0,0.0,0.0,0.0,0.0,0.0,0.0,0.0,0.0,0.0,0.0,0.0,0.0,0.0,0.0,0.0,0.0,0.0,0.0,0.0,0.0,0.0,0.0,0.0,0.0,0.0,0.0,0.0,0.0,0.0,0.0,0.0,0.0,0.0,0.0,0.0,0.0,0.0,0.0,0.0,0.0,0.0,0.0,0.0,0.0,0.0,0.0,0.0,0.0,0.0,0.0,0.0,0.0,0.0,0.0,0.0,0.0,0.0,0.0,0.0,0.0,0.0,0.0,0.0,0.0,0.0,0.0,0.0,0.0,0.0,0.0,0.0,0.0,0.0,0.0,0.0,0.0,0.0,0.0,0.0,0.0,0.0,0.0,0.0,0.0,0.0,0.0,0.0,0.0,0.0,0.0,0.0,0.0,0.0,0.0,0.0,0.0,0.0,0.0,0.0,0.0,0.0,0.0,0.0,0.0,0.0,0.0,0.0,0.0,0.0,0.0,0.0,0.0,0.0,0.0,0.0,0.0,0.0,0.0,0.0,0.0,0.0,0.0,0.0,0.0,0.0,0.0,0.0,0.0,0.0,0.0,0.0,0.0,0.0,0.0,0.0,0.0,0.0,0.0,0.0,0.0,0.0,0.0,0.0,0.0,0.0,0.0,0.0,0.0,0.0,0.0,0.0,0.0,0.0,0.0,0.0,0.0,0.0,0.0,0.0,0.0,0.0,0.0,0.0,0.0,0.0,0.0,0.0,0.0,0.0,0.0,0.0,0.0,0.0,0.0,0.0,0.0,0.0,0.0,0.0,0.0,0.0,0.0,0.0,0.0,0.0,0.0,0.0,0.0,0.0,0.0,0.0,0.0,0.0,0.0,0.0,0.0,0.0,0.0,0.0,0.0,0.0,0.0,0.0,0.0,0.0,0.0,0.0,0.0,0.0,0.0,0.0,0.0,0.0,0.0,0.0,0.0,0.0,0.0,0.0,0.0,0.0,0.0,0.0,0.0,0.0,0.0,0.0,0.0,0.0,0.0,0.0,0.0,0.0,0.0,0.0,0.0,0.0,0.0,0.0,0.0,0.0,0.0,0.0,0.0,0.0,0.0,0.0,0.0,0.0,0.0,0.0,0.0,0.0,0.0,0.0,0.0,0.0,0.0,0.0,0.0,0.0,0.0,0.0,0.0,0.0,0.0,0.0,0.0,0.0,0.0,0.0,0.0,0.0,0.0,0.0,0.0,0.0,0.0,0.0,0.0,0.0,0.0,0.0,0.0,0.0,0.0,0.0,0.0,0.0,0.0,0.0,0.0,0.0,0.0,0.0,0.0,0.0,0.0,0.0,0.0,0.0,0.0,0.0,0.0,0.0,0.0,0.0,0.0,0.0,0.0,0.0,0.0,0.0,0.0,0.0,0.0,0.0,0.0,0.0,0.0,0.0,0.0,0.0,0.0,0.0,0.0,0.0,0.0,0.0,0.0,0.0,0.0,0.0,0.0,0.0,0.0,0.0,0.0,0.0,0.0,0.0,0.0,0.0,0.0,0.0,0.0,0.0,0.0,0.0,0.0,0.0,0.0,0.0,0.0,0.0,0.0,0.0,0.0,0.0,0.0,0.0,0.0,0.0,0.0,0.0,0.0,0.0,0.0,0.0,0.0,0.0,0.0,0.0,0.0,0.0,0.0,0.0,0.0,0.0,0.0,0.0,0.0,0.0,0.0,0.0,0.0,0.0,0.0,0.0,0.0,0.0,0.0,0.0,0.0,0.0,0.0,0.0,0.0,0.0,0.0,0.0,0.0,0.0,0.0,0.0,0.0,0.0,0.0,0.0,0.0,0.0,0.0,0.0,0.0,0.0,0.0,0.0,0.0,0.0,0.0,0.0,0.0,0.0,0.0,0.0,0.0,0.0,0.0,0.0,0.0,0.0,0.0,0.0,0.0,0.0,0.0,0.0,0.0,0.0,0.0,0.0,0.0,0.0,0.0,0.0,0.0,0.0,0.0,0.0,0.0,0.0,0.0,0.0,0.0,0.0,0.0,0.0,0.0,0.0,0.0,0.0,0.0,0.0,0.0,0.0,0.0,0.0,0.0,0.0,0.0,0.0,0.0,0.0,-0.1556,0.0,0.0,0.0,0.0,0.0,0.0,0.0,0.0,0.0,0.0,0.0,0.0,0.0,0.0,0.0,0.0,0.0,0.0,0.0,0.0,0.0,0.0,0.0,0.0,-0.141,-0.141,-0.141,-0.1321,-0.1274,-0.1343,-0.1139,0.0,0.0,-0.0895,-0.0806,-0.0806,-0.0742,-0.071,-0.0737,-0.0737,-0.0805,-0.0891,-0.0696,-0.0672,-0.0804,0.0,0.0,0.0,0.0,0.0,0.0,0.0,0.0,0.0,0.0,0.0,0.0,0.0,0.0,0.0,0.0,0.0,0.0,0.0,0.0,0.0,0.0,0.0,0.0,0.0,0.0,0.0,0.0,0.0,0.0,0.0,0.0,0.0,0.0,0.0,0.0,0.0,0.0,0.0,0.0,0.0,0.0,0.0,0.0,0.0,0.0,0.0,0.0,0.0,0.0,0.0,0.0,0.0,0.0,0.0,0.0,0.0,0.0,0.0,0.0,0.0,0.0,0.0,0.0,0.0,0.0,0.0,0.0,0.0,0.0,0.0,-0.1695,0.0,0.0,0.0,0.0,0.0,0.0,0.0,0.0,0.0,0.0,0.0,0.0,0.0,0.0,0.0,0.0,0.0,0.0,0.0,0.0,0.0,-0.1204,-0.1386,-0.1388,-0.1388,-0.1388,-0.123,-0.1185,-0.1296,-0.1072,-0.0983,-0.1094,-0.0938,-0.0871,-0.0871,-0.0773,-0.0739,-0.082,-0.0852,-0.0925,-0.1035,-0.0752,-0.0772,-0.0988,-0.0946,0.0,0.0,0.0,0.0,0.0,0.0,0.0,0.0,0.0,0.0,0.0,0.0,0.0,0.0,0.0,0.0,0.0,0.0,0.0,0.0,0.0,0.0,0.0,0.0,0.0,0.0,0.0,0.0,0.0,0.0,0.0,0.0,0.0,0.0,0.0,0.0,0.0,0.0,0.0,0.0,0.0,0.0,0.0,0.0,0.0,0.0,0.0,0.0,0.0,0.0,0.0,0.0,0.0,0.0,0.0,0.0,0.0,0.0,0.0,0.0,0.0,0.0,0.0,-0.2289,-0.2349,-0.2398,-0.2398,-0.2398,-0.2384,-0.2131,-0.2027,-0.2023,-0.1865,0.0,0.0,0.0,0.0,0.0,0.0,0.0,0.0,0.0,0.0,0.0,0.0,0.0,0.0,0.0,0.0,0.0,0.0,0.0,-0.13,-0.1394,-0.1343,-0.1321,-0.1321,-0.1296,-0.1274,-0.1296,-0.1163,-0.1072,-0.1094,-0.0852,-0.0719,-0.0719,-0.0768,-0.0823,-0.0883,-0.1075,-0.1191,-0.1262,-0.1201,-0.1244,-0.1312,-0.1146,-0.108,-0.1071,0.0,0.0,0.0,0.0,0.0,0.0,0.0,0.0,0.0,0.0,0.0,0.0,0.0,0.0,0.0,0.0,0.0,0.0,0.0,0.0,0.0,0.0,0.0,0.0,0.0,0.0,0.0,0.0,0.0,0.0,0.0,0.0,0.0,0.0,0.0,0.0,0.0,0.0,0.0,0.0,0.0,-0.1187,-0.1323,0.0,0.0,0.0,0.0,0.0,0.0,0.0,0.0,0.0,0.0,0.0,0.0,0.0,-0.2157,-0.2263,-0.2388,-0.2455,-0.2465,-0.2579,-0.2638,-0.2646,-0.2646,-0.2646,-0.2643,-0.2602,0.0,-0.2282,-0.2137,0.0,0.0,0.0,0.0,0.0,0.0,0.0,0.0,0.0,0.0,0.0,0.0,0.0,0.0,0.0,0.0,0.0,0.0,0.0,0.0,0.0,-0.1449,-0.1414,-0.1319,-0.1296,-0.1255,-0.1128,-0.1004,-0.0915,-0.0876,-0.0764,-0.0711,-0.0766,-0.0826,-0.0936,-0.1134,-0.105,-0.1179,-0.1409,-0.1238,-0.1321,-0.1531,-0.1426,-0.1305,-0.1211,-0.1149,0.0,0.0,0.0,0.0,0.0,0.0,0.0,0.0,0.0,0.0,0.0,0.0,0.0,0.0,0.0,0.0,0.0,0.0,0.0,0.0,0.0,0.0,0.0,0.0,0.0,0.0,0.0,0.0,0.0,0.0,0.0,0.0,0.0,0.0,0.0,0.0,0.0,0.0,0.0,-0.1139,-0.1396,-0.1429,-0.1445,-0.1436,0.0,0.0,0.0,0.0,0.0,0.0,0.0,0.0,0.0,-0.2296,-0.2337,-0.2397,-0.2484,-0.2638,-0.2714,-0.2715,-0.2835,-0.2892,-0.2892,-0.2892,-0.2892,-0.2892,-0.2892,-0.2834,-0.2719,-0.2489,-0.2362,-0.2303,0.0,0.0,0.0,0.0,-0.2164,-0.2154,0.0,0.0,0.0,0.0,0.0,0.0,0.0,0.0,0.0,0.0,0.0,0.0,-0.1445,-0.1488,-0.1449,-0.1319,-0.1279,-0.1178,-0.104,-0.0915,-0.0835,-0.079,-0.0743,-0.0738,-0.0804,-0.0925,-0.1125,-0.1345,-0.1155,-0.1227,-0.1523,-0.1364,-0.1389,-0.1662,-0.1662,-0.1545,-0.1387,-0.1268,-0.1174,-0.1065,0.0,0.0,0.0,0.0,0.0,0.0,0.0,0.0,0.0,0.0,0.0,0.0,0.0,0.0,0.0,0.0,0.0,0.0,0.0,0.0,0.0,0.0,0.0,0.0,0.0,0.0,0.0,0.0,0.0,0.0,0.0,0.0,0.0,0.0,0.0,0.0,0.0,-0.1331,-0.1576,-0.1593,-0.1674,-0.17,0.0,0.0,0.0,0.0,0.0,0.0,-0.2233,-0.2245,-0.2334,-0.253,-0.2579,-0.264,-0.2715,-0.2852,-0.2918,-0.292,-0.3007,-0.3144,-0.3144,-0.3144,-0.3144,-0.3144,-0.3144,-0.3144,-0.3122,-0.2743,-0.2617,-0.2591,-0.2473,-0.2443,-0.2466,-0.2466,-0.244,-0.2425,0.0,0.0,0.0,0.0,0.0,0.0,0.0,0.0,0.0,0.0,0.0,-0.1448,-0.1568,-0.1357,-0.1243,-0.1303,-0.1174,-0.1118,-0.1087,-0.1021,-0.0979,-0.0976,-0.0875,-0.0801,-0.0804,-0.1125,-0.1301,-0.1379,-0.1498,-0.1587,-0.1698,-0.17,-0.1733,-0.1788,-0.1788,-0.1717,-0.159,-0.1424,-0.134,-0.1268,-0.1134,0.0,0.0,0.0,0.0,0.0,0.0,0.0,0.0,0.0,0.0,0.0,0.0,0.0,0.0,0.0,0.0,0.0,0.0,0.0,0.0,0.0,0.0,0.0,0.0,0.0,0.0,0.0,0.0,0.0,0.0,0.0,0.0,0.0,0.0,0.0,0.0,0.0,0.0,-0.1777,-0.1936,0.0,0.0,0.0,0.0,-0.2193,-0.2188,-0.2301,-0.2484,-0.2492,-0.2602,-0.2843,-0.2854,-0.291,-0.3119,-0.313,-0.3134,-0.3136,-0.3141,-0.3144,-0.3144,-0.3144,-0.3144,-0.3144,-0.3144,-0.3144,-0.3139,-0.2967,-0.2905,-0.2843,-0.2722,-0.264,-0.2593,-0.2593,-0.259,-0.2598,0.0,0.0,0.0,-0.0844,-0.087,-0.098,-0.1194,-0.1261,-0.1317,-0.1394,-0.148,-0.1541,-0.1587,-0.1706,-0.1697,-0.1448,-0.1503,-0.1414,-0.111,-0.1004,-0.0962,-0.1006,-0.0912,-0.0954,-0.1111,-0.1296,-0.145,-0.1609,-0.1653,-0.1704,-0.1764,-0.1764,-0.1796,-0.185,-0.1813,-0.1793,-0.1777,-0.1617,-0.1468,-0.1399,-0.1266,-0.1194,0.0,0.0,0.0,0.0,0.0,0.0,0.0,0.0,0.0,0.0,0.0,0.0,0.0,0.0,0.0,0.0,0.0,0.0,0.0,0.0,0.0,0.0,0.0,0.0,0.0,0.0,0.0,0.0,0.0,0.0,0.0,0.0,0.0,0.0,0.0,0.0,0.0,-0.2015,-0.2151,0.0,-0.2229,-0.2267,-0.2334,-0.2435,-0.2462,-0.2553,-0.2734,-0.2745,-0.2819,-0.2982,-0.2986,-0.3007,-0.3143,-0.3089,-0.3108,-0.3108,-0.3147,-0.3165,-0.3165,-0.3165,-0.3165,-0.3165,-0.3165,-0.3165,-0.3164,-0.3143,-0.3098,-0.3037,-0.2954,-0.2932,-0.2943,-0.2905,-0.289,-0.2892,-0.1027,-0.0995,0.0,-0.0919,-0.0932,-0.1038,-0.1258,-0.1326,-0.1343,-0.14,-0.1467,-0.1568,-0.1726,-0.1797,-0.1773,-0.1659,-0.1621,-0.1473,-0.1145,-0.0993,-0.0944,-0.0984,-0.0986,-0.1108,-0.1325,-0.1407,-0.1564,-0.1706,-0.1747,-0.1786,-0.1826,-0.1847,-0.1876,-0.191,-0.1873,-0.1877,-0.1905,-0.1786,-0.1677,-0.1572,-0.1413,-0.1324,-0.1273,0.0,0.0,0.0,0.0,0.0,0.0,0.0,0.0,0.0,0.0,0.0,0.0,0.0,0.0,0.0,0.0,0.0,0.0,0.0,0.0,0.0,0.0,0.0,0.0,0.0,0.0,0.0,0.0,0.0,0.0,0.0,0.0,0.0,0.0,0.0,-0.2117,-0.2177,-0.2345,-0.2454,-0.245,-0.2488,-0.2563,-0.2684,-0.2694,-0.2763,-0.2925,-0.2933,-0.2978,-0.3076,-0.3079,-0.309,-0.311,-0.315,-0.3181,-0.3202,-0.3241,-0.3271,-0.3292,-0.3292,-0.3292,-0.3292,-0.3292,-0.3292,-0.3292,-0.3292,-0.3268,-0.3221,-0.312,-0.3104,-0.3132,-0.3071,-0.3144,-0.3144,-0.1027,-0.0995,-0.0982,-0.0922,-0.101,-0.1146,-0.1275,-0.1356,-0.141,-0.141,-0.1347,-0.1492,-0.1938,-0.1592,-0.1478,-0.1862,-0.1462,-0.1204,-0.1204,-0.1087,-0.0989,-0.0995,-0.1148,-0.1262,-0.1394,-0.1557,-0.1649,-0.1711,-0.1826,-0.1882,-0.1886,-0.1944,-0.1973,-0.1976,-0.1973,-0.1973,-0.1976,-0.1973,-0.1873,-0.1704,-0.1582,-0.1484,-0.1511,0.0,0.0,0.0,0.0,0.0,0.0,0.0,0.0,0.0,0.0,0.0,0.0,0.0,0.0,0.0,0.0,0.0,0.0,0.0,0.0,0.0,0.0,0.0,0.0,0.0,0.0,0.0,0.0,0.0,0.0,0.0,0.0,0.0,-0.1819,-0.2117,-0.232,-0.2194,-0.2516,-0.2651,-0.2538,-0.2632,-0.2751,-0.2873,-0.288,-0.2931,-0.3045,-0.3147,-0.3079,-0.314,-0.3144,-0.3174,-0.3233,-0.3236,-0.3266,-0.3324,-0.3324,-0.3356,-0.3413,-0.3413,-0.3413,-0.3413,-0.3413,-0.3413,-0.3413,-0.3413,-0.3413,-0.3395,-0.3217,-0.3147,-0.3138,-0.3079,-0.3151,-0.3056,-0.1027,-0.0995,-0.1014,-0.1048,-0.1082,-0.1157,-0.1351,-0.1389,-0.141,-0.141,-0.1562,-0.1709,-0.1829,-0.1873,-0.1839,-0.1778,-0.1541,-0.1347,-0.1204,-0.1087,-0.1078,-0.1215,-0.1339,-0.149,-0.1628,-0.1664,-0.1732,-0.1832,-0.1865,-0.1903,-0.1947,-0.1965,-0.1996,-0.2099,-0.1992,-0.1996,-0.2099,-0.1991,-0.1944,-0.1888,-0.177,-0.1696,-0.1642,0.0,0.0,0.0,0.0,0.0,0.0,0.0,0.0,0.0,0.0,0.0,0.0,0.0,0.0,0.0,0.0,0.0,0.0,0.0,0.0,0.0,0.0,0.0,0.0,0.0,0.0,0.0,0.0,0.0,0.0,0.0,0.0,-0.2236,-0.2135,-0.2317,-0.2489,-0.256,-0.2681,-0.2796,-0.2891,-0.2891,-0.2936,-0.3057,-0.3026,-0.3034,-0.311,-0.3115,-0.3142,-0.3204,-0.3248,-0.3279,-0.3296,-0.3341,-0.3371,-0.3387,-0.3387,-0.3397,-0.3413,-0.3413,-0.3413,-0.3413,-0.3413,-0.3413,-0.3413,-0.3413,-0.3413,-0.3407,-0.3357,-0.3311,-0.327,-0.3253,-0.3218,-0.3187,-0.1064,-0.1113,-0.1163,-0.1148,-0.1215,-0.1306,-0.1381,-0.141,-0.141,-0.141,-0.1563,-0.1723,-0.1857,-0.1838,-0.1798,-0.1799,-0.1548,-0.1312,-0.1204,-0.116,-0.1207,-0.1326,-0.1481,-0.1608,-0.1704,-0.1755,-0.1812,-0.1882,-0.1932,-0.1976,-0.2074,-0.21,-0.2131,-0.2165,-0.2128,-0.2133,-0.2164,-0.2127,-0.2112,-0.2103,-0.1946,-0.1857,-0.177,-0.1674,-0.1601,-0.1537,-0.1404,-0.1374,-0.1366,-0.1352,0.0,0.0,0.0,0.0,0.0,0.0,0.0,0.0,0.0,0.0,0.0,0.0,0.0,0.0,0.0,0.0,0.0,0.0,0.0,0.0,0.0,0.0,0.0,0.0,-0.2304,-0.2469,-0.2503,-0.2597,-0.268,-0.2725,-0.2805,-0.2898,-0.3001,-0.3003,-0.3037,-0.3132,-0.3106,-0.3113,-0.3174,-0.3177,-0.3206,-0.3267,-0.3304,-0.3334,-0.336,-0.3395,-0.3424,-0.3447,-0.3447,-0.3461,-0.3486,-0.3486,-0.3486,-0.3486,-0.3486,-0.3486,-0.3486,-0.3486,-0.3486,0.0,0.0,0.0,0.0,0.0,-0.3337,-0.3312,-0.1148,-0.1281,-0.1358,-0.125,-0.1384,-0.1477,-0.1416,-0.141,-0.141,-0.141,-0.1454,-0.1616,-0.1916,-0.163,-0.1517,-0.1829,-0.1442,-0.12,-0.1251,-0.128,-0.137,-0.1439,-0.1561,-0.1654,-0.1715,-0.1824,-0.1884,-0.1891,-0.2069,-0.2131,-0.2138,-0.2195,-0.2221,-0.2221,-0.2221,-0.2225,-0.2231,-0.2224,-0.2225,-0.2227,-0.2164,-0.2004,-0.1895,-0.1838,-0.1779,-0.1711,-0.1597,-0.1555,-0.1546,-0.1439,0.0,0.0,0.0,0.0,0.0,0.0,0.0,0.0,0.0,0.0,0.0,0.0,0.0,0.0,0.0,0.0,0.0,0.0,0.0,0.0,0.0,0.0,0.0,0.0,-0.2503,-0.2634,-0.2845,-0.2886,-0.2872,-0.2811,-0.2894,-0.2963,-0.2977,-0.3027,-0.3085,-0.3144,-0.315,-0.3177,-0.3237,0.0,0.0,0.0,0.0,-0.3367,-0.3421,-0.3428,-0.3456,-0.3507,-0.3507,-0.3536,-0.3587,-0.3587,-0.3587,-0.3587,-0.3587,-0.3587,-0.3587,-0.3587,-0.3587,-0.3576,-0.3465,-0.3422,-0.3421,-0.3414,-0.3413,-0.3413,-0.1323,-0.137,-0.1412,-0.1439,-0.147,-0.1477,-0.1416,-0.141,-0.141,-0.141,-0.1512,-0.1607,-0.1683,-0.147,-0.1369,-0.1487,-0.1274,-0.1241,-0.1499,-0.1423,-0.1521,-0.1787,-0.1725,-0.1718,-0.1778,-0.1846,-0.1905,-0.1955,-0.2091,-0.2154,-0.2203,-0.2216,-0.2221,-0.2221,-0.2221,-0.2181,-0.2223,-0.2174,-0.2183,-0.2222,-0.2161,-0.2158,-0.2084,-0.1961,-0.1901,-0.1838,-0.177,-0.1745,-0.1734,-0.1674,-0.1621,-0.1576,-0.1553,-0.1446,0.0,0.0,0.0,0.0,0.0,0.0,0.0,0.0,0.0,0.0,0.0,0.0,0.0,0.0,0.0,0.0,0.0,0.0,0.0,-0.2471,-0.2706,-0.2872,-0.2875,-0.2955,-0.2992,-0.2932,-0.2944,-0.2996,-0.3095,-0.3115,-0.3147,-0.3209,-0.3213,-0.324,-0.33,-0.3304,-0.3332,-0.3392,-0.3439,-0.3469,-0.348,-0.3529,-0.3559,-0.357,0.0,0.0,-0.3587,-0.3587,-0.3587,-0.3587,-0.3587,-0.3587,-0.3587,-0.3587,-0.3587,-0.358,-0.3508,-0.348,-0.3474,-0.3429,-0.3413,-0.3413,-0.1629,-0.1655,-0.1655,-0.1696,-0.1785,-0.1825,-0.1711,-0.1699,-0.1655,-0.1563,-0.1729,-0.179,-0.1617,-0.1558,-0.1531,-0.1469,-0.1282,-0.1374,-0.1713,-0.1701,-0.179,-0.1961,-0.1948,-0.1929,-0.1797,-0.1883,-0.1941,-0.1971,-0.2128,-0.219,-0.2221,-0.2221,-0.2221,-0.2223,-0.2185,-0.2215,-0.2174,-0.2245,-0.2244,-0.2171,-0.2211,-0.2164,-0.2168,-0.2105,-0.198,-0.1918,-0.186,-0.1839,-0.183,-0.1771,-0.1732,-0.17,-0.167,-0.1598,-0.146,0.0,0.0,0.0,0.0,0.0,0.0,0.0,0.0,0.0,0.0,0.0,0.0,0.0,0.0,-0.2067,-0.2214,0.0,-0.255,-0.2673,-0.2792,-0.2882,-0.2912,-0.2966,-0.2992,-0.2962,-0.3012,-0.3072,-0.3134,-0.3166,-0.3198,-0.3229,-0.3259,-0.3289,-0.332,-0.335,-0.3394,-0.3452,-0.3481,-0.3511,-0.3542,-0.3572,-0.3587,-0.3587,-0.3587,-0.3587,-0.3587,-0.3587,-0.3587,-0.3587,-0.3587,-0.3587,-0.3587,-0.3587,-0.3587,-0.3585,-0.3553,-0.3542,-0.3538,-0.3511,-0.35,-0.35,-0.1877,-0.1937,-0.1959,-0.1951,-0.2101,-0.2154,-0.203,-0.2008,-0.1942,-0.1781,-0.1936,-0.197,-0.1702,-0.1738,-0.1745,-0.1621,-0.1505,-0.161,-0.2013,-0.2072,-0.2102,-0.2168,-0.2162,-0.2074,-0.1908,-0.1971,-0.1971,-0.1971,-0.2159,-0.2221,-0.2221,-0.2221,-0.2221,-0.2224,-0.2204,-0.224,-0.2194,-0.2289,-0.2285,-0.219,-0.2236,-0.2198,-0.2214,-0.2151,-0.2088,-0.1966,-0.1916,-0.1884,-0.1858,-0.1812,-0.1797,-0.1789,-0.1738,-0.1715,-0.1677,-0.1482,-0.1466,0.0,0.0,0.0,0.0,0.0,0.0,0.0,0.0,0.0,-0.1879,-0.2119,-0.2255,-0.2375,-0.2519,-0.2614,-0.2711,-0.2837,-0.2843,-0.2864,-0.2946,-0.2978,-0.2993,-0.2993,-0.3079,-0.3144,-0.3157,-0.3202,-0.323,-0.323,-0.3288,-0.3326,-0.3338,-0.3397,-0.3455,-0.3512,-0.3514,-0.3538,-0.3587,-0.3587,-0.3587,-0.3587,-0.3587,-0.3587,-0.3587,-0.3587,-0.3587,-0.3587,-0.3587,-0.3587,-0.3587,-0.3587,-0.3587,-0.3587,-0.3587,-0.3587,-0.3587,-0.3587,-0.3587,-0.3587,-0.1877,-0.2048,-0.2163,-0.2177,-0.2181,-0.2154,-0.203,-0.2008,-0.1986,-0.1964,-0.2001,-0.1994,-0.1949,-0.187,-0.1864,-0.2029,-0.1962,-0.2109,-0.2568,-0.2439,-0.2459,-0.2723,-0.2376,-0.2183,-0.2128,-0.2029,-0.1971,-0.1971,-0.2159,-0.2221,-0.2221,-0.2221,-0.2221,-0.2221,-0.2228,-0.2225,-0.2319,-0.2218,-0.2233,-0.2316,-0.2207,-0.2228,-0.2214,-0.2151,-0.2088,-0.1971,-0.1965,-0.1895,-0.1805,-0.18,-0.1797,-0.1796,-0.1789,-0.1749,-0.1702,-0.1681,0.0,-0.1614,-0.1654,-0.1715,-0.1792,-0.1895,-0.1887,-0.1936,0.0,0.0,-0.2252,-0.2492,-0.2595,-0.2649,-0.2669,-0.2807,-0.2891,-0.2807,-0.292,-0.3006,-0.2963,-0.305,-0.312,-0.312,-0.3131,-0.3161,-0.3215,-0.3226,-0.323,-0.323,-0.3288,-0.3345,-0.3399,-0.3455,-0.3515,-0.3575,-0.3576,-0.358,-0.3587,-0.3587,-0.3587,-0.3587,-0.3587,-0.3587,-0.3587,-0.3587,-0.3587,-0.3587,-0.3587,-0.3587,-0.3587,-0.3587,-0.3587,-0.3587,-0.3587,-0.3587,-0.3587,-0.3587,-0.3587,-0.3587,-0.1999,-0.2121,-0.224,-0.2362,-0.2376,-0.2359,-0.2294,-0.2294,-0.225,-0.2136,-0.2224,-0.2206,-0.203,-0.1942,-0.2025,-0.2314,-0.2337,-0.2468,-0.2805,-0.2748,-0.2718,-0.2773,-0.2593,-0.2465,-0.2465,-0.2329,-0.2219,-0.2219,-0.2187,-0.2185,-0.222,-0.2183,-0.2186,-0.2223,-0.2191,-0.2234,-0.2211,-0.2266,-0.2268,-0.2207,-0.2228,-0.2185,-0.2214,-0.2151,-0.2088,-0.1967,-0.1932,-0.1887,0.0,-0.1808,-0.1797,-0.1797,-0.1797,-0.1779,-0.1752,-0.1717,-0.1736,0.0,-0.1887,-0.1958,0.0,0.0,-0.2162,-0.2243,-0.2429,-0.2462,-0.2511,-0.2718,-0.2835,-0.2888,-0.2853,-0.2937,-0.2984,0.0,-0.2947,-0.2999,-0.3103,-0.3055,-0.3087,-0.3087,-0.3119,-0.3164,-0.3225,-0.323,-0.323,-0.323,-0.332,-0.3386,-0.3412,-0.3499,-0.3561,-0.3587,-0.3587,-0.3587,-0.3587,-0.3587,-0.3587,-0.3587,-0.3587,-0.3587,-0.3587,-0.3587,-0.3587,-0.3587,-0.3587,-0.3587,-0.3587,-0.3587,-0.3587,-0.3587,-0.3587,-0.3587,-0.3587,-0.3587,-0.3587,-0.3587,-0.2073,-0.2191,-0.2298,-0.2479,-0.2534,-0.2534,-0.2517,-0.2495,-0.2446,-0.2307,-0.2403,-0.2407,-0.2162,-0.214,-0.2262,-0.257,-0.2653,-0.2778,-0.3046,-0.3049,-0.305,-0.3068,-0.2781,-0.272,-0.28,-0.2545,-0.2444,-0.2588,-0.2394,-0.2328,-0.2327,-0.2196,-0.22,-0.2197,-0.2174,-0.2213,-0.2177,-0.2274,-0.227,-0.2173,-0.2226,-0.2183,-0.2189,-0.2126,-0.2,-0.1939,-0.188,-0.1858,-0.1847,-0.1773,-0.177,-0.1794,-0.1778,-0.1783,-0.1792,-0.1763,-0.1827,-0.1929,-0.2098,0.0,0.0,-0.2294,-0.2407,-0.2515,-0.2593,-0.2657,-0.2747,-0.2913,-0.3015,-0.3061,-0.3016,-0.3031,-0.3129,-0.2991,-0.2984,-0.3004,-0.3065,-0.3074,-0.3074,-0.3074,-0.3098,-0.3138,-0.32,-0.3221,-0.323,-0.323,-0.3343,-0.3413,-0.3413,-0.3523,-0.3587,-0.3587,-0.3587,-0.3587,-0.3587,-0.3587,-0.3587,-0.3587,-0.3587,-0.3587,-0.3587,-0.3587,-0.3587,-0.3587,-0.3587,-0.3587,-0.3587,-0.3587,-0.3587,-0.3587,-0.3587,-0.3587,-0.3587,-0.3587,-0.3587,-0.3587,-0.2088,-0.2267,-0.2426,-0.2479,-0.2616,-0.2659,-0.2517,-0.2495,-0.2495,-0.2495,-0.2495,-0.2495,-0.2495,-0.2495,-0.2575,-0.2783,-0.2845,-0.3059,-0.3452,-0.3372,-0.3438,-0.3754,-0.2972,-0.2705,-0.3074,-0.2548,-0.2511,-0.2954,-0.2895,-0.2756,-0.2582,-0.2443,-0.2259,-0.213,-0.2133,-0.2134,-0.2171,-0.2184,-0.2192,-0.217,-0.218,-0.2186,-0.2123,-0.1997,-0.1937,-0.1876,-0.182,-0.18,-0.1781,-0.1661,-0.1699,-0.1786,-0.1728,-0.1749,0.0,-0.186,-0.192,-0.1984,0.0,0.0,-0.2212,-0.2459,-0.2594,-0.2715,-0.2835,-0.2907,-0.2982,-0.3106,-0.3135,-0.3136,-0.3135,-0.3087,-0.3143,-0.3141,-0.3141,-0.3067,-0.3128,-0.3136,-0.3136,-0.3136,-0.3087,-0.3075,0.0,-0.3195,-0.323,-0.323,-0.3343,-0.3413,-0.3413,-0.3523,-0.3587,-0.3587,-0.3587,-0.3587,-0.3587,-0.3587,-0.3587,-0.3587,-0.3587,-0.3587,-0.3587,-0.3587,-0.3587,-0.3587,-0.3587,-0.3587,-0.3587,-0.3587,-0.3587,-0.3587,-0.3587,-0.3587,-0.3587,-0.3587,-0.3587,-0.3587,-0.2189,-0.2219,-0.226,-0.2476,-0.2534,-0.2555,-0.2517,-0.2495,-0.2495,-0.2495,-0.2495,0.0,0.0,0.0,0.0,0.0,-0.2945,-0.3125,-0.3307,-0.3445,-0.3594,-0.3802,-0.3394,-0.3305,-0.3619,-0.3142,-0.2953,-0.3104,-0.2924,-0.2851,-0.2812,-0.2726,-0.2671,-0.2625,-0.2625,-0.2684,-0.2713,-0.27,-0.2611,-0.2512,-0.2397,-0.2238,-0.2116,-0.1951,-0.1876,-0.1812,0.0,-0.1703,-0.1725,-0.1643,-0.1669,-0.1733,-0.1713,0.0,0.0,-0.1913,-0.1985,-0.2064,0.0,0.0,-0.2465,-0.2646,-0.2752,-0.2854,-0.3014,-0.3065,-0.3079,-0.3079,-0.3079,-0.3044,-0.2925,-0.292,-0.2946,-0.2982,-0.3116,-0.3085,-0.3185,-0.3165,-0.3125,-0.3085,-0.3097,0.0,0.0,0.0,0.0,-0.3228,-0.3343,-0.3413,-0.3413,-0.3523,-0.3587,-0.3587,-0.3587,-0.3587,-0.3587,-0.3587,-0.3587,-0.3587,-0.3587,-0.3587,-0.3587,-0.3587,-0.3609,-0.3646,-0.3605,-0.361,-0.3644,-0.3604,-0.3587,-0.3587,-0.3587,-0.3587,-0.3587,-0.3587,-0.3587,-0.3587,-0.2333,-0.2368,-0.2405,-0.2556,-0.2577,0.0,0.0,0.0,0.0,0.0,0.0,0.0,0.0,0.0,0.0,0.0,0.0,-0.3037,-0.3155,-0.3349,-0.355,-0.3738,-0.35,-0.3498,-0.3801,-0.3302,-0.3278,-0.3682,-0.3193,-0.304,-0.3264,-0.3045,-0.2876,-0.2845,-0.2845,-0.2893,-0.2973,-0.2917,-0.2831,-0.2792,-0.2629,-0.2461,-0.2263,-0.2173,-0.2026,0.0,-0.1772,-0.1659,-0.1632,-0.1571,-0.162,-0.1703,-0.168,-0.1923,-0.2224,-0.2071,-0.2253,-0.254,-0.2454,-0.2518,-0.2651,-0.2832,-0.2924,-0.2993,-0.3086,-0.3108,-0.3085,-0.3004,-0.2969,-0.2913,-0.2775,-0.2764,-0.2809,-0.2912,-0.2961,-0.3037,-0.3179,-0.3164,-0.3125,-0.3086,-0.3097,-0.3101,0.0,0.0,0.0,-0.3226,-0.3343,-0.3413,-0.3413,-0.3523,-0.3587,-0.3587,-0.3587,-0.3587,-0.3587,-0.3587,-0.3587,-0.3587,-0.3587,-0.3587,-0.3587,-0.3587,-0.3621,-0.3674,-0.3615,-0.3621,-0.3673,-0.3613,-0.3587,-0.3587,-0.3587,-0.3587,-0.3587,-0.3587,-0.3587,-0.3587,-0.2501,-0.2659,-0.2772,0.0,0.0,0.0,0.0,0.0,0.0,0.0,0.0,0.0,0.0,0.0,0.0,0.0,0.0,0.0,-0.3058,-0.3142,-0.3338,-0.3695,-0.3286,-0.323,-0.3727,-0.3161,-0.3401,-0.4476,-0.3669,-0.3492,-0.4016,-0.3442,-0.3053,-0.2853,-0.2853,-0.2905,-0.2932,-0.2928,-0.293,-0.2877,-0.2869,-0.2769,-0.2571,-0.2567,-0.2302,-0.1955,-0.1934,-0.1716,-0.1468,-0.1412,0.0,0.0,0.0,0.0,0.0,-0.2236,-0.2695,-0.3272,-0.2801,-0.2786,-0.2838,-0.3011,-0.3094,-0.312,-0.3063,-0.3139,-0.3006,-0.2882,-0.2807,-0.2744,0.0,0.0,-0.2654,-0.2831,-0.2873,-0.2943,-0.3115,-0.3142,-0.3143,0.0,0.0,0.0,0.0,0.0,0.0,-0.3236,0.0,-0.3414,-0.3417,-0.3525,-0.3587,-0.3587,-0.3587,-0.3587,-0.3587,-0.3587,-0.3587,-0.3587,-0.3587,-0.3587,-0.3587,-0.3587,-0.3621,-0.3674,-0.3615,-0.3621,-0.3673,-0.3613,-0.3587,-0.3587,-0.3587,-0.3587,-0.3587,-0.3587,-0.3587,-0.3587,0.0,0.0,0.0,0.0,0.0,0.0,0.0,0.0,0.0,0.0,0.0,0.0,0.0,0.0,0.0,0.0,0.0,0.0,-0.2863,-0.3046,-0.3307,-0.3671,-0.3605,-0.3647,-0.3936,-0.3637,-0.3676,-0.4104,-0.3918,-0.3968,-0.4237,-0.4042,-0.3991,-0.392,-0.392,-0.3841,-0.3638,-0.3596,-0.3232,-0.2746,-0.2609,-0.2302,-0.1938,-0.1888,-0.1766,-0.1643,-0.1818,-0.1716,0.0,0.0,0.0,0.0,0.0,0.0,-0.2521,0.0,0.0,-0.2959,-0.3621,-0.3388,-0.3003,-0.3094,-0.3094,-0.3068,-0.3053,-0.2981,-0.2858,-0.2647,-0.2555,-0.2467,-0.2319,0.0,0.0,-0.2655,-0.2858,0.0,-0.3127,-0.3179,0.0,0.0,0.0,-0.3189,-0.3206,-0.3248,0.0,0.0,-0.3395,-0.3431,-0.3473,-0.3546,-0.3587,-0.3587,-0.3587,-0.3587,-0.3587,-0.3587,-0.3587,-0.3587,-0.3587,-0.3587,-0.3587,-0.3587,-0.3621,-0.3674,-0.3615,-0.3621,-0.3673,-0.3613,-0.3587,-0.3587,-0.3587,-0.3587,-0.3587,-0.3587,-0.3587,-0.3587,0.0,0.0,0.0,0.0,0.0,0.0,0.0,0.0,0.0,0.0,0.0,0.0,0.0,0.0,0.0,0.0,0.0,0.0,0.0,-0.2859,-0.3081,-0.3283,-0.349,-0.3607,-0.3746,-0.3668,-0.3843,-0.4195,-0.3921,-0.3991,-0.429,-0.4098,-0.4091,-0.4159,-0.4159,-0.4147,-0.4083,-0.405,-0.3805,0.0,0.0,-0.2973,-0.2528,-0.2376,-0.2064,-0.1765,-0.1811,0.0,0.0,0.0,0.0,-0.2084,-0.211,-0.2357,-0.2822,-0.3156,0.0,-0.3249,-0.3625,-0.3455,-0.3131,-0.3138,-0.3094,-0.3123,-0.2951,-0.282,-0.2646,-0.2403,-0.2305,0.0,-0.2162,0.0,0.0,0.0,0.0,0.0,-0.3083,-0.3176,-0.3218,0.0,-0.321,0.0,-0.3267,-0.3301,-0.3357,0.0,-0.345,-0.3463,-0.3495,-0.3555,-0.3587,-0.3587,-0.3587,-0.3587,-0.3587,-0.3587,-0.3587,-0.3587,-0.3587,-0.3587,-0.3587,-0.3587,-0.3621,-0.3674,0.0,-0.3621,-0.3673,-0.3613,-0.3587,-0.3587,-0.3587,-0.3587,-0.3587,-0.3587,-0.3587,-0.3587,0.0,0.0,0.0,0.0,0.0,0.0,0.0,0.0,0.0,0.0,0.0,0.0,0.0,0.0,0.0,0.0,0.0,0.0,0.0,0.0,-0.2764,-0.2792,-0.3137,-0.3359,-0.3386,-0.3506,-0.3827,-0.4361,-0.3897,-0.39,-0.4289,-0.394,-0.3891,-0.4077,-0.4077,-0.4105,-0.423,-0.423,-0.4197,-0.4167,-0.4167,-0.3904,-0.3522,0.0,-0.2723,-0.2154,0.0,0.0,0.0,0.0,-0.2322,-0.2265,-0.2254,-0.2737,-0.3218,-0.2882,-0.3251,-0.3702,-0.3321,-0.3193,-0.3215,-0.3155,-0.3082,-0.298,-0.28,-0.2612,-0.241,-0.2245,0.0,-0.2084,-0.1961,-0.2119,-0.22,-0.238,0.0,-0.2837,-0.3023,-0.3147,-0.3221,-0.323,-0.323,-0.3258,-0.3327,-0.3334,-0.3383,-0.35,-0.3508,-0.3508,-0.3508,-0.3559,-0.3587,-0.3587,-0.3587,-0.3587,-0.3587,-0.3587,-0.3587,-0.3587,-0.3587,-0.3587,-0.3587,-0.3587,-0.3616,-0.3664,-0.361,-0.3617,-0.3662,-0.3609,-0.3587,-0.3587,-0.3587,-0.3587,-0.3587,-0.3587,-0.3587,-0.3587,0.0,0.0,0.0,0.0,0.0,0.0,0.0,0.0,0.0,0.0,0.0,0.0,0.0,0.0,0.0,0.0,0.0,0.0,0.0,0.0,0.0,-0.2788,-0.2863,-0.3062,-0.3407,-0.3426,-0.3644,-0.4061,-0.398,-0.4071,-0.4392,-0.4313,-0.4292,-0.4324,-0.4324,-0.4182,-0.3886,-0.3886,-0.3723,-0.3463,-0.3463,-0.3386,-0.3236,-0.2926,0.0,0.0,0.0,0.0,0.0,0.0,-0.2463,-0.2199,-0.2275,-0.2504,-0.289,-0.3639,-0.3498,-0.3324,-0.4045,-0.3712,-0.3215,-0.3155,-0.3021,-0.2857,-0.2674,-0.2455,0.0,0.0,0.0,-0.1895,-0.1838,-0.1965,0.0,-0.232,0.0,0.0,0.0,0.0,-0.3174,0.0,0.0,0.0,0.0,0.0,0.0,0.0,0.0,-0.3571,-0.3571,-0.3582,-0.3587,-0.3587,-0.3587,-0.3587,-0.3587,-0.3587,-0.3587,-0.3587,-0.3587,-0.3587,-0.3587,-0.3587,-0.3593,-0.3602,-0.3593,0.0,-0.3602,-0.3591,-0.3587,-0.3587,-0.3587,-0.3587,-0.3587,-0.3587,-0.3587,-0.3587,0.0,0.0,0.0,0.0,0.0,0.0,0.0,-0.2702,-0.2577,-0.2517,-0.2495,-0.2495,-0.2495,-0.2495,-0.2495,0.0,0.0,0.0,0.0,0.0,0.0,-0.2632,-0.2736,-0.2887,-0.3085,0.0,0.0,0.0,0.0,0.0,-0.404,0.0,0.0,0.0,0.0,0.0,-0.4094,-0.4094,-0.403,-0.3882,-0.3971,-0.3886,-0.362,0.0,0.0,0.0,0.0,0.0,0.0,0.0,-0.2507,-0.2097,-0.2312,-0.2459,-0.2658,-0.329,-0.3172,-0.3025,-0.3587,-0.3502,-0.3161,-0.3068,-0.2935,-0.2763,-0.2519,0.0,0.0,0.0,0.0,-0.1792,-0.1797,0.0,0.0,0.0,0.0,0.0,0.0,0.0,0.0,0.0,0.0,0.0,0.0,0.0,0.0,0.0,0.0,-0.3587,-0.3587,-0.3587,-0.3587,-0.3587,-0.3587,-0.3587,-0.3587,-0.3587,-0.3587,-0.3587,-0.3587,-0.3587,-0.3587,-0.3587,-0.3587,-0.3587,-0.3587,-0.3587,-0.3587,-0.3587,-0.3587,-0.3587,-0.3587,-0.3587,-0.3587,-0.3587,-0.3587,-0.3587,0.0,0.0,0.0,0.0,0.0,0.0,-0.2843,-0.2789,-0.2697,-0.2555,-0.2517,-0.2495,-0.2495,-0.2495,-0.2495,0.0,0.0,0.0,0.0,0.0,0.0,0.0,0.0,0.0,0.0,0.0,0.0,0.0,0.0,0.0,0.0,0.0,0.0,0.0,0.0,0.0,0.0,0.0,-0.429,0.0,0.0,0.0,0.0,0.0,0.0,0.0,0.0,0.0,0.0,0.0,-0.2552,-0.2005,-0.2218,-0.2382,-0.2503,-0.2659,-0.2777,-0.2877,-0.2984,-0.3065,-0.3091,-0.297,-0.2831,-0.2653,-0.2377,-0.2119,0.0,0.0,-0.174,-0.1721,-0.177,0.0,0.0,0.0,0.0,0.0,0.0,0.0,0.0,0.0,0.0,0.0,0.0,0.0,0.0,0.0,0.0,0.0,-0.3587,-0.3587,-0.3587,-0.3587,-0.3587,-0.3587,-0.3587,-0.3587,-0.3587,-0.3587,-0.3587,-0.3587,-0.3587,-0.3587,-0.3587,-0.3587,-0.3587,-0.3587,-0.3587,-0.3587,-0.3587,-0.3587,-0.3587,-0.3587,-0.3587,-0.3587,-0.3587,-0.3587,0.0,0.0,0.0,0.0,0.0,0.0,-0.2756,-0.2809,-0.2842,-0.2697,-0.2577,-0.2495,-0.2495,-0.2495,-0.2495,0.0,0.0,0.0,0.0,0.0,0.0,0.0,0.0,0.0,0.0,0.0,0.0,0.0,0.0,0.0,0.0,0.0,0.0,0.0,0.0,0.0,0.0,0.0,0.0,0.0,0.0,0.0,0.0,0.0,0.0,0.0,0.0,0.0,0.0,0.0,0.0,-0.1997,-0.1929,-0.2124,-0.2365,-0.2433,0.0,0.0,-0.2872,-0.2971,-0.303,-0.2912,-0.2707,-0.2486,-0.2224,0.0,0.0,-0.1728,-0.171,-0.1707,-0.1713,-0.1768,-0.1869,0.0,0.0,-0.2297,0.0,0.0,0.0,0.0,0.0,0.0,0.0,0.0,0.0,0.0,0.0,0.0,-0.3587,-0.3587,-0.3587,-0.3587,-0.3587,-0.3587,-0.3587,-0.3587,-0.3587,-0.3587,-0.3587,-0.3587,-0.3587,-0.3587,-0.3587,-0.3587,-0.3587,-0.3587,0.0,-0.3587,-0.3587,-0.3587,-0.3587,-0.3587,-0.3587,-0.3587,-0.3587,-0.3587,0.0,0.0,0.0,0.0,0.0,0.0,-0.301,-0.308,-0.3056,-0.2842,-0.2697,-0.2599,-0.2517,-0.2495,-0.2495,-0.2495,0.0,0.0,0.0,0.0,0.0,0.0,0.0,0.0,0.0,0.0,0.0,0.0,0.0,0.0,0.0,0.0,0.0,0.0,0.0,0.0,0.0,0.0,0.0,0.0,0.0,0.0,0.0,0.0,0.0,0.0,0.0,0.0,0.0,0.0,0.0,0.0,-0.1863,-0.194,0.0,0.0,-0.2433,-0.2594,-0.2728,-0.2826,-0.2869,-0.2785,-0.2609,-0.2409,-0.223,0.0,-0.1736,-0.1711,-0.1677,-0.1662,-0.1699,-0.1756,-0.1831,-0.1936,-0.1946,0.0,0.0,0.0,0.0,0.0,0.0,0.0,0.0,0.0,0.0,0.0,0.0,0.0,-0.3587,-0.3587,-0.3587,-0.3587,-0.3587,-0.3587,-0.3587,-0.3587,-0.3587,-0.3587,-0.3587,-0.3587,-0.3587,-0.3587,-0.3587,-0.3587,-0.4033,-0.3921,0.0,-0.4033,-0.3921,-0.3587,-0.3587,-0.3587,-0.3587,-0.3587,-0.3587,-0.3587,0.0,0.0,0.0,0.0,0.0,-0.2996,-0.3097,-0.3299,-0.3353,-0.3056,-0.2864,-0.2697,-0.2577,-0.2512,-0.2495,-0.2495,-0.2495,0.0,0.0,0.0,0.0,0.0,0.0,0.0,0.0,0.0,0.0,0.0,-0.3288,0.0,0.0,0.0,0.0,0.0,0.0,0.0,0.0,0.0,0.0,0.0,0.0,0.0,0.0,0.0,0.0,0.0,0.0,0.0,0.0,0.0,0.0,0.0,0.0,0.0,0.0,0.0,-0.2247,-0.2399,-0.2546,-0.2643,-0.2688,-0.2627,-0.2476,-0.2304,0.0,0.0,-0.1684,-0.1703,-0.1658,-0.1634,-0.1695,-0.1756,-0.1811,-0.185,-0.1837,-0.1936,0.0,0.0,0.0,0.0,0.0,0.0,0.0,0.0,0.0,0.0,0.0,0.0,-0.3536,-0.3552,-0.3568,-0.3587,-0.3587,-0.3587,-0.3587,-0.3587,-0.3587,-0.3587,-0.3587,-0.3587,-0.3587,-0.3587,-0.3587,-0.3587,-0.4033,-0.4033,0.0,-0.4033,-0.4033,-0.3587,-0.3587,-0.3587,-0.3587,-0.3587,-0.3699,-0.381,0.0,0.0,0.0,0.0,0.0,-0.3053,-0.2922,-0.3406,-0.3668,-0.3332,-0.3056,-0.2842,-0.2719,-0.2577,-0.2495,-0.2495,-0.2495,0.0,0.0,0.0,0.0,0.0,0.0,0.0,0.0,0.0,-0.2901,-0.3087,-0.3288,-0.3494,0.0,0.0,0.0,0.0,0.0,0.0,0.0,0.0,0.0,0.0,0.0,0.0,-0.3939,0.0,0.0,0.0,0.0,0.0,0.0,0.0,0.0,0.0,0.0,-0.1526,-0.1574,0.0,-0.2056,-0.219,-0.2322,-0.2424,-0.2499,-0.2437,-0.2288,-0.2207,0.0,-0.1831,-0.1634,-0.1693,-0.1658,-0.1634,-0.1695,-0.1756,-0.1797,-0.1798,-0.1843,0.0,0.0,0.0,0.0,0.0,0.0,0.0,0.0,0.0,0.0,0.0,0.0,0.0,-0.3414,-0.3467,-0.3525,-0.3585,-0.3587,-0.3587,-0.3587,-0.3587,-0.3587,-0.3587,-0.3587,-0.3587,-0.3587,-0.3587,-0.3587,-0.3587,-0.3587,-0.3587,0.0,-0.3587,-0.3587,-0.3587,-0.3587,-0.3587,-0.3587,-0.3587,-0.3921,-0.448,0.0,0.0,0.0,0.0,0.0,0.0,-0.3015,-0.3311,-0.3534,-0.357,-0.3338,-0.3126,-0.2982,-0.2767,-0.2637,-0.2637,-0.2555,0.0,0.0,0.0,0.0,0.0,0.0,0.0,0.0,0.0,-0.2764,-0.3087,-0.3152,-0.3363,-0.3705,0.0,0.0,0.0,0.0,0.0,0.0,0.0,0.0,0.0,0.0,-0.3943,-0.3935,0.0,0.0,0.0,0.0,0.0,0.0,0.0,0.0,0.0,0.0,0.0,0.0,-0.1602,-0.1808,-0.201,-0.2071,-0.2174,-0.2252,-0.2191,-0.2102,-0.2088,-0.2005,-0.1801,-0.1632,-0.1693,-0.1658,-0.1634,-0.1695,-0.1756,-0.1824,-0.1903,-0.1932,-0.2014,0.0,0.0,0.0,0.0,0.0,0.0,0.0,0.0,0.0,0.0,0.0,0.0,-0.3413,-0.3429,-0.3466,-0.3523,-0.3565,-0.3587,-0.3587,-0.3587,-0.3587,-0.3587,-0.3587,-0.3587,-0.3587,-0.3587,-0.3587,-0.3587,-0.4033,-0.4033,-0.3587,-0.4033,-0.3921,-0.3587,-0.3587,-0.3587,-0.3699,-0.4033,-0.4033,-0.4027,0.0,0.0,0.0,0.0,0.0,0.0,-0.2873,-0.313,-0.3316,-0.3355,-0.3273,-0.3139,-0.2902,-0.2799,-0.2702,-0.2637,-0.2555,0.0,0.0,0.0,0.0,0.0,0.0,0.0,-0.2495,-0.2495,-0.2698,-0.3087,-0.3087,-0.3302,-0.3705,-0.3705,-0.3663,0.0,0.0,0.0,0.0,0.0,0.0,0.0,-0.3736,-0.3743,-0.3673,0.0,0.0,0.0,0.0,0.0,0.0,0.0,0.0,0.0,0.0,0.0,0.0,0.0,-0.1578,-0.1736,0.0,-0.1959,-0.2106,-0.2067,-0.195,-0.1906,-0.1906,-0.1737,-0.1598,-0.1659,-0.1642,-0.1634,-0.1695,-0.1756,-0.1822,-0.1894,-0.1924,0.0,0.0,0.0,0.0,0.0,0.0,0.0,0.0,0.0,0.0,0.0,0.0,0.0,-0.3343,-0.3365,-0.3394,-0.3429,-0.3489,-0.3522,-0.3522,-0.3522,-0.3642,-0.3884,-0.3642,-0.3654,-0.3921,-0.3674,-0.3565,-0.3587,-0.4033,-0.3921,0.0,-0.4257,-0.4129,-0.3553,-0.3997,-0.4092,-0.3848,-0.4287,-0.4287,-0.4281,0.0,0.0,0.0,0.0,0.0,0.0,0.0,-0.2857,-0.3015,-0.2843,-0.2989,-0.2968,-0.2584,-0.2707,-0.2729,-0.2538,-0.2517,0.0,0.0,0.0,0.0,0.0,0.0,0.0,-0.2495,-0.2495,-0.2698,-0.3087,-0.3087,-0.3302,-0.3705,-0.3672,-0.3561,-0.3386,-0.3386,0.0,0.0,0.0,0.0,0.0,-0.3419,-0.3361,0.0,0.0,0.0,0.0,0.0,0.0,0.0,0.0,0.0,0.0,0.0,0.0,0.0,0.0,0.0,0.0,0.0,-0.177,-0.1861,-0.1857,-0.182,-0.1785,-0.1785,-0.165,0.0,-0.1602,-0.1616,-0.1635,-0.17,-0.1759,-0.1801,-0.1813,-0.1864,0.0,0.0,0.0,0.0,0.0,0.0,0.0,0.0,0.0,0.0,0.0,0.0,0.0,-0.323,-0.3283,-0.3315,-0.3315,-0.3369,-0.3403,-0.3413,-0.3413,-0.3759,-0.4358,-0.3758,-0.3793,-0.4462,-0.3844,-0.363,0.0,-0.3687,-0.3687,-0.3797,-0.4354,-0.4202,-0.3707,-0.4689,-0.4753,-0.4154,-0.4154,-0.4578,-0.4896,0.0,0.0,0.0,0.0,0.0,0.0,0.0,0.0,0.0,0.0,-0.3158,-0.3153,-0.2913,-0.2931,-0.2869,0.0,0.0,0.0,0.0,0.0,0.0,0.0,0.0,0.0,-0.2495,-0.2495,-0.2698,-0.3087,-0.3087,-0.3302,-0.3705,-0.3475,-0.3338,-0.3246,-0.3151,-0.3127,0.0,0.0,0.0,0.0,-0.303,-0.2845,0.0,0.0,0.0,0.0,-0.1834,-0.1707,0.0,0.0,0.0,0.0,0.0,0.0,0.0,0.0,-0.1329,-0.1319,-0.1361,0.0,-0.1666,-0.162,-0.1634,-0.1658,0.0,-0.1589,-0.1542,0.0,0.0,-0.1649,-0.1756,-0.1788,-0.1842,-0.1978,-0.2114,0.0,0.0,0.0,0.0,0.0,0.0,0.0,0.0,0.0,0.0,0.0,0.0,-0.3632,-0.323,-0.3647,-0.3656,-0.3252,-0.3266,-0.3318,-0.3412,-0.3413,-0.3738,-0.4285,-0.4056,-0.4278,-0.4845,-0.4719,-0.4614,-0.4632,-0.4632,-0.4632,-0.4632,-0.4847,-0.4836,-0.4603,-0.45,-0.4383,-0.4154,-0.4261,-0.4048,-0.3936,0.0,0.0,0.0,0.0,0.0,0.0,0.0,0.0,0.0,0.0,-0.2766,-0.2814,-0.2659,-0.2779,-0.2796,0.0,0.0,0.0,0.0,0.0,0.0,0.0,0.0,-0.2495,-0.2495,-0.2495,-0.2627,-0.2927,-0.2927,-0.3064,-0.3335,-0.3171,-0.3034,-0.2872,-0.2729,-0.269,0.0,0.0,0.0,-0.2489,-0.2541,0.0,0.0,0.0,0.0,0.0,-0.1513,-0.1443,0.0,-0.1254,-0.1139,-0.1123,0.0,0.0,0.0,0.0,-0.1232,-0.1262,-0.1253,-0.1414,-0.1572,-0.1567,-0.1591,-0.1616,-0.1616,0.0,0.0,0.0,0.0,0.0,-0.1702,0.0,0.0,0.0,0.0,0.0,0.0,0.0,0.0,0.0,0.0,0.0,0.0,0.0,0.0,0.0,0.0,-0.3833,-0.3632,-0.4033,-0.4234,-0.3932,-0.3732,-0.3465,-0.3328,-0.333,-0.3759,-0.4521,-0.4276,-0.4609,-0.5424,-0.5063,-0.4962,-0.5,-0.5,-0.5,-0.5002,-0.532,-0.5187,-0.494,-0.5254,-0.5122,-0.488,-0.488,-0.4673,-0.446,0.0,0.0,0.0,0.0,0.0,0.0,0.0,0.0,0.0,0.0,0.0,0.0,0.0,0.0,0.0,0.0,0.0,0.0,0.0,0.0,0.0,0.0,-0.2446,-0.2446,-0.2446,-0.2425,-0.2496,-0.2635,-0.2664,-0.2755,-0.2899,-0.2856,-0.2699,-0.2417,-0.2273,-0.2212,0.0,0.0,0.0,-0.201,-0.2046,0.0,0.0,0.0,0.0,0.0,0.0,0.0,0.0,-0.1195,-0.1103,-0.111,-0.111,0.0,0.0,0.0,0.0,0.0,-0.1225,-0.1349,-0.1476,-0.1575,-0.1601,-0.1616,-0.1616,0.0,0.0,0.0,0.0,0.0,0.0,0.0,0.0,0.0,0.0,0.0,0.0,0.0,0.0,0.0,0.0,0.0,0.0,0.0,0.0,0.0,0.0,-0.4234,-0.4133,-0.4634,-0.4935,-0.4834,-0.4334,-0.3932,-0.343,-0.3331,-0.3762,-0.4848,-0.4367,-0.4712,-0.5798,-0.5399,-0.5199,-0.517,0.0,0.0,-0.5275,-0.58,-0.5645,-0.5257,-0.608,-0.6121,-0.5634,-0.5534,-0.5436,-0.5434,0.0,0.0,0.0,0.0,0.0,0.0,0.0,0.0,0.0,0.0,0.0,0.0,0.0,0.0,0.0,0.0,0.0,0.0,0.0,0.0,0.0,-0.2263,-0.2241,-0.2241,-0.2241,-0.214,-0.2169,-0.2365,-0.2462,-0.2639,-0.2804,-0.2651,-0.2361,-0.1977,-0.1864,-0.1834,-0.187,-0.1876,-0.1726,-0.1497,0.0,0.0,0.0,0.0,0.0,0.0,0.0,0.0,0.0,-0.1031,-0.1066,-0.111,-0.111,0.0,0.0,0.0,0.0,0.0,-0.1235,-0.1337,-0.1404,-0.1414,-0.154,-0.1616,-0.1616,0.0,0.0,0.0,0.0,0.0,0.0,0.0,0.0,0.0,0.0,0.0,0.0,0.0,0.0,0.0,0.0,0.0,0.0,0.0,0.0,0.0,0.0,-0.5135,-0.4734,-0.5236,-0.5236,-0.4834,-0.4734,-0.4634,-0.4533,-0.3632,-0.3537,-0.4151,-0.4541,-0.505,-0.5684,-0.5969,-0.6171,-0.6189,0.0,-0.6189,-0.6189,-0.629,-0.6279,-0.6163,-0.5861,-0.5651,-0.5536,-0.5135,-0.4935,-0.4935,0.0,0.0,0.0,0.0,0.0,0.0,0.0,0.0,0.0,0.0,0.0,0.0,0.0,0.0,0.0,0.0,0.0,0.0,0.0,0.0,-0.2403,-0.2215,-0.2132,-0.2092,-0.2092,-0.2073,-0.2103,-0.2183,-0.2279,-0.2372,-0.2418,-0.2144,-0.1927,-0.1728,-0.1494,-0.1433,-0.1521,-0.1369,-0.1274,-0.1238,0.0,0.0,0.0,0.0,0.0,0.0,0.0,0.0,0.0,0.0,-0.1005,-0.1066,-0.11,0.0,0.0,0.0,0.0,0.0,-0.1177,-0.1249,-0.1349,-0.1381,-0.1549,-0.1673,-0.1706,0.0,0.0,0.0,0.0,0.0,0.0,0.0,0.0,0.0,0.0,0.0,0.0,0.0,0.0,0.0,0.0,0.0,0.0,0.0,0.0,0.0,0.0,0.0,-0.5233,-0.5734,-0.5937,-0.5634,-0.5336,-0.5236,-0.5236,-0.4433,-0.4334,-0.4834,-0.4834,-0.5033,-0.5636,-0.5837,-0.5934,-0.5934,0.0,-0.6437,-0.6437,-0.6437,-0.6437,-0.6337,-0.6134,-0.6037,-0.6037,-0.5734,-0.5634,-0.5634,0.0,0.0,0.0,0.0,0.0,0.0,0.0,0.0,0.0,0.0,0.0,0.0,0.0,0.0,0.0,0.0,0.0,0.0,0.0,-0.2466,-0.2403,-0.2154,-0.2048,-0.1983,-0.1975,-0.1978,-0.2008,-0.2038,-0.2118,-0.2111,-0.2069,-0.1745,-0.1587,-0.1528,-0.124,-0.1138,-0.1185,-0.0962,-0.0938,-0.1033,0.0,0.0,0.0,0.0,0.0,0.0,0.0,0.0,0.0,0.0,0.0,0.0,0.0,0.0,0.0,-0.111,-0.111,-0.1117,-0.1146,-0.1229,-0.1319,-0.1391,-0.1582,-0.1729,-0.1817,0.0,0.0,0.0,0.0,0.0,0.0,0.0,0.0,0.0,0.0,0.0,0.0,0.0,0.0,0.0,0.0,0.0,0.0,0.0,0.0,0.0,0.0,0.0,-0.5837,-0.6137,-0.6437,-0.6437,-0.6037,-0.5837,-0.5837,-0.5336,-0.5233,-0.5434,-0.5135,-0.5236,-0.5636,-0.5734,-0.5837,-0.5834,-0.6237,-0.6437,-0.6437,-0.6437,-0.6437,-0.6437,-0.6437,-0.6437,-0.6437,-0.6437,-0.6437,-0.6437,0.0,0.0,0.0,0.0,0.0,0.0,0.0,0.0,0.0,0.0,0.0,0.0,0.0,0.0,0.0,0.0,0.0,0.0,0.0,-0.2402,-0.2364,-0.203,-0.2008,-0.1966,-0.1914,-0.1734,-0.1698,-0.1814,-0.1938,-0.2004,-0.201,-0.1739,-0.1492,-0.132,-0.1155,-0.1032,-0.0914,-0.0785,-0.0785,-0.0894,-0.0769,0.0,0.0,0.0,0.0,0.0,0.0,0.0,0.0,0.0,0.0,0.0,0.0,0.0,-0.111,-0.111,-0.111,-0.1135,-0.1253,-0.1293,-0.1328,-0.1443,-0.1613,0.0,-0.1921,-0.1956,0.0,-0.2164,0.0,0.0,0.0,0.0,0.0,0.0,0.0,0.0,0.0,0.0,0.0,0.0,0.0,0.0,0.0,0.0,0.0,0.0,0.0,0.0,-0.6337,-0.6337,-0.6437,-0.6437,-0.6334,-0.6337,-0.6337,-0.6337,-0.5834,-0.4834,-0.5334,-0.5534,-0.5636,-0.6137,-0.6337,-0.6337,-0.6337,-0.6437,-0.6437,-0.6437,-0.6437,-0.6437,-0.6437,-0.6437,-0.6437,-0.6437,-0.6437,-0.6437,0.0,0.0,0.0,0.0,0.0,0.0,0.0,0.0,0.0,0.0,0.0,0.0,0.0,0.0,0.0,0.0,0.0,0.0,0.0,-0.2201,-0.2154,-0.1828,-0.1803,-0.1786,-0.1709,-0.1711,-0.1707,-0.168,-0.1797,-0.1883,-0.188,-0.1546,-0.1372,-0.1282,-0.1076,-0.0942,-0.0892,-0.0851,-0.0849,-0.0894,-0.0763,-0.0698,0.0,0.0,0.0,0.0,0.0,0.0,0.0,0.0,-0.0879,-0.0933,-0.0956,-0.1048,-0.1103,-0.1064,-0.108,-0.1121,-0.1169,-0.127,-0.1366,-0.1411,-0.1617,0.0,0.0,-0.2001,-0.2063,-0.2185,0.0,0.0,0.0,0.0,0.0,0.0,0.0,0.0,0.0,0.0,0.0,0.0,0.0,0.0,0.0,0.0,0.0,0.0,0.0,0.0,-0.6328,-0.626,-0.6285,-0.6431,-0.6369,-0.6366,-0.6437,-0.6437,-0.6237,-0.5837,-0.5634,-0.5636,-0.5636,-0.5834,-0.5934,-0.5937,-0.6237,-0.6437,-0.6437,-0.6437,-0.6437,-0.6442,-0.6521,-0.6505,-0.6445,-0.6521,-0.6502,-0.6437,0.0,0.0,0.0,0.0,0.0,0.0,0.0,0.0,0.0,0.0,0.0,0.0,0.0,0.0,0.0,0.0,0.0,0.0,-0.1815,-0.1969,-0.1965,-0.1711,-0.1689,-0.165,-0.1533,-0.1672,-0.1712,-0.1669,-0.1712,-0.1705,-0.1675,-0.1384,-0.1238,-0.1236,-0.0963,-0.0849,-0.0892,-0.0849,-0.0828,-0.0828,-0.0742,-0.0698,0.0,0.0,0.0,0.0,0.0,0.0,0.0,0.0,-0.0832,-0.0873,-0.0911,-0.0981,-0.1076,-0.1052,-0.1092,-0.1141,-0.1141,-0.1266,-0.1394,-0.1412,0.0,0.0,-0.1993,-0.2126,-0.2142,-0.232,0.0,0.0,0.0,0.0,0.0,0.0,0.0,0.0,0.0,0.0,0.0,0.0,0.0,0.0,0.0,0.0,0.0,0.0,0.0,0.0,0.0,-0.613,-0.6159,-0.632,-0.6252,-0.6246,-0.6325,-0.6325,-0.6325,-0.6325,-0.5968,-0.5805,-0.5837,-0.5837,-0.5837,-0.5837,-0.6237,-0.6437,-0.6437,-0.6437,-0.6437,-0.6448,-0.657,-0.6567,-0.6505,-0.6589,-0.6564,-0.6488,0.0,0.0,0.0,0.0,0.0,0.0,0.0,0.0,0.0,0.0,0.0,0.0,0.0,0.0,0.0,0.0,0.0,0.0,-0.158,-0.173,-0.1765,-0.1705,-0.1689,-0.1604,-0.141,-0.1528,-0.1669,-0.1811,-0.1669,-0.1537,-0.1384,-0.1184,-0.1094,-0.1094,-0.0832,-0.0785,-0.0892,-0.0763,-0.0698,-0.0698,-0.0698,-0.0698,-0.0698,0.0,0.0,0.0,0.0,0.0,0.0,0.0,-0.0804,-0.0826,-0.0946,-0.0985,-0.0999,-0.1092,-0.1155,-0.1204,-0.1204,-0.1298,-0.1403,0.0,0.0,0.0,-0.2166,-0.2221,-0.231,-0.254,0.0,0.0,0.0,0.0,0.0,0.0,0.0,0.0,0.0,0.0,0.0,0.0,0.0,0.0,0.0,0.0,0.0,0.0,0.0,0.0,-0.6083,-0.6083,-0.6083,-0.6086,-0.6083,-0.6083,-0.6086,-0.6086,-0.6086,-0.6086,-0.6208,-0.6325,-0.6434,-0.6437,-0.6437,-0.6437,-0.6437,-0.6437,-0.6437,-0.6437,-0.6437,-0.6448,-0.657,-0.6619,-0.6619,-0.6619,-0.6619,-0.66,0.0,0.0,0.0,0.0,0.0,0.0,0.0,0.0,0.0,0.0,0.0,0.0,0.0,0.0,0.0,0.0,0.0,0.0,-0.1185,-0.1435,-0.1545,-0.1423,-0.1472,-0.1455,-0.141,-0.1445,-0.1523,-0.1666,-0.1523,-0.1418,-0.1323,-0.1176,-0.1094,-0.1094,-0.0916,-0.0871,-0.0892,-0.0849,-0.0785,-0.0698,-0.0698,-0.0698,-0.0698,0.0,0.0,0.0,0.0,0.0,0.0,0.0,0.0,0.0,-0.0847,-0.0946,-0.1078,-0.1052,-0.1121,-0.1204,-0.1204,-0.133,0.0,0.0,0.0,0.0,0.0,-0.2217,0.0,0.0,0.0,0.0,0.0,0.0,0.0,0.0,0.0,0.0,0.0,0.0,0.0,0.0,0.0,0.0,0.0,0.0,0.0,0.0,0.0,0.0,-0.5958,-0.5882,-0.5915,-0.6081,-0.6002,-0.5999,-0.6083,-0.6086,-0.6086,-0.6086,-0.6121,-0.6203,-0.6323,-0.6399,-0.6437,-0.6437,-0.6437,-0.6437,-0.6437,-0.6437,-0.6437,-0.6448,-0.657,-0.6567,-0.6502,-0.6586,-0.6564,-0.6486,0.0,0.0,0.0,0.0,0.0,0.0,0.0,0.0,0.0,0.0,0.0,-0.1188,0.0,0.0,0.0,0.0,0.0,0.0,0.0,-0.122,-0.1332,-0.1309,-0.1367,-0.141,-0.141,-0.141,-0.1448,-0.152,-0.1448,-0.1343,-0.123,-0.1139,-0.1072,-0.1005,-0.0873,-0.0849,-0.0892,-0.0851,-0.0785,-0.0698,-0.0698,-0.0698,-0.0698,0.0,0.0,0.0,0.0,0.0,0.0,0.0,0.0,0.0,-0.0797,-0.088,-0.0975,-0.1044,-0.1125,-0.1221,-0.1253,0.0,0.0,0.0,0.0,0.0,0.0,0.0,0.0,0.0,0.0,0.0,0.0,0.0,0.0,0.0,0.0,0.0,0.0,0.0,0.0,0.0,0.0,0.0,0.0,0.0,0.0,0.0,0.0,-0.5975,-0.5975,-0.5863,-0.5866,-0.6007,-0.5896,-0.5871,-0.5945,-0.5947,-0.5947,-0.5947,-0.5991,-0.6051,-0.6127,-0.6244,-0.6298,-0.6301,-0.6347,-0.6369,-0.6374,-0.6418,-0.6437,-0.6448,-0.657,-0.6575,-0.6518,-0.6592,-0.6774,-0.6905,0.0,0.0,-0.1677,-0.1598,0.0,0.0,0.0,0.0,0.0,-0.1199,-0.1199,-0.1177,0.0,0.0,0.0,-0.1005,-0.087,-0.0844,0.0,-0.1057,-0.1155,-0.127,-0.1362,-0.141,-0.141,-0.141,-0.141,-0.141,-0.1388,-0.1296,-0.1116,-0.1116,-0.1027,-0.0914,-0.0785,-0.0785,-0.0892,-0.0763,-0.0698,-0.0698,-0.0698,-0.0698,-0.0698,-0.0698,0.0,0.0,0.0,0.0,0.0,0.0,0.0,0.0,-0.0786,-0.0808,-0.0846,-0.1049,-0.1151,-0.1243,-0.1336,0.0,0.0,0.0,0.0,0.0,0.0,0.0,0.0,0.0,0.0,0.0,0.0,0.0,0.0,0.0,0.0,0.0,0.0,0.0,0.0,0.0,0.0,0.0,0.0,0.0,0.0,0.0,0.0,-0.6097,-0.6086,-0.598,-0.5915,-0.5904,-0.5803,-0.5744,-0.5733,-0.5733,-0.5733,-0.5735,-0.5839,-0.5888,-0.589,-0.6026,-0.6086,-0.6092,-0.6203,-0.6252,-0.626,-0.6363,-0.6404,-0.6415,-0.6526,-0.657,-0.6573,-0.6584,-0.6995,-0.769,0.0,0.0,-0.1598,-0.1534,0.0,0.0,0.0,0.0,-0.1199,-0.1199,-0.1199,-0.1199,-0.1177,-0.1086,0.0,-0.1005,-0.0826,-0.074,-0.0765,-0.0981,-0.1115,-0.1141,-0.1316,-0.141,-0.141,-0.141,-0.141,-0.141,-0.1343,-0.1296,-0.1252,-0.1141,-0.1094,-0.105,-0.0916,-0.0871,-0.0892,-0.0763,-0.0698,-0.0698,-0.0698,-0.0698,-0.0698,-0.0698,-0.0698,0.0,0.0,0.0,0.0,0.0,0.0,0.0,-0.0786,-0.0837,-0.0892,-0.098,-0.1117,-0.1234,-0.1286,-0.144,0.0,0.0,0.0,0.0,0.0,0.0,0.0,0.0,0.0,0.0,0.0,0.0,0.0,0.0,0.0,0.0,0.0,0.0,0.0,0.0,0.0,0.0,0.0,0.0,0.0,0.0,-0.6173,-0.6187,-0.6092,-0.6062,-0.6002,-0.5907,-0.588,-0.5822,-0.5735,-0.5733,-0.5733,-0.5733,-0.576,-0.5771,-0.5776,-0.5988,-0.6086,-0.6086,-0.6113,-0.6124,-0.6127,-0.6151,-0.6162,-0.6165,-0.6189,-0.62,-0.6211,-0.6309,-0.6443,-0.6747,0.0,0.0,0.0,0.0,0.0,0.0,0.0,0.0,-0.1199,-0.1199,-0.1199,-0.1188,-0.1156,-0.1064,0.0,0.0,-0.0781,-0.0706,-0.0706,-0.0952,-0.1137,-0.1237,-0.1343,-0.141,-0.141,-0.141,-0.141,-0.141,-0.1343,-0.1296,-0.1299,-0.1258,-0.1184,-0.1043,-0.1017,-0.0946,-0.085,-0.0753,-0.0698,-0.0698,-0.0698,-0.0698,-0.0698,-0.0698,-0.0698,-0.0698,-0.0698,0.0,0.0,0.0,0.0,0.0,0.0,0.0,-0.0834,-0.0952,-0.1085,-0.1205,0.0,0.0,0.0,0.0,0.0,0.0,0.0,0.0,0.0,0.0,0.0,0.0,0.0,0.0,0.0,0.0,0.0,0.0,0.0,0.0,0.0,0.0,0.0,0.0,0.0,0.0,0.0,0.0,-0.6146,-0.6154,-0.6089,-0.6086,-0.6056,-0.5994,-0.5991,-0.5961,-0.5901,-0.5844,-0.5814,-0.5814,-0.576,-0.5733,-0.5738,-0.586,-0.5918,-0.592,-0.5975,-0.5999,-0.6002,-0.6062,-0.6086,-0.6086,-0.6086,-0.6086,-0.6094,-0.6157,-0.6658,-0.7337,0.0,0.0,0.0,0.0,0.0,0.0,0.0,0.0,0.0,-0.1199,-0.1199,-0.1177,-0.1108,-0.1038,-0.0944,0.0,0.0,0.0,-0.0706,-0.0952,-0.1195,-0.14,-0.141,-0.141,-0.141,-0.141,-0.141,-0.141,-0.1343,-0.1331,-0.1351,-0.1395,-0.1275,-0.1061,-0.1101,-0.1024,-0.0809,-0.074,-0.0698,-0.0698,-0.0698,-0.0698,-0.0698,-0.0698,-0.0698,-0.0698,-0.0698,-0.0698,-0.0698,-0.0698,0.0,0.0,0.0,0.0,-0.0727,-0.0909,-0.1037,-0.1117,0.0,0.0,0.0,0.0,0.0,0.0,0.0,0.0,0.0,0.0,0.0,0.0,0.0,0.0,0.0,0.0,0.0,0.0,0.0,0.0,0.0,0.0,0.0,0.0,0.0,0.0,0.0,0.0,-0.6072,-0.6086,-0.6086,-0.6086,-0.6075,-0.6053,-0.6053,-0.6045,-0.6026,-0.5923,-0.5965,-0.6051,-0.5975,-0.5939,-0.5941,-0.5784,-0.5771,-0.5738,-0.5833,-0.5874,-0.5882,-0.5983,-0.6026,-0.6026,-0.6026,-0.6026,-0.6029,-0.6045,-0.6801,-0.7927,0.0,0.0,0.0,0.0,0.0,0.0,0.0,0.0,0.0,0.0,-0.1199,-0.1177,-0.1108,-0.1038,-0.0944,-0.0807,-0.074,-0.0706,-0.0706,0.0,0.0,-0.14,-0.141,-0.141,-0.141,-0.141,-0.141,-0.141,-0.1388,-0.1441,-0.1568,-0.1457,-0.134,-0.1255,-0.1271,-0.114,-0.0885,-0.0745,-0.0698,-0.0698,-0.0698,-0.0698,-0.0698,-0.0698,-0.0698,-0.0698,-0.0698,-0.0698,-0.0698,-0.0698,-0.0698,0.0,0.0,0.0,0.0,-0.0807,-0.0909,-0.1018,0.0,0.0,0.0,0.0,0.0,0.0,0.0,0.0,0.0,0.0,0.0,0.0,0.0,0.0,0.0,0.0,0.0,0.0,0.0,0.0,0.0,0.0,0.0,0.0,0.0,0.0,0.0,0.0,-0.6026,-0.6086,-0.6086,-0.6086,-0.6037,-0.5931,-0.5926,-0.588,-0.5782,-0.5765,-0.6017,-0.6719,-0.6737,-0.6788,-0.6791,-0.6267,-0.5926,-0.5735,-0.5749,-0.5757,-0.5757,-0.5773,-0.5779,-0.5779,-0.5779,-0.5779,-0.5793,-0.589,-0.6018,-0.64,0.0,0.0,0.0,0.0,0.0,0.0,0.0,0.0,0.0,0.0,0.0,-0.1118,-0.1053,-0.0954,-0.0859,-0.0807,-0.074,-0.0733,-0.0803,-0.0916,0.0,-0.1342,-0.1353,-0.1365,-0.141,-0.141,-0.141,-0.141,-0.141,-0.1472,-0.1592,-0.1628,-0.1582,-0.1514,-0.1397,-0.1264,-0.1118,-0.0818,-0.0742,-0.0806,-0.0742,-0.0831,-0.1015,-0.0792,-0.0833,-0.1013,-0.079,-0.0698,-0.0698,-0.0698,-0.0698,-0.0698,-0.0698,0.0,0.0,0.0,0.0,0.0,0.0,0.0,0.0,0.0,0.0,0.0,0.0,0.0,0.0,0.0,0.0,0.0,0.0,0.0,0.0,0.0,0.0,0.0,0.0,0.0,0.0,0.0,0.0,0.0,0.0,0.0,0.0,0.0,-0.5654,-0.5684,-0.5684,-0.5749,-0.5763,-0.5706,-0.6126,-0.632,-0.6263,-0.6615,-0.6962,-0.7394,-0.7375,-0.741,-0.7413,-0.7299,-0.6933,-0.6457,-0.6457,-0.6728,-0.7082,-0.6907,-0.6923,-0.7082,-0.6551,-0.6343,-0.6263,-0.5877,-0.6251,-0.7062,0.0,0.0,0.0,0.0,0.0,0.0,0.0,0.0,0.0,0.0,0.0,-0.1075,-0.0965,0.0,0.0,0.0,-0.0729,-0.0757,-0.0892,0.0,0.0,0.0,-0.1292,-0.1328,-0.1408,-0.141,-0.141,-0.141,-0.141,-0.1488,-0.1661,-0.1745,-0.1807,-0.1785,-0.1593,-0.1438,-0.1303,-0.1,-0.0903,-0.0993,-0.0899,-0.1047,-0.1307,-0.1066,-0.1162,-0.139,-0.1009,-0.0885,0.0,0.0,0.0,0.0,0.0,0.0,0.0,0.0,0.0,0.0,0.0,0.0,0.0,0.0,0.0,0.0,0.0,0.0,0.0,0.0,0.0,0.0,0.0,0.0,0.0,0.0,0.0,0.0,0.0,0.0,0.0,0.0,0.0,0.0,0.0,0.0,0.0,0.0,-0.5368,-0.5368,-0.5368,-0.5455,-0.5502,-0.5672,-0.6279,-0.6679,-0.6853,-0.7548,-0.791,-0.8036,-0.8078,-0.812,-0.817,-0.8166,-0.7945,-0.7542,-0.7397,-0.7689,-0.8231,-0.8099,-0.8125,-0.8223,-0.7248,-0.7012,-0.7098,-0.6269,-0.6782,-0.7834,0.0,0.0,0.0,0.0,0.0,0.0,0.0,0.0,0.0,0.0,0.0,-0.1101,-0.084,-0.0807,-0.0773,-0.0706,-0.0706,-0.0757,-0.0892,0.0,0.0,0.0,0.0,0.0,-0.1408,-0.141,-0.141,-0.141,-0.141,-0.1528,-0.1778,-0.1811,-0.1914,-0.2068,-0.1853,-0.1633,-0.1393,-0.1307,-0.1277,-0.1284,-0.1352,-0.1365,-0.142,-0.1649,-0.1753,-0.1737,-0.1454,0.0,0.0,0.0,0.0,0.0,0.0,0.0,0.0,0.0,0.0,0.0,0.0,0.0,0.0,0.0,0.0,0.0,0.0,0.0,0.0,0.0,0.0,0.0,0.0,0.0,0.0,0.0,0.0,0.0,0.0,0.0,0.0,0.0,0.0,0.0,0.0,0.0,0.0,0.0,-0.5368,-0.5368,-0.5368,-0.5374,-0.5627,-0.6204,-0.6293,-0.6625,-0.7202,-0.7867,-0.8371,-0.8551,-0.8645,-0.8819,-0.8984,-0.8432,-0.8513,-0.9001,-0.8617,-0.8408,-0.8497,-0.8489,-0.8493,-0.8393,-0.7407,-0.7531,-0.8057,-0.7098,-0.7217,-0.7921,0.0,0.0,0.0,0.0,0.0,0.0,0.0,0.0,0.0,0.0,0.0,0.0,0.0,-0.0762,-0.0729,-0.0706,-0.0706,0.0,0.0,0.0,0.0,0.0,0.0,0.0,-0.1333,-0.137,-0.141,-0.141,-0.141,-0.1493,-0.1677,-0.1677,-0.1723,-0.178,-0.1697,-0.1705,-0.177,-0.1345,-0.1227,-0.1295,-0.1363,-0.1501,-0.1681,-0.1751,-0.1926,-0.2086,0.0,0.0,0.0,0.0,0.0,0.0,-0.1061,-0.1004,-0.0962,-0.1005,0.0,0.0,0.0,0.0,0.0,0.0,0.0,0.0,0.0,0.0,0.0,0.0,0.0,0.0,0.0,0.0,0.0,0.0,0.0,0.0,0.0,0.0,0.0,0.0,0.0,0.0,0.0,0.0,0.0,0.0,-0.5143,-0.5143,-0.5143,-0.5143,-0.5459,-0.601,-0.6482,-0.7247,-0.8319,-0.8649,-0.8828,-0.9022,-0.9095,-0.9167,-0.9244,-0.931,-0.9509,-0.9725,-0.9779,-0.9754,-0.9644,-0.9644,-0.9714,-0.9722,-0.891,-0.873,-0.8729,-0.8135,-0.8265,-0.8731,0.0,0.0,0.0,-0.1545,0.0,-0.1421,-0.1313,-0.1247,-0.1134,-0.0954,0.0,0.0,0.0,0.0,-0.0872,-0.0807,-0.0777,-0.0749,-0.0709,-0.0706,0.0,0.0,0.0,0.0,-0.1289,-0.1353,-0.137,-0.141,-0.137,-0.1457,-0.159,-0.159,-0.1636,-0.1674,-0.1611,-0.1695,0.0,0.0,0.0,-0.1478,0.0,-0.1809,-0.1979,-0.2122,-0.2291,0.0,0.0,0.0,0.0,0.0,0.0,0.0,0.0,-0.122,-0.1163,-0.1163,-0.128,0.0,0.0,0.0,0.0,0.0,0.0,0.0,0.0,0.0,0.0,0.0,0.0,0.0,0.0,0.0,0.0,0.0,0.0,0.0,0.0,0.0,0.0,0.0,0.0,0.0,0.0,0.0,0.0,0.0,-0.5018,0.0,-0.5326,-0.5323,-0.5709,-0.6475,-0.7169,-0.7923,-0.8916,-0.8916,-0.902,-0.9223,-0.9223,-0.9256,-0.9332,-0.9611,-0.9738,-0.9762,-1.0112,-1.0305,-1.0371,-1.0371,-1.0494,-1.058,-0.9846,-0.9599,-0.9653,-0.9051,-0.9187,-0.9653,-0.1609,-0.1604,-0.1604,-0.1616,-0.1497,-0.1389,-0.1333,-0.1255,-0.1118,-0.0853,0.0,0.0,0.0,0.0,0.0,-0.103,-0.0944,-0.0848,-0.0717,-0.0706,0.0,0.0,0.0,0.0,-0.1289,-0.1295,-0.1336,-0.141,-0.1336,-0.14,-0.1584,-0.1584,-0.1669,-0.177,-0.1661,-0.1584,-0.1592,0.0,-0.178,-0.1818,0.0,-0.2288,-0.2336,0.0,0.0,0.0,-0.2601,-0.2514,0.0,-0.2213,0.0,0.0,0.0,-0.1484,-0.1309,-0.1306,-0.1459,0.0,0.0,0.0,0.0,0.0,0.0,0.0,0.0,0.0,0.0,0.0,0.0,0.0,0.0,0.0,0.0,0.0,0.0,0.0,0.0,0.0,0.0,0.0,0.0,0.0,0.0,0.0,0.0,-0.5004,-0.5004,-0.5315,-0.5851,-0.5931,-0.6546,-0.7774,-0.8394,-0.8703,-0.8703,-0.8703,-0.8807,-0.9015,-0.9015,-0.9115,-0.9304,-0.9313,-0.9313,-0.9327,-0.954,-0.9984,-1.0546,-1.056,-1.0688,-1.0763,-0.9894,-1.0126,-1.0758,-0.9899,-1.0014,-1.0575,-0.1609,-0.1604,-0.1665,-0.1853,-0.1694,-0.1609,-0.178,-0.1582,-0.1372,0.0,0.0,0.0,-0.1152,-0.115,-0.1156,-0.1139,-0.0993,-0.0886,-0.0851,-0.0755,-0.076,-0.0894,-0.1024,-0.116,-0.1289,-0.1337,-0.1378,-0.141,-0.1378,-0.1397,-0.1461,-0.1461,-0.1477,-0.1504,-0.1474,-0.1461,-0.1461,-0.1493,0.0,0.0,-0.1962,-0.2104,0.0,0.0,0.0,0.0,0.0,-0.2841,-0.2799,0.0,-0.2528,-0.2267,0.0,0.0,-0.1536,-0.1636,-0.1775,-0.1851,-0.1707,0.0,0.0,0.0,0.0,0.0,0.0,0.0,0.0,0.0,0.0,0.0,0.0,0.0,0.0,0.0,0.0,0.0,0.0,0.0,0.0,0.0,0.0,0.0,0.0,0.0,0.0,0.0,-0.5848,-0.5925,-0.6141,-0.6697,-0.7214,-0.7588,-0.8321,-0.8703,-0.8703,-0.8703,-0.8732,-0.8789,-0.8789,-0.8822,-0.8878,-0.9034,-0.9105,-0.9119,-0.9322,-0.9601,-0.9927,-1.023,-1.039,-1.0452,-1.0352,-1.0334,-1.0475,-1.0524,-1.0515,-1.0617,-0.1933,-0.1932,-0.1981,-0.2133,-0.1989,-0.186,-0.1917,-0.1703,-0.1505,0.0,0.0,0.0,-0.14,-0.1315,-0.1276,-0.1278,-0.1152,-0.1041,-0.0988,-0.0859,-0.0845,-0.098,-0.1065,-0.116,-0.1289,-0.1342,-0.1381,-0.141,-0.1381,-0.1384,-0.141,-0.141,-0.141,-0.141,-0.141,-0.141,-0.141,-0.141,0.0,0.0,-0.1999,0.0,0.0,-0.2669,-0.2849,0.0,0.0,0.0,-0.2949,-0.2998,-0.2819,0.0,0.0,-0.1936,-0.1802,-0.1816,-0.1908,0.0,0.0,0.0,0.0,0.0,0.0,0.0,0.0,-0.2865,0.0,0.0,0.0,0.0,0.0,0.0,0.0,0.0,0.0,0.0,0.0,0.0,0.0,0.0,0.0,0.0,0.0,-0.6332,-0.6226,-0.6226,-0.6226,-0.6297,-0.6583,-0.733,-0.7757,-0.7757,-0.8319,-0.8576,-0.8576,-0.8661,-0.8703,-0.8703,-0.8703,-0.8703,-0.8708,-0.8831,-0.8888,-0.8902,-0.911,-0.9271,-0.9412,-0.9743,-1.0036,-1.0286,-1.0405,-1.0428,-1.0428,-1.0674,-1.0683,-1.0608,0.0,-0.2404,-0.2416,-0.243,-0.2312,-0.2125,-0.1916,-0.1725,-0.1555,0.0,-0.1394,-0.1496,-0.1676,-0.1563,-0.1478,-0.1422,-0.134,-0.126,-0.1146,-0.1012,-0.0985,-0.1118,-0.1124,-0.1183,-0.1309,-0.1312,-0.1344,-0.141,-0.1344,-0.1347,-0.141,-0.141,-0.141,-0.141,-0.141,-0.141,-0.1413,-0.1424,-0.159,-0.1835,-0.2161,-0.2376,0.0,0.0,-0.2901,-0.2932,-0.2973,-0.3019,-0.3037,-0.3199,-0.3009,0.0,0.0,-0.2186,-0.213,-0.1933,-0.2017,0.0,-0.2058,-0.2196,0.0,0.0,0.0,0.0,-0.2853,-0.2822,-0.2759,0.0,0.0,0.0,0.0,0.0,0.0,0.0,0.0,0.0,0.0,0.0,0.0,0.0,0.0,0.0,-0.6963,-0.6553,-0.6294,-0.6313,-0.6313,-0.66,-0.7236,-0.7751,-0.8047,-0.8047,-0.8255,-0.8368,-0.8368,-0.8543,-0.8633,-0.8633,-0.8656,-0.867,-0.867,-0.8689,-0.8703,-0.8713,-0.8907,-0.9001,-0.9039,-0.9219,-0.9653,-1.0201,-1.0201,-1.0324,-1.0508,-1.0532,-1.0542,-1.0542,-0.2414,-0.2404,-0.2461,-0.2692,-0.2388,-0.2169,-0.2344,-0.203,-0.1755,-0.1717,-0.1619,-0.1604,-0.1689,-0.1541,-0.1469,-0.1555,-0.1391,-0.1319,-0.1334,-0.1223,-0.1175,-0.1247,-0.1253,-0.1292,-0.1373,-0.1375,-0.1386,-0.141,-0.1386,-0.1386,-0.141,-0.141,-0.141,-0.141,-0.141,-0.141,-0.1418,-0.1515,0.0,-0.1968,-0.2043,0.0,-0.2517,-0.2664,-0.2824,-0.294,-0.311,-0.3186,-0.3205,-0.3324,-0.3194,-0.2903,0.0,0.0,-0.255,-0.2406,-0.2397,-0.2427,-0.2403,-0.2503,-0.2599,-0.2523,0.0,0.0,-0.2631,-0.2571,-0.2585,0.0,0.0,0.0,0.0,0.0,0.0,0.0,0.0,0.0,0.0,0.0,0.0,0.0,0.0,0.0,-0.7135,-0.7058,-0.708,-0.7233,-0.7247,-0.7309,-0.7446,-0.7677,-0.7839,-0.7839,-0.8037,-0.8141,-0.8141,-0.8184,-0.8203,-0.8203,-0.8377,-0.8458,-0.8467,-0.8628,-0.8703,-0.8703,-0.8746,-0.8864,-0.9025,-0.9067,-0.9351,-0.9771,-0.9771,-0.9894,-1.0181,-1.0267,-1.0334,-1.0357,-0.2789,-0.2795,-0.2844,-0.2983,-0.2801,-0.2651,-0.2649,-0.2442,-0.232,-0.2346,-0.227,-0.2165,-0.2056,-0.1935,-0.1894,-0.1986,-0.1886,-0.1817,-0.1837,-0.1718,-0.1658,-0.1703,-0.166,-0.1675,-0.1696,-0.1699,-0.1699,-0.1699,-0.1699,-0.1699,-0.1699,-0.1699,-0.1757,-0.1842,-0.175,-0.1692,-0.1687,-0.1661,-0.1735,-0.1924,-0.2077,0.0,-0.2607,-0.2729,-0.2857,-0.2943,-0.3134,-0.3297,-0.3392,-0.333,-0.3273,0.0,0.0,-0.2906,-0.2903,0.0,-0.2637,-0.2669,-0.2609,-0.2639,-0.2686,-0.2686,0.0,0.0,0.0,-0.2637,-0.2645,-0.283,0.0,0.0,0.0,0.0,0.0,0.0,0.0,0.0,0.0,0.0,0.0,0.0,0.0,0.0,-0.6998,-0.7007,-0.705,-0.7149,-0.7248,-0.7374,-0.7374,-0.7574,-0.7617,-0.7617,-0.782,-0.7929,-0.7929,-0.8028,-0.808,-0.808,-0.8188,-0.8297,-0.8406,-0.8505,-0.8609,-0.8703,-0.8703,-0.8765,-0.8864,-0.8864,-0.9048,-0.9346,-0.9445,-0.9611,-0.9809,-0.9923,-1.0027,-1.0126,-0.3166,-0.3208,-0.3208,-0.3208,-0.3165,-0.3052,-0.2837,-0.2772,-0.279,-0.2895,-0.288,-0.2802,-0.2656,-0.2567,-0.2585,-0.2698,-0.2558,-0.2485,-0.2489,-0.2342,-0.222,-0.2167,-0.21,-0.2055,-0.2048,-0.2026,-0.2026,-0.2052,-0.203,-0.2008,-0.2026,-0.2008,-0.208,-0.2247,-0.2123,-0.2036,0.0,0.0,0.0,-0.2035,0.0,-0.2484,-0.2631,-0.2821,-0.2876,-0.2909,-0.3223,-0.3428,-0.355,-0.3433,-0.337,-0.3346,-0.3034,-0.3066,0.0,0.0,0.0,0.0,0.0,0.0,0.0,0.0,0.0,-0.2824,0.0,0.0,0.0,-0.2869,0.0,0.0,0.0,0.0,0.0,0.0,0.0,0.0,0.0,0.0,0.0,0.0,0.0,0.0,-0.6726,-0.673,-0.6749,-0.6791,-0.6969,-0.7054,-0.7097,-0.7354,-0.7464,-0.7464,-0.7607,-0.7716,-0.7716,-0.7877,-0.7962,-0.7962,-0.8004,-0.8113,-0.8283,-0.8363,-0.8491,-0.8647,-0.8685,-0.8703,-0.8703,-0.8703,-0.8803,-0.8982,-0.9185,-0.9393,-0.9498,-0.9498,-0.9715,-0.9894,-0.3223,-0.3208,-0.3208,-0.3208,-0.3009,-0.2837,-0.2816,-0.2642,-0.2611,-0.2866,-0.3056,-0.3232,-0.3451,-0.3394,0.0,0.0,0.0,0.0,-0.3192,-0.2889,-0.2604,-0.2386,-0.2311,-0.2263,-0.2263,-0.215,-0.215,-0.2263,-0.2096,-0.2026,-0.2084,-0.2026,-0.2019,-0.2042,-0.2192,0.0,0.0,0.0,-0.2375,0.0,-0.2815,-0.264,0.0,-0.262,-0.2705,-0.2836,-0.3573,-0.3742,-0.3619,0.0,-0.3705,-0.3373,0.0,-0.3197,-0.321,0.0,0.0,0.0,0.0,0.0,0.0,0.0,-0.3175,0.0,0.0,0.0,-0.2838,-0.2604,0.0,0.0,0.0,0.0,0.0,0.0,0.0,0.0,0.0,0.0,0.0,0.0,0.0,0.0,0.0,-0.651,-0.659,-0.6777,-0.6637,-0.6686,-0.6819,-0.7083,-0.7254,-0.7254,-0.7455,-0.7559,-0.7559,-0.7583,-0.7593,-0.7598,-0.7725,-0.7829,-0.7862,-0.8231,-0.8415,-0.8448,-0.8623,-0.8703,-0.8703,-0.8703,-0.8718,-0.876,-0.8973,-0.9181,-0.936,-0.936,-0.9497,-0.9682,-0.3229,-0.3208,-0.3208,-0.3208,-0.3095,-0.3031,-0.3031,-0.3232,-0.3353,-0.3314,-0.3649,-0.3934,0.0,0.0,0.0,0.0,0.0,-0.4008,0.0,0.0,-0.3268,-0.2778,-0.2719,-0.2676,-0.2594,-0.2524,-0.2524,-0.2594,-0.2464,-0.2415,-0.2454,-0.2333,-0.235,-0.2463,-0.268,0.0,-0.2665,0.0,-0.2812,0.0,0.0,0.0,0.0,-0.3215,-0.3443,-0.3591,-0.4014,-0.4206,-0.422,0.0,-0.4187,0.0,0.0,0.0,0.0,0.0,0.0,0.0,0.0,0.0,0.0,0.0,0.0,0.0,-0.2987,0.0,-0.3167,0.0,0.0,0.0,0.0,0.0,0.0,0.0,0.0,0.0,0.0,0.0,0.0,0.0,0.0,0.0,0.0,-0.6171,-0.6261,-0.6417,-0.6351,-0.6393,-0.6595,-0.6865,-0.7036,-0.7216,-0.7302,-0.7402,-0.7521,-0.7521,-0.7521,-0.7521,-0.7617,-0.7659,-0.7787,-0.7962,-0.8174,-0.8406,-0.8491,-0.8595,-0.8703,-0.8703,-0.8703,-0.8713,-0.8803,-0.8963,-0.9148,-0.9148,-0.928,-0.946,-0.3229,0.0,-0.3208,-0.3208,-0.3208,-0.3232,-0.3305,-0.364,-0.387,-0.3828,-0.4235,0.0,-0.4727,-0.4739,0.0,0.0,-0.511,-0.4855,0.0,0.0,-0.3915,-0.3499,-0.3214,-0.3066,-0.3118,-0.2946,-0.2853,-0.2853,-0.2745,-0.2697,-0.2697,-0.2555,-0.257,-0.2722,-0.2996,-0.3114,-0.3155,0.0,0.0,-0.3211,-0.3322,-0.3407,-0.3509,-0.3735,-0.3965,-0.4197,-0.4515,-0.4652,-0.4718,-0.4827,-0.4602,0.0,-0.4599,0.0,0.0,0.0,0.0,0.0,-0.37,0.0,0.0,0.0,0.0,0.0,0.0,0.0,0.0,0.0,0.0,0.0,0.0,0.0,0.0,0.0,0.0,-0.5264,0.0,0.0,0.0,0.0,0.0,0.0,0.0,-0.5774,-0.585,-0.6124,0.0,-0.6122,-0.6379,-0.659,-0.6832,-0.6984,-0.7159,-0.7293,-0.744,-0.7493,-0.7521,-0.7521,-0.7521,-0.7607,-0.7692,-0.7754,-0.7943,-0.8236,-0.8292,-0.8429,-0.8618,-0.8618,-0.8652,-0.8703,-0.8703,-0.8798,-0.8935,-0.8935,-0.9063,-0.9242,-0.3229,-0.3208,0.0,0.0,-0.3208,-0.3293,-0.3548,-0.3603,-0.3797,-0.4291,0.0,0.0,0.0,0.0,0.0,0.0,0.0,-0.5566,-0.5547,0.0,-0.4478,-0.4714,-0.3736,-0.3445,0.0,-0.3319,-0.2998,-0.2998,-0.2805,-0.2697,-0.2697,-0.2555,-0.2495,-0.2523,-0.293,-0.3057,-0.3039,-0.3342,-0.3783,-0.4243,-0.4099,-0.4414,-0.4842,0.0,-0.3984,-0.4454,-0.4911,0.0,0.0,-0.5291,-0.5068,0.0,0.0,0.0,0.0,0.0,0.0,0.0,0.0,0.0,0.0,-0.444,0.0,0.0,0.0,0.0,-0.4155,0.0,0.0,0.0,0.0,0.0,-0.5066,-0.5016,-0.5335,0.0,0.0,0.0,0.0,0.0,0.0,0.0,0.0,0.0,-0.5476,0.0,-0.5741,-0.5807,-0.6164,-0.6374,-0.6487,-0.6549,-0.6946,-0.7226,-0.7231,-0.7426,-0.7521,-0.7521,-0.7521,-0.7526,-0.754,-0.7688,-0.7787,-0.781,-0.8004,-0.8212,-0.8411,-0.8411,-0.8529,-0.8703,-0.8703,-0.8708,-0.8713,-0.8713,-0.885,-0.9034,0.0,0.0,0.0,0.0,0.0,-0.3293,-0.3561,-0.3907,-0.4328,0.0,0.0,0.0,0.0,-0.6337,-0.6335,0.0,0.0,-0.5985,-0.562,-0.5183,0.0,0.0,0.0,-0.381,0.0,-0.3597,-0.3305,-0.3138,-0.2977,-0.2891,-0.2891,-0.2767,-0.2686,-0.2662,0.0,-0.3675,0.0,0.0,0.0,0.0,0.0,-0.4769,-0.5179,0.0,-0.4842,-0.5044,-0.5458,-0.5582,0.0,-0.5828,-0.5602,-0.5249,-0.5592,-0.5218,-0.4786,-0.5233,-0.512,-0.4897,0.0,0.0,-0.5229,-0.4729,0.0,0.0,0.0,0.0,0.0,0.0,0.0,0.0,0.0,0.0,-0.5208,-0.5207,-0.5193,-0.5027,0.0,0.0,0.0,0.0,0.0,0.0,0.0,0.0,0.0,0.0,-0.5646,0.0,-0.6154,-0.6239,-0.6337,-0.6468,-0.6809,-0.7021,-0.7216,-0.7421,-0.7521,-0.7521,-0.7521,-0.7521,-0.7526,-0.7602,-0.7645,-0.7787,-0.7853,-0.7999,-0.8198,-0.8344,-0.8444,-0.8519,-0.8647,-0.8703,-0.8703,-0.8703,-0.8751,-0.8831,-0.3562,0.0,0.0,0.0,0.0,0.0,-0.37,0.0,0.0,0.0,-0.5845,0.0,-0.7256,0.0,-0.6914,0.0,-0.6912,-0.6495,-0.5918,-0.5547,0.0,-0.5231,-0.4624,0.0,0.0,0.0,-0.3736,-0.3424,-0.3232,-0.3067,-0.2934,-0.2832,-0.2767,-0.2772,0.0,-0.3921,-0.422,0.0,-0.5022,0.0,0.0,-0.5057,0.0,0.0,-0.5606,-0.5542,0.0,-0.5958,-0.6043,-0.6131,-0.5977,-0.5726,-0.6077,-0.5752,-0.5296,-0.5692,-0.5622,-0.5344,-0.5344,-0.5567,0.0,-0.5222,-0.5242,0.0,-0.4734,0.0,-0.5069,0.0,0.0,0.0,0.0,0.0,-0.5457,-0.5311,-0.5179,-0.4923,0.0,-0.4243,0.0,0.0,0.0,0.0,0.0,0.0,-0.5023,-0.5462,-0.5429,0.0,0.0,-0.6136,-0.6234,-0.6365,-0.6571,-0.6842,-0.705,-0.7248,-0.7455,-0.7521,-0.7521,-0.7521,-0.7521,-0.7521,-0.7602,-0.7664,-0.7664,-0.7782,-0.7985,-0.8122,-0.8269,-0.8415,-0.8543,-0.8637,-0.8703,-0.8703,-0.8703,-0.8722,0.0,0.0,0.0,0.0,-0.3462,0.0,0.0,0.0,-0.5544,0.0,-0.6453,-0.699,-0.7953,-0.7719,-0.757,-0.7848,-0.7616,-0.7166,-0.6557,-0.5982,0.0,0.0,-0.5303,-0.5113,-0.5627,0.0,0.0,0.0,-0.3525,-0.3203,-0.2816,-0.2816,-0.2816,-0.2837,-0.3312,0.0,-0.4345,-0.4831,-0.5158,-0.5348,-0.5344,-0.5338,-0.5437,-0.6057,-0.6174,-0.5977,-0.5925,-0.6057,-0.6178,-0.6178,-0.6178,-0.6178,-0.6178,-0.6178,-0.6178,-0.6178,-0.6178,-0.6178,-0.6178,-0.6178,-0.6126,-0.5977,-0.5916,0.0,0.0,0.0,-0.5623,0.0,0.0,0.0,0.0,0.0,0.0,-0.5353,-0.5268,-0.5051,0.0,0.0,0.0,0.0,0.0,0.0,0.0,0.0,-0.4356,-0.5183,-0.5084,0.0,0.0,-0.6095,-0.6154,-0.6178,-0.637,-0.6571,-0.6777,-0.705,-0.7316,-0.7507,-0.7517,-0.7521,-0.7521,-0.7521,-0.7521,-0.7521,-0.7521,-0.764,-0.7763,-0.7777,-0.8014,-0.8373,-0.8396,-0.8524,-0.8703,-0.8703,-0.8699,-0.8627,-0.3745,-0.3856,-0.4055,0.0,-0.3927,-0.3805,0.0,0.0,0.0,0.0,-0.7628,-0.8259,-0.8989,-0.8715,-0.856,-0.8601,-0.8343,0.0,0.0,0.0,0.0,-0.7408,-0.6361,-0.5812,-0.5961,-0.4947,0.0,-0.3945,0.0,-0.3188,-0.3095,-0.3095,-0.3052,-0.2978,0.0,0.0,-0.4566,-0.5192,-0.5596,-0.5826,-0.6023,-0.6126,-0.6171,0.0,-0.6744,-0.678,-0.6567,-0.6392,-0.6178,-0.6178,-0.6178,-0.6178,-0.6178,-0.6178,-0.6178,-0.6178,-0.6178,-0.6178,-0.6178,-0.6178,-0.6164,-0.6161,-0.6029,-0.5883,0.0,0.0,0.0,0.0,0.0,0.0,0.0,0.0,0.0,0.0,-0.5071,0.0,0.0,0.0,0.0,0.0,0.0,0.0,0.0,0.0,-0.4531,-0.4638,-0.4838,0.0,0.0,0.0,-0.5911,-0.6168,-0.637,-0.6501,-0.6552,-0.6974,-0.7245,-0.7302,-0.745,-0.7521,-0.7521,-0.7521,-0.7521,-0.7521,-0.7521,-0.7555,-0.7617,-0.7711,-0.7844,-0.7971,-0.8278,-0.8524,-0.8703,-0.8703,-0.8394,-0.8089,-0.4208,0.0,0.0,-0.5047,0.0,0.0,-0.5287,-0.5669,0.0,-0.7418,-0.7958,0.0,-0.9136,-0.9287,-0.9309,-0.9309,-0.9037,0.0,-0.8421,0.0,0.0,-0.7716,-0.7176,-0.6826,-0.6657,-0.5932,0.0,-0.4582,0.0,-0.3696,-0.3208,-0.3208,-0.3159,-0.3113,0.0,-0.4201,0.0,-0.5293,-0.5774,-0.601,-0.627,-0.6393,0.0,-0.6916,-0.7078,-0.7085,-0.7085,-0.6869,-0.6603,-0.6603,-0.6495,-0.644,-0.644,-0.6337,-0.6178,-0.6178,-0.6178,-0.6178,-0.6178,-0.6178,-0.6178,-0.6178,-0.6138,-0.6024,-0.593,-0.6014,-0.6066,0.0,-0.6163,-0.6241,0.0,0.0,0.0,0.0,0.0,0.0,0.0,0.0,0.0,0.0,0.0,0.0,0.0,-0.3926,-0.429,-0.4399,-0.4623,0.0,0.0,0.0,-0.585,-0.6081,-0.6289,-0.6384,-0.6473,-0.6766,-0.6974,-0.7221,-0.7335,-0.7436,-0.7521,-0.7521,-0.7521,-0.7521,-0.7521,-0.7521,-0.7531,-0.7588,-0.7697,-0.7825,-0.824,-0.8472,-0.8581,-0.867,-0.847,-0.8241,0.0,0.0,0.0,0.0,0.0,0.0,0.0,-0.6441,0.0,-0.7712,0.0,-0.8487,-0.9135,-0.9635,-0.9865,-0.9865,0.0,-0.9276,-0.8699,-0.8641,-0.8366,-0.7859,-0.7946,-0.7887,-0.7525,-0.7178,-0.646,0.0,-0.5009,-0.4277,-0.3208,-0.3208,-0.3208,-0.3232,0.0,0.0,0.0,-0.536,-0.582,-0.6064,-0.6368,-0.6514,-0.6569,-0.7274,-0.7408,-0.7246,-0.7467,-0.7359,-0.7085,-0.7085,-0.6923,-0.6756,-0.6756,-0.6549,-0.6337,-0.6337,-0.6337,-0.6337,-0.6337,-0.6337,-0.6337,-0.6337,-0.6337,-0.6288,-0.6096,-0.6261,-0.6416,-0.6416,-0.6364,-0.6415,-0.663,0.0,0.0,0.0,0.0,0.0,0.0,0.0,0.0,0.0,0.0,0.0,0.0,0.0,-0.395,-0.4299,-0.4347,0.0,0.0,0.0,-0.5826,-0.5906,-0.6119,-0.6262,-0.6435,-0.6459,-0.6728,-0.7116,-0.7207,-0.7326,-0.7521,-0.7521,-0.7521,-0.7521,-0.7521,-0.7521,-0.7521,-0.7521,-0.765,-0.7815,-0.8179,-0.8354,-0.842,-0.8595,-0.868,-0.8703,0.0,0.0,0.0,0.0,0.0,-0.7733,-0.832,-0.828,-0.8392,-0.9017,-0.9643,-1.0066,-1.0221,-1.034,-1.036,-1.036,-1.0305,0.0,0.0,0.0,0.0,-0.9462,-0.9012,-0.8558,-0.8245,-0.7481,-0.649,0.0,-0.4814,-0.4092,-0.3208,-0.3208,-0.3208,-0.3232,0.0,0.0,-0.542,-0.5782,0.0,-0.6373,-0.6848,-0.7056,-0.7115,-0.7645,-0.7788,-0.7788,-0.7794,-0.7521,-0.7085,-0.7085,-0.7085,-0.7031,-0.7031,-0.6977,-0.6923,-0.6923,-0.6923,-0.6923,-0.6923,-0.6923,-0.6923,-0.6923,-0.6923,-0.6912,-0.6924,-0.6919,-0.6972,-0.6972,-0.6806,-0.66,-0.6405,0.0,0.0,0.0,0.0,0.0,0.0,0.0,0.0,0.0,0.0,0.0,0.0,0.0,-0.4144,-0.3836,0.0,0.0,0.0,0.0,-0.5382,0.0,-0.6119,-0.6192,0.0,0.0,-0.6599,-0.6848,-0.7078,-0.7326,-0.7521,-0.7521,-0.7521,-0.7521,-0.7521,-0.7521,-0.7521,-0.7521,-0.765,-0.7787,-0.7858,-0.8099,-0.8406,-0.8444,-0.8557,-0.8703,0.0,0.0,0.0,0.0,0.0,0.0,0.0,-0.9736,-1.0019,-0.9306,-0.9509,-0.9719,-0.9719,-1.0198,-1.0522,-1.0522,-1.0522,-1.0522,-1.0522,-1.0303,-1.0121,-0.993,-0.9612,0.0,-0.8935,-0.8353,-0.7446,-0.6236,-0.5535,-0.4629,-0.3619,-0.334,-0.3281,-0.3439,0.0,-0.5106,0.0,0.0,0.0,-0.6881,-0.7242,-0.7407,-0.7449,-0.7751,-0.7901,-0.7901,-0.7901,-0.7735,-0.7521,-0.7521,-0.7413,-0.73,-0.73,-0.7192,-0.7085,-0.7085,-0.7085,-0.7085,-0.7085,-0.7085,-0.7085,-0.7085,-0.7085,-0.7085,-0.7085,-0.7192,-0.73,-0.73,-0.7085,-0.6742,-0.6209,-0.5846,0.0,0.0,0.0,0.0,0.0,0.0,0.0,0.0,0.0,0.0,0.0,0.0,0.0,0.0,0.0,0.0,0.0,0.0,-0.5226,0.0,0.0,0.0,-0.6178,0.0,-0.6421,-0.6632,-0.6899,-0.7106,-0.7369,-0.7474,-0.7521,-0.7521,-0.7521,-0.7521,-0.7521,-0.7521,-0.7583,-0.7626,-0.7735,-0.79,-0.8108,-0.8321,-0.8463,-0.8562,0.0,-0.7367,0.0,0.0,-0.9038,0.0,-0.9624,-1.0897,-1.1274,-0.9657,-0.95,-0.95,-0.946,-1.0077,-1.0522,-1.0522,-1.0522,-1.0522,-1.0522,-1.0522,-1.0343,-1.0049,-1.0041,-0.9874,-0.9517,-0.9183,-0.8401,0.0,-0.6357,-0.5341,-0.4173,-0.3732,-0.3707,-0.4057,-0.4963,0.0,0.0,0.0,-0.7154,-0.7432,-0.7653,-0.7696,-0.7625,-0.7799,-0.7901,-0.7901,-0.7901,-0.7901,-0.7901,-0.7901,-0.7741,-0.7574,-0.7574,-0.7461,-0.7246,-0.7246,-0.7246,-0.7246,-0.7246,-0.7246,-0.7246,-0.7246,-0.7246,-0.7246,-0.7246,-0.7413,-0.7574,-0.7574,-0.7354,-0.6961,-0.6209,-0.602,0.0,0.0,0.0,0.0,0.0,0.0,0.0,0.0,0.0,0.0,0.0,0.0,0.0,0.0,0.0,0.0,-0.4452,0.0,0.0,0.0,0.0,-0.5991,-0.6161,0.0,-0.6276,-0.6478,-0.6688,-0.696,-0.7231,-0.7431,-0.7521,-0.7521,-0.7521,-0.7521,-0.7521,-0.7521,-0.7521,-0.754,-0.7645,-0.774,-0.7825,-0.8198,-0.8363,-0.8434,0.0,0.0,0.0,0.0,0.0,0.0,-1.1256,-1.161,-1.1589,-1.0929,-1.1101,-1.1145,-1.0844,-1.0621,-1.0522,-1.0522,-1.0522,-1.0522,-1.0522,-1.0522,-1.0454,-1.0474,-1.0415,-1.0248,-0.9882,-0.9533,-0.8747,0.0,0.0,-0.5875,-0.482,-0.4628,-0.487,-0.5413,-0.5529,-0.6229,-0.7355,-0.7412,-0.7575,-0.7767,-0.8026,-0.7948,-0.7625,-0.7799,-0.7901,-0.7901,-0.7901,-0.7901,-0.7901,-0.7901,-0.7901,-0.7848,-0.7848,-0.7848,-0.7848,-0.7848,-0.7848,-0.7848,-0.7848,-0.7848,-0.7848,-0.7848,-0.7848,-0.7848,-0.7848,-0.7848,-0.7848,-0.7848,-0.7628,-0.7287,-0.6783,-0.6838,-0.6718,0.0,0.0,0.0,0.0,0.0,0.0,0.0,0.0,0.0,0.0,-0.4172,0.0,0.0,0.0,0.0,-0.4647,-0.4714,0.0,-0.559,-0.5802,-0.592,-0.5939,-0.6133,-0.6276,-0.6478,-0.6688,-0.696,-0.7231,-0.7431,-0.7521,-0.7521,-0.7521,-0.7521,-0.7521,-0.7521,-0.7521,-0.7526,-0.7545,-0.7607,-0.7806,-0.8028,-0.8236,-0.8434,0.0,0.0,0.0,0.0,0.0,0.0,0.0,-1.3415,-1.3314,-1.2931,-1.2252,-1.1729,-1.1628,-1.1102,-1.0788,-1.0788,-1.0641,-1.0522,-1.0522,-1.0522,-1.0522,-1.0522,-1.0522,-1.0399,-1.0256,-0.9898,-0.9257,0.0,0.0,0.0,-0.5843,-0.5509,-0.5667,-0.6297,-0.6819,-0.7427,-0.8134,-0.8445,-0.8627,-0.8693,-0.849,-0.8352,-0.8157,-0.796,-0.7901,-0.7901,-0.7901,-0.7901,-0.7901,-0.7901,-0.7901,-0.7901,-0.7901,-0.7901,-0.7901,-0.7901,-0.7901,-0.7901,-0.7901,-0.7901,-0.7901,-0.7901,-0.7901,-0.7901,-0.7901,-0.7901,-0.7901,-0.7901,-0.7681,-0.7379,-0.7019,-0.6965,-0.6864,-0.6701,0.0,0.0,0.0,0.0,0.0,0.0,0.0,0.0,0.0,0.0,0.0,0.0,0.0,-0.3955,-0.4495,-0.4638,0.0,-0.5401,0.0,-0.5906,-0.5906,-0.6124,-0.6215,-0.63,-0.6501,-0.6712,-0.6984,-0.7187,-0.7407,-0.7521,-0.7521,-0.7521,-0.7521,-0.7521,-0.7521,-0.7521,-0.7521,-0.7574,-0.7612,-0.7825,-0.8033,-0.824,-0.9683,0.0,-1.5225,0.0,-1.3911,-1.3392,-1.5081,-1.5362,-1.525,-1.4775,-1.3717,-1.2898,-1.256,-1.1842,-1.1418,-1.1309,-1.1075,-1.0878,-1.0817,-1.0772,-1.0724,-1.0629,-1.0673,0.0,-1.0522,-1.0113,-0.9692,-0.9207,-0.8367,0.0,-0.7076,-0.6637,-0.6779,-0.7386,-0.8008,-0.8504,-0.8943,-0.9341,-0.9452,-0.9407,-0.9061,-0.889,-0.8732,-0.8262,-0.8162,-0.8268,-0.8162,-0.8109,-0.8109,-0.8109,-0.8002,-0.7901,-0.7901,-0.7901,-0.7901,-0.7901,-0.7901,-0.7901,-0.7901,-0.7901,-0.7901,-0.7901,-0.7901,-0.7901,-0.7901,-0.7901,-0.7901,-0.7901,-0.7741,-0.7574,-0.7354,-0.722,-0.7136,-0.712,0.0,0.0,0.0,0.0,0.0,0.0,-0.5018,-0.4857,-0.4809,0.0,0.0,0.0,0.0,-0.4167,-0.4571,-0.4661,0.0,0.0,0.0,0.0,-0.5906,-0.6124,-0.6178,-0.6178,-0.6379,-0.6552,-0.6707,-0.7036,-0.7331,-0.7521,-0.7521,-0.7521,-0.7521,-0.7521,-0.7521,-0.7521,-0.7521,-0.7521,-0.755,-0.7702,-0.7872,-0.8033,-0.9683,-1.379,-1.7245,-1.7245,-1.569,-1.5128,-1.6987,-1.7278,-1.7022,-1.6358,-1.5728,-1.4936,-1.3816,-1.294,-1.2342,-1.2,-1.1991,-1.1824,-1.1535,-1.1479,-1.1336,0.0,0.0,-1.0828,-1.053,-1.0113,-0.9922,-0.9914,0.0,0.0,-0.845,-0.8116,-0.8315,-0.8881,-0.8897,-0.9279,-0.9858,-0.9873,-0.9872,-0.9806,-0.9814,-0.9562,-0.9159,-0.8732,-0.8837,-0.9159,-0.8732,-0.8573,-0.8573,-0.8573,-0.8262,-0.7901,-0.7901,-0.7901,-0.7901,-0.7901,-0.7901,-0.7901,-0.7901,-0.7901,-0.7901,-0.7901,-0.7901,-0.7901,-0.7901,-0.7901,-0.7901,-0.7901,-0.7901,-0.7901,-0.7901,-0.7895,-0.7753,-0.728,0.0,0.0,0.0,0.0,0.0,0.0,-0.4843,-0.4795,-0.4961,0.0,0.0,0.0,0.0,-0.479,-0.4966,-0.4819,0.0,-0.5585,-0.5802,0.0,-0.5906,-0.6124,-0.6178,-0.6178,-0.6379,-0.6478,-0.6492,-0.6969,-0.7331,-0.7521,-0.7521,-0.7521,-0.7521,-0.7521,-0.7521,-0.7521,-0.7521,-0.7521,-0.755,-0.7702,-0.7782,-0.7775,-1.4626,-1.616,-1.7278,-1.7278,-1.6818,-1.6591,-1.7222,-1.7278,-1.7211,-1.7032,-1.6807,-1.6461,-1.5729,-1.4298,-1.3268,0.0,-1.2655,-1.2295,0.0,-1.1944,-1.1783,-1.1677,-1.1447,-1.1281,-1.1161,-1.0828,-1.0542,-1.0295,0.0,-0.9423,-0.9095,-0.9022,-0.9164,-0.9596,-0.9596,-0.9859,-1.0295,-1.0295,-1.0308,-1.0249,-0.9925,-0.971,-0.9562,-0.9152,-0.9106,-0.9159,-0.9054,-0.8837,-0.8626,-0.8626,-0.8521,-0.8368,-0.8368,-0.8162,-0.7901,-0.7901,-0.7901,-0.7901,-0.7901,-0.7901,-0.7901,-0.7901,-0.7901,-0.7901,-0.7901,-0.7901,-0.7901,-0.7901,-0.7901,-0.7901,-0.7901,-0.7901,-0.7871,-0.7676,-0.7222,0.0,-0.632,0.0,0.0,0.0,-0.4928,-0.4914,0.0,-0.4867,0.0,0.0,0.0,0.0,-0.4975,0.0,0.0,0.0,-0.5868,0.0,-0.5911,-0.6124,-0.6178,-0.6178,-0.6239,-0.6417,-0.6698,-0.7036,-0.7331,-0.7521,-0.7521,-0.7521,-0.7521,-0.7521,-0.7521,-0.7521,-0.7521,-0.7521,-0.7531,-0.7602,-0.7453,-0.7254,-1.7038,-1.7278,-1.7278,-1.7278,-1.7278,-1.7278,-1.7278,-1.7278,-1.7278,-1.7278,-1.7278,-1.7211,-1.6864,-1.5612,0.0,-1.4363,-1.3864,-1.3444,-1.316,-1.2923,-1.2692,-1.2394,-1.2159,-1.1971,-1.1664,-1.1454,-1.1182,-1.0905,-1.0502,-1.0145,-0.9795,-0.9795,-0.9914,-1.0129,-1.0129,-1.0256,-1.0522,-1.0522,-1.0522,-1.047,-1.019,-1.0079,-1.0035,-0.9569,-0.9524,-0.9681,-0.9465,-0.9387,-0.9266,-0.9266,-0.9166,-0.9025,-0.9187,-0.8857,-0.8374,-0.8215,-0.8055,-0.7901,-0.7901,-0.7901,-0.7901,-0.7901,-0.7901,-0.7901,-0.7901,-0.7901,-0.7901,-0.7901,-0.7901,-0.7901,-0.7901,-0.7901,-0.7901,-0.7901,-0.7367,-0.6856,-0.6655,0.0,0.0,0.0,0.0,0.0,0.0,-0.5131,-0.5221,0.0,0.0,0.0,0.0,0.0,-0.55,-0.5519,-0.5982,-0.6166,-0.6029,-0.6112,-0.6178,-0.6178,-0.6178,-0.6351,-0.6679,-0.6951,-0.7154,-0.7416,-0.7488,-0.7521,-0.7521,-0.7521,-0.7521,-0.7521,-0.7521,-0.7521,-0.7521,-0.7521,-0.7215,-0.6865,-1.7278,-1.7278,-1.7278,-1.7278,-1.7278,-1.7278,-1.7278,-1.7278,-1.7278,-1.7278,-1.7278,-1.7278,-1.7278,-1.692,-1.6343,-1.5584,-1.5468,0.0,-1.4382,-1.4332,-1.3942,-1.3206,-1.313,-1.2785,-1.2195,-1.2114,-1.1913,-1.1543,-1.124,-1.0913,-1.0593,-1.0593,-1.0593,-1.0593,-1.0593,-1.0593,-1.0593,-1.0593,-1.0593,-1.0593,-1.0593,-1.0593,-1.0534,-1.0096,-1.0208,-1.0482,-1.0044,-1.0143,-1.0414,-1.0414,-1.0148,-0.9868,-1.0208,-0.9895,-0.9214,-0.8771,-0.8334,-0.7955,-0.7901,-0.7955,-0.8008,-0.7955,-0.7955,-0.8008,-0.8008,-0.7955,-0.7955,-0.7955,-0.7901,-0.7901,-0.7901,-0.7901,-0.7895,-0.7877,-0.7442,-0.6985,-0.6821,-0.6346,-0.5853,0.0,0.0,0.0,-0.509,-0.5396,-0.5623,0.0,0.0,0.0,0.0,0.0,-0.5509,-0.5897,-0.6119,-0.6178,-0.6178,-0.6178,-0.6178,-0.6178,-0.6178,-0.6281,-0.6482,-0.6693,-0.6965,-0.7231,-0.7436,-0.7521,-0.7521,-0.7521,-0.7521,-0.7521,-0.7521,-0.7521,-0.7521,-0.7521,-0.7129,-0.6568,-1.7278,-1.7278,-1.7278,-1.7278,-1.7278,-1.7278,-1.7278,-1.7278,-1.7278,-1.7278,-1.7278,-1.7278,-1.7278,-1.7222,-1.7043,-1.6864,-1.6218,-1.569,-1.5517,-1.5284,-1.5012,-1.4858,-1.4264,-1.3856,-1.3699,-1.3087,-1.2461,-1.1888,-1.1806,-1.1613,-1.1249,-1.1249,-1.1249,-1.1249,-1.1249,-1.1249,-1.1249,-1.1249,-1.1249,-1.1249,-1.1249,-1.1249,-1.1249,-1.1131,-1.1186,-1.1249,-1.1131,-1.0963,-1.0767,-1.0767,-1.0711,-1.0605,-1.0736,-1.0662,-1.0316,-0.9295,-0.8965,-0.8738,-0.8055,-0.8374,-0.8844,-0.8527,-0.8685,-0.8896,-0.8896,-0.8633,-0.8421,-0.8421,-0.8162,-0.7901,-0.7901,-0.7901,-0.7829,-0.7677,-0.7218,-0.6767,-0.6516,-0.6246,-0.5957,0.0,-0.5768,-0.5788,-0.5467,-0.5689,-0.5774,0.0,0.0,-0.5906,-0.5906,-0.5812,-0.5807,-0.5906,-0.6119,-0.6178,-0.6178,-0.6178,-0.6178,-0.6178,-0.6178,-0.6281,-0.6482,-0.6693,-0.6965,-0.7231,-0.7436,-0.7521,-0.7521,-0.7521,-0.7521,-0.7521,-0.7521,-0.7521,-0.7521,-0.7521,-0.6872,-0.609,-1.7278,-1.7278,-1.7278,-1.7278,-1.7278,-1.7278,-1.7278,-1.7278,-1.7278,-1.7278,-1.7278,-1.7278,-1.7278,-1.7278,-1.7278,-1.7278,-1.6807,-1.6457,-1.6218,-1.6046,-1.5874,-1.5642,-1.5216,-1.4923,-1.4746,-1.4083,-1.3331,-1.2436,-1.2436,-1.223,-1.172,-1.172,-1.1664,-1.1487,-1.1487,-1.1487,-1.1487,-1.1487,-1.1487,-1.1487,-1.1487,-1.1487,-1.1487,-1.1487,-1.1487,-1.1487,-1.1487,-1.1485,-1.1387,-1.1387,-1.1387,-1.1418,-1.1639,-1.1476,-1.1035,-1.0329,-0.9827,-0.9286,-0.8672,-0.8844,-0.9159,-0.8942,-0.9047,-0.9211,-0.9211,-0.889,-0.8626,-0.8626,-0.8209,-0.7901,-0.7901,-0.7901,-0.7811,-0.7638,-0.7374,-0.7091,-0.6789,-0.6655,-0.6468,-0.618,-0.6342,-0.6295,-0.5854,-0.6079,-0.6119,-0.576,-0.5939,0.0,-0.6053,-0.6053,-0.6053,-0.6053,-0.6171,-0.6178,-0.6178,-0.6178,-0.6178,-0.6178,-0.6178,-0.6234,-0.6346,-0.6651,-0.6852,-0.7036,-0.7329,-0.7521,-0.7521,-0.7521,-0.7521,-0.7461,-0.726,-0.7129,-0.7129,-0.6872,-0.621,-0.5557,-1.7278,-1.7278,-1.7278,-1.7278,-1.7278,-1.7278,-1.7278,-1.7278,-1.7278,-1.7278,-1.7278,-1.7278,-1.7278,-1.7278,-1.7278,-1.7278,-1.7278,-1.7099,-1.6751,-1.6694,-1.6513,-1.6104,-1.6046,-1.5874,-1.5584,-1.5118,-1.4304,-1.3124,-1.3232,-1.2886,-1.2222,-1.2222,-1.2052,-1.1703,-1.1703,-1.1703,-1.1654,-1.1654,-1.1654,-1.1654,-1.1654,-1.1654,-1.1654,-1.1654,-1.1654,-1.1654,-1.1654,-1.1845,-1.2099,-1.2099,-1.2099,-1.2154,-1.2464,-1.2139,-1.1644,-1.1544,-1.0805,-0.9957,-0.9432,-0.9299,-0.9316,-0.9368,-0.942,-0.942,-0.942,-0.9047,-0.8679,-0.8679,-0.8268,-0.7901,-0.7901,-0.7901,-0.7799,-0.7589,-0.7571,-0.7492,-0.7182,0.0,-0.7164,-0.6867,-0.7047,-0.6912,-0.6245,-0.653,-0.6572,-0.6124,-0.6231,-0.6337,-0.6282,-0.6282,-0.6228,-0.6178,-0.6178,-0.6178,-0.6178,-0.6178,-0.6178,-0.6178,-0.6178,-0.6178,-0.6187,-0.6571,-0.6763,-0.6815,-0.7248,-0.7493,-0.7521,-0.7521,-0.7521,-0.7456,-0.6937,-0.6675,-0.6609,-0.6086,-0.5554,-0.5087,-1.7278,-1.7278,-1.7278,-1.7278,-1.7278,-1.7278,-1.7278,-1.7278,-1.7278,-1.7278,-1.7278,-1.7278,-1.7278,-1.7278,-1.7278,-1.7278,-1.7278,-1.7278,-1.7222,-1.7211,-1.7155,-1.7099,-1.6694,-1.6457,-1.64,-1.5931,-1.5089,-1.3862,-1.4269,-1.4046,-1.3271,-1.3271,-1.31,-1.2756,-1.2756,-1.2635,-1.2461,-1.2461,-1.2461,-1.2461,-1.2461,-1.2461,-1.2461,-1.2461,-1.2461,-1.2461,-1.2461,-1.2432,-1.2541,-1.2541,-1.2541,-1.2488,-1.2605,-1.2549,-1.2345,-1.2032,-1.1764,-1.1372,-0.9979,-0.9667,-0.9821,-1.0205,-1.0308,-1.0308,-1.0308,-0.9681,-0.9106,-0.9106,-0.8474,-0.7901,-0.7901,-0.7901,-0.7739,-0.7346,-0.7449,-0.7425,-0.6939,0.0,-0.7434,-0.7087,-0.7257,-0.7287,-0.6977,-0.6983,-0.7015,-0.6924,-0.6956,-0.6869,-0.6652,-0.6598,-0.6495,-0.6232,-0.6178,-0.6178,-0.6178,-0.6178,-0.6178,-0.6178,-0.6178,-0.6178,-0.6182,-0.6417,-0.6623,-0.6805,-0.7102,-0.7364,-0.7521,-0.7521,-0.7521,-0.7456,-0.6937,-0.6675,-0.6609,-0.6086,-0.5554,-0.5087,-1.7278,-1.7278,-1.7278,-1.7278,-1.7278,-1.7278,-1.7278,-1.7278,-1.7278,-1.7278,-1.7278,-1.7278,-1.7278,-1.7278,-1.7278,-1.7278,-1.7278,-1.7278,-1.7278,-1.7278,-1.7278,-1.7278,-1.7099,-1.6864,-1.6637,-1.64,-1.5874,-1.5001,-1.5235,-1.505,-1.4519,-1.4282,-1.3983,-1.3623,-1.3164,-1.292,-1.2805,-1.2683,-1.2621,-1.2621,-1.2621,-1.2621,-1.2621,-1.2621,-1.2621,-1.2621,-1.2621,-1.2621,-1.2621,-1.2621,-1.2621,-1.2621,-1.2621,-1.2621,-1.2528,-1.2361,-1.1908,-1.1288,-1.0584,-1.0302,-1.0249,-1.047,-1.0522,-1.0522,-1.0522,-0.9991,-0.9465,-0.9263,-0.8685,-0.8209,-0.7955,-0.7901,-0.7769,-0.748,-0.7587,-0.7629,-0.7285,-0.752,-0.7715,-0.7565,-0.7664,-0.7628,-0.7354,-0.73,-0.7246,-0.7085,-0.7085,-0.7031,-0.6918,-0.6923,-0.6761,-0.6495,-0.6282,-0.6178,-0.6178,-0.6178,-0.6178,-0.6178,-0.6178,-0.6178,-0.6182,-0.6384,-0.6529,-0.6637,-0.7021,-0.7084,-0.6921,-0.7024,-0.6872,-0.6609,-0.6079,-0.5815,-0.5749,-0.5226,-0.4894,-0.4694,-1.8073,-1.7645,-1.7278,-1.7278,-1.7278,-1.7278,-1.7278,-1.7278,-1.7278,-1.7278,-1.7278,-1.7278,-1.7278,-1.7278,-1.7278,-1.7278,-1.7278,-1.7278,-1.7278,-1.7278,-1.7278,-1.7278,-1.7278,-1.7099,-1.6627,-1.6694,-1.6457,-1.5874,-1.5989,-1.5874,-1.5526,-1.5177,-1.4815,-1.4451,-1.3692,-1.3338,-1.3277,-1.292,-1.2797,-1.2797,-1.2744,-1.2683,-1.2683,-1.2621,-1.2621,-1.2621,-1.2621,-1.2621,-1.2621,-1.2621,-1.2621,-1.2621,-1.2621,-1.2621,-1.2621,-1.2621,-1.1932,-1.1201,-1.1042,-1.0796,-1.0625,-1.0545,-1.0522,-1.0522,-1.0522,-1.0138,-0.9666,-0.9263,-0.889,-0.8468,-0.8002,-0.7901,-0.7811,-0.7638,-0.7774,-0.7805,-0.7631,-0.778,-0.7901,-0.7901,-0.7901,-0.7794,-0.7628,-0.7574,-0.7521,-0.73,-0.73,-0.7246,-0.7192,-0.7192,-0.7085,-0.681,-0.6386,-0.6178,-0.6178,-0.6178,-0.6178,-0.6178,-0.6178,-0.6178,-0.6182,-0.6337,-0.6431,-0.6492,-0.681,-0.667,-0.6354,-0.6425,-0.6181,-0.5829,-0.5235,-0.5058,-0.5024,-0.4498,-0.43,-0.43,-2.0448,-1.8762,-1.7278,-1.7278,-1.7278,-1.7278,-1.7278,-1.7278,-1.7278,-1.7278,-1.7278,-1.7278,-1.7278,-1.7278,-1.7278,-1.7278,-1.7278,-1.7278,-1.7278,-1.7278,-1.7278,-1.7278,-1.7278,-1.7099,-1.6627,-1.7043,-1.6807,-1.5874,-1.6343,-1.6332,-1.5874,-1.5816,-1.5642,-1.5294,-1.4824,-1.441,-1.4094,-1.3623,-1.345,-1.339,-1.3103,-1.2981,-1.2928,-1.2683,-1.2621,-1.2621,-1.2621,-1.2621,-1.2621,-1.2621,-1.2621,-1.2621,-1.2621,-1.2621,-1.2621,-1.2621,-1.2266,-1.1805,-1.1169,-1.0979,-1.0875,-1.0601,-1.0522,-1.0522,-1.0522,-1.0138,-0.9666,-0.9263,-0.889,-0.8468,-0.8002,-0.7901,-0.7811,-0.7638,-0.7774,0.0,-0.7631,-0.778,-0.7901,-0.7901,-0.7901,-0.7901,-0.7848,-0.7848,-0.7848,-0.7848,-0.7848,-0.7735,-0.7467,-0.7467,-0.7354,-0.7085,-0.65,-0.6178,-0.6178,-0.6178,-0.6178,-0.6178,-0.6178,-0.6178,-0.6178,-0.6192,-0.63,-0.6473,-0.6156,-0.6095,-0.6207,-0.5787,-0.5639,-0.5657,-0.5142,-0.4968,-0.5024,-0.4498,-0.43,-0.43,-2.0699,-2.0016,-1.9396,-1.9396,-1.9396,-1.891,-1.7545,-1.7278,-1.7278,-1.7278,-1.7278,-1.7278,-1.7278,-1.7278,-1.7278,-1.7278,-1.7278,-1.7278,-1.7278,-1.7278,-1.7278,-1.7278,-1.7278,-1.7222,-1.7043,-1.7211,-1.7099,-1.6751,-1.6931,-1.692,-1.6751,-1.6457,-1.6285,-1.6104,-1.541,-1.4883,-1.446,-1.4094,-1.3743,-1.3511,-1.3329,-1.3338,-1.3277,-1.3216,-1.3155,-1.3155,-1.292,-1.2867,-1.2805,-1.2683,-1.2621,-1.2621,-1.2621,-1.2621,-1.2621,-1.2621,-1.2464,-1.2202,-1.1495,-1.1153,-1.0915,-1.0558,-1.0522,-1.0522,-1.0522,-1.036,-1.0043,-0.9368,-0.9106,-0.8738,-0.8062,-0.7901,-0.7865,-0.7816,-0.7829,-0.7865,-0.781,-0.7835,-0.7901,-0.7901,-0.7901,-0.7901,-0.7901,-0.7901,-0.7901,-0.7901,-0.7901,-0.7848,-0.7741,-0.7574,-0.7467,-0.7359,-0.6977,-0.6766,-0.6766,-0.6603,-0.6495,-0.6495,-0.6282,-0.6178,-0.6178,-0.6178,-0.6105,-0.5956,-0.5901,-0.5587,-0.507,-0.5051,-0.4872,-0.469,-0.4495,-0.4514,-0.4564,-0.4367,-0.43,-0.43,-2.0749,-2.0699,-2.0699,-2.0699,-2.0699,-2.0182,-1.8602,-1.8387,-1.8127,-1.739,-1.749,-1.7545,-1.7334,-1.7278,-1.7278,-1.7278,-1.7278,-1.7278,-1.7278,-1.7278,-1.7278,-1.7278,-1.7278,-1.7278,-1.7278,-1.7278,-1.7278,-1.7278,-1.7278,-1.7278,-1.7278,-1.6987,-1.6807,-1.6807,-1.6114,-1.5584,-1.5235,-1.4746,-1.4332,-1.3983,-1.3752,-1.364,-1.3631,-1.3571,-1.3511,-1.345,-1.3216,-1.3164,-1.3103,-1.292,-1.2797,-1.2744,-1.2744,-1.2683,-1.2621,-1.2621,-1.2621,-1.2469,-1.1686,-1.132,-1.1042,-1.0633,-1.0522,-1.0522,-1.0522,-1.0522,-1.0257,-0.9368,-0.9211,-0.8949,-0.8062,-0.7901,-0.7901,-0.7901,-0.7901,-0.7901,-0.7901,-0.7901,-0.7901,-0.7901,-0.7901,-0.7901,-0.7901,-0.7901,-0.7901,-0.7901,-0.7901,-0.7901,-0.7901,-0.7735,-0.7628,-0.7628,-0.7461,-0.7359,-0.7359,-0.7025,-0.681,-0.681,-0.6603,-0.65,-0.65,-0.6228,-0.6009,-0.5736,-0.5466,-0.4947,-0.4333,-0.4376,-0.4197,-0.4007,-0.4045,-0.4134,-0.4246,-0.4287,-0.43,-0.43,-2.0799,-2.0699,-2.0699,-2.0699,-2.0699,-2.0699,-2.0699,-2.0699,-1.9862,-1.759,-1.7963,-1.8116,-1.739,-1.7278,-1.7278,-1.7278,-1.7278,-1.7278,-1.7278,-1.7278,-1.7278,-1.7278,-1.7278,-1.7278,-1.7278,-1.7278,-1.7278,-1.7278,-1.7278,-1.7278,-1.7278,-1.7278,-1.7278,-1.7278,-1.6807,-1.657,-1.6513,-1.5584,-1.5225,-1.5118,-1.43,-1.401,-1.395,-1.364,-1.3511,-1.3511,-1.3511,-1.3511,-1.3511,-1.3511,-1.3277,-1.2989,-1.2989,-1.2805,-1.2621,-1.2621,-1.2621,-1.2469,-1.1686,-1.1487,-1.1328,-1.0697,-1.0522,-1.0522,-1.0522,-1.0522,-1.0257,-0.9368,-0.9211,-0.8949,-0.8062,-0.7901,-0.7901,-0.7901,-0.7901,-0.7901,-0.7901,-0.7901,-0.7901,-0.7901,-0.7901,-0.7901,-0.7901,-0.7901,-0.7901,-0.7901,-0.7901,-0.7901,-0.7901,-0.7901,-0.7901,-0.7901,-0.7901,-0.7901,-0.7901,-0.7354,-0.7085,-0.7085,-0.7085,-0.7085,-0.7085,-0.6327,-0.6,-0.5946,-0.4728,-0.4177,-0.4177,-0.3747,-0.3707,-0.3823,-0.3887,-0.4009,-0.4132,-0.4257,-0.43,-0.43,-2.0799,-2.0699,-2.0699,-2.0699,-2.0699,-2.0699,-2.0699,-2.0699,-2.0233,-1.9004,-1.8578,-1.8267,-1.7897,-1.7534,-1.7278,-1.7278,-1.7278,-1.7278,-1.7278,-1.7278,-1.7278,-1.7278,-1.7278,-1.7278,-1.7278,-1.7278,-1.7278,-1.7278,-1.7278,-1.7278,-1.7278,-1.7278,-1.7278,-1.7278,-1.7155,-1.692,-1.657,-1.6285,-1.5989,-1.5642,-1.5059,-1.4824,-1.4824,-1.4369,-1.4198,-1.4198,-1.395,-1.3821,-1.3821,-1.3571,-1.345,-1.3338,-1.3042,-1.2805,-1.2621,-1.2621,-1.2621,-1.2517,-1.1988,-1.1678,-1.1328,-1.0697,-1.0522,-1.0522,-1.0522,-1.0522,-1.0257,-0.9368,-0.9211,-0.8949,-0.8062,-0.7901,-0.7901,-0.7901,-0.7901,-0.7901,-0.7901,-0.7901,-0.7901,-0.7901,-0.7901,-0.7901,-0.7901,-0.7901,-0.7901,-0.7901,-0.7901,-0.7901,-0.7901,-0.7901,-0.7901,-0.7901,-0.7901,-0.7901,-0.7901,-0.7574,-0.7354,-0.7354,-0.6756,-0.648,-0.6426,-0.5828,-0.534,-0.5073,-0.4684,-0.4353,-0.4073,-0.391,-0.3934,-0.4121,-0.4189,-0.4258,-0.4263,-0.4449,-0.4431,-0.43,-2.1033,-2.0997,-2.0997,-2.0997,-2.0997,-2.0997,-2.0997,-2.0947,-2.0623,-1.9812,-1.9359,-1.8939,-1.8578,-1.8224,-1.7909,-1.7634,-1.7434,-1.7278,-1.7278,-1.7278,-1.7278,-1.7278,-1.7278,-1.7278,-1.7278,-1.7278,-1.7278,-1.7278,-1.7278,-1.7278,-1.7278,-1.7278,-1.7278,-1.7278,-1.7278,-1.7155,-1.6864,-1.6684,-1.6457,-1.6171,-1.57,-1.5468,-1.5468,-1.5137,-1.5079,-1.502,-1.4597,-1.4469,-1.4419,-1.4001,-1.37,-1.345,-1.3103,-1.2805,-1.2621,-1.2621,-1.2621,-1.248,-1.2115,-1.186,-1.1535,-1.0852,-1.0574,-1.0522,-1.0522,-1.0522,-1.0308,-0.9569,-0.9465,-0.9204,-0.8315,-0.8162,-0.8109,-0.7955,-0.7901,-0.7901,-0.7901,-0.7901,-0.7901,-0.7901,-0.7901,-0.7901,-0.7901,-0.7901,-0.7901,-0.7901,-0.7901,-0.7901,-0.7901,-0.7901,-0.7901,-0.7901,-0.7901,-0.7901,-0.7901,-0.7735,-0.7681,-0.7628,-0.6918,-0.6534,-0.6534,-0.5605,-0.5113,-0.4846,-0.4577,-0.4245,-0.4024,-0.4024,-0.4073,-0.4161,-0.4293,-0.4275,-0.4303,-0.4429,-0.4381,-0.4295,-2.1423,-2.1423,-2.1423,-2.1423,-2.1423,-2.1423,-2.1375,-2.1277,-2.0908,-2.0206,-2.0169,-1.9978,-1.9331,-1.9226,-1.891,-1.8255,-1.7744,-1.7434,-1.739,-1.7379,-1.7334,-1.7278,-1.7278,-1.7278,-1.7278,-1.7278,-1.7278,-1.7278,-1.7278,-1.7278,-1.7278,-1.7278,-1.7278,-1.7278,-1.7278,-1.7278,-1.7278,-1.6864,-1.6684,-1.6637,-1.6161,-1.5989,-1.5931,-1.5931,-1.5874,-1.5816,-1.541,-1.5284,-1.5177,-1.4734,-1.413,-1.3511,-1.3164,-1.2928,-1.2683,-1.2683,-1.2683,-1.261,-1.2214,-1.2043,-1.186,-1.1201,-1.078,-1.0561,-1.053,-1.0522,-1.036,-0.9925,-0.9762,-0.9503,-0.8732,-0.8573,-0.8421,-0.7955,-0.7901,-0.7901,-0.7901,-0.7901,-0.7901,-0.7901,-0.7901,-0.7901,-0.7901,-0.7901,-0.7901,-0.7901,-0.7901,-0.7901,-0.7901,-0.7901,-0.7901,-0.7901,-0.7901,-0.7901,-0.7901,-0.7901,-0.7901,-0.7848,-0.73,-0.6972,-0.6918,-0.5601,-0.5054,-0.4999,-0.4349,-0.4021,-0.4021,-0.4021,-0.4021,-0.4036,-0.4174,-0.4229,-0.4244,-0.4258,-0.4258,-0.4296,-2.1423,-2.1423,-2.1423,-2.1423,-2.1423,-2.1375,-2.1277,-2.1229,-2.1082,-2.0822,-2.0446,-2.008,-1.9837,-1.9436,-1.9081,-1.8815,-1.8721,-1.8452,-1.7941,-1.7941,-1.7744,-1.7334,-1.7278,-1.7278,-1.7278,-1.7278,-1.7278,-1.7278,-1.7278,-1.7278,-1.7278,-1.7278,-1.7278,-1.7278,-1.7278,-1.7278,-1.7278,-1.7211,-1.7155,-1.7099,-1.6637,-1.6457,-1.64,-1.6046,-1.5874,-1.5874,-1.5758,-1.5758,-1.57,-1.5235,-1.4529,-1.3881,-1.383,-1.358,-1.3268,-1.3268,-1.3268,-1.3252,-1.2882,-1.2592,-1.2215,-1.1551,-1.113,-1.0812,-1.0585,-1.0522,-1.036,-0.9925,-0.9562,-0.9204,-0.8679,-0.8315,-0.8002,-0.7901,-0.7901,-0.7901,-0.7901,-0.7901,-0.7901,-0.7901,-0.7901,-0.7901,-0.7901,-0.7901,-0.7901,-0.7901,-0.7901,-0.7901,-0.7901,-0.7901,-0.7901,-0.7901,-0.7901,-0.7901,-0.7901,-0.7901,-0.7681,-0.7246,-0.6696,-0.6154,-0.566,-0.4952,-0.4625,-0.4625,-0.446,-0.4408,-0.4408,-0.4408,-0.4408,-0.4421,-0.4515,-0.4513,-0.4354,-0.4496,-0.4442,-0.4402,-2.1423,-2.1423,-2.1423,-2.1423,-2.1423,-2.1375,-2.1326,-2.1277,-2.1277,-2.118,-2.0957,-2.0696,-2.061,-2.0308,-2.0003,-1.9592,-1.9331,-1.9016,-1.8632,-1.8632,-1.8483,-1.8139,-1.8139,-1.8139,-1.8139,-1.7854,-1.7534,-1.7278,-1.7278,-1.7278,-1.7278,-1.7278,-1.7278,-1.7278,-1.7278,-1.7278,-1.7278,-1.7278,-1.7278,-1.7278,-1.7043,-1.692,-1.692,-1.6684,-1.657,-1.6513,-1.6332,-1.6104,-1.5874,-1.5642,-1.5177,-1.4656,-1.4656,-1.4282,-1.3855,-1.3855,-1.3683,-1.345,-1.3277,-1.3134,-1.2839,-1.2356,-1.1824,-1.1315,-1.0641,-1.0522,-1.0411,-1.019,-0.9991,-0.9629,-0.8995,-0.8685,-0.8374,-0.7955,-0.7901,-0.7901,-0.7901,-0.7901,-0.7901,-0.7901,-0.7901,-0.7901,-0.7901,-0.7901,-0.7901,-0.7901,-0.7901,-0.7901,-0.7901,-0.7901,-0.7901,-0.7901,-0.7901,-0.7901,-0.7901,-0.7901,-0.7628,-0.7085,-0.6756,-0.648,-0.6154,-0.5281,-0.4897,-0.4846,-0.4625,-0.4519,-0.4519,-0.4519,-0.4519,-0.4525,-0.4551,-0.4522,-0.4418,-0.4439,-0.4392,-0.4336,-2.1423,-2.1423,-2.1423,-2.1423,-2.1423,-2.1423,-2.1423,-2.1423,-2.1423,-2.1423,-2.1423,-2.1375,-2.1229,-2.118,-2.0921,-2.0396,-1.994,-1.9579,-1.9384,-1.9384,-1.9279,-1.9093,-1.9093,-1.9093,-1.9093,-1.8536,-1.8007,-1.7434,-1.7323,-1.7278,-1.7278,-1.7278,-1.7278,-1.7278,-1.7278,-1.7278,-1.7278,-1.7278,-1.7278,-1.7278,-1.7278,-1.7278,-1.7278,-1.7278,-1.7278,-1.7278,-1.6864,-1.64,-1.6046,-1.6046,-1.5758,-1.5468,-1.5468,-1.4991,-1.4382,-1.4382,-1.4043,-1.364,-1.3571,-1.3571,-1.3485,-1.3124,-1.2518,-1.1779,-1.0858,-1.0561,-1.0522,-1.0522,-1.0368,-1.0051,-0.9316,-0.9054,-0.8738,-0.8002,-0.7901,-0.7901,-0.7901,-0.7901,-0.7901,-0.7901,-0.7901,-0.7901,-0.7901,-0.7901,-0.7901,-0.7901,-0.7901,-0.7901,-0.7901,-0.7901,-0.7901,-0.7901,-0.7901,-0.7901,-0.7901,-0.7901,-0.7681,-0.7246,-0.7246,-0.7139,-0.6918,-0.5932,-0.5445,-0.5441,-0.5007,-0.4791,-0.4791,-0.4791,-0.4736,-0.4625,-0.4625,-0.457,-0.4463,-0.4301,-0.4266,-0.4265,-2.1423,-2.1423,-2.1423,-2.1423,-2.1423,-2.1423,-2.1423,-2.1423,-2.1423,-2.1423,-2.1423,-2.1375,-2.1229,-2.1082,-2.0983,-2.0885,-2.0835,-2.0573,-2.0093,-2.008,-1.9825,-1.9384,-1.9319,-1.9319,-1.9319,-1.9174,-1.8697,-1.7995,-1.7534,-1.7278,-1.7278,-1.7278,-1.7278,-1.7278,-1.7278,-1.7278,-1.7278,-1.7278,-1.7278,-1.7278,-1.7278,-1.7278,-1.7278,-1.7278,-1.7278,-1.7278,-1.7222,-1.692,-1.6513,-1.6513,-1.6228,-1.5816,-1.5816,-1.5468,-1.505,-1.505,-1.4715,-1.4327,-1.401,-1.395,-1.3793,-1.3132,-1.2518,-1.19,-1.1477,-1.0938,-1.0522,-1.0522,-0.9888,-0.9316,-0.9211,-0.8586,-0.8062,-0.7901,-0.7901,-0.7901,-0.7901,-0.7901,-0.7901,-0.7901,-0.7901,-0.7901,-0.7901,-0.7901,-0.7901,-0.7901,-0.7901,-0.7901,-0.7901,-0.7901,-0.7901,-0.7901,-0.7901,-0.7901,-0.7901,-0.7901,-0.7848,-0.7794,-0.7794,-0.73,-0.6317,-0.6154,-0.61,-0.61,-0.5991,-0.5991,-0.5991,-0.5991,-0.566,-0.5171,-0.5171,-0.4897,-0.4519,-0.4463,-0.4477,-0.4438,-2.254,-2.2203,-2.1921,-2.1841,-2.1616,-2.1423,-2.1423,-2.1423,-2.1423,-2.1423,-2.1423,-2.1375,-2.1326,-2.1277,-2.1229,-2.1229,-2.1229,-2.1068,-2.0759,-2.0759,-2.061,-2.0308,-2.0308,-2.0308,-2.0308,-1.994,-1.9619,-1.9294,-1.859,-1.8073,-1.7744,-1.7744,-1.7744,-1.7733,-1.7434,-1.7479,-1.7744,-1.7434,-1.7278,-1.7278,-1.7278,-1.7278,-1.7278,-1.7278,-1.7278,-1.7278,-1.7278,-1.7166,-1.6987,-1.6987,-1.6864,-1.6684,-1.6684,-1.6161,-1.5584,-1.5584,-1.5079,-1.4446,-1.4327,-1.4267,-1.4222,-1.3933,-1.3129,-1.2465,-1.2301,-1.1486,-1.0667,-1.0522,-0.9991,-0.9465,-0.9263,-0.8685,-0.8215,-0.7955,-0.7901,-0.7901,-0.7901,-0.7901,-0.7901,-0.7901,-0.7901,-0.7901,-0.7901,-0.7901,-0.7901,-0.7901,-0.7901,-0.7901,-0.7901,-0.7901,-0.7901,-0.7901,-0.7901,-0.7901,-0.7901,-0.7901,-0.7901,-0.7901,-0.7901,-0.7628,-0.7133,-0.6864,-0.6701,-0.6701,-0.6372,-0.6209,-0.6209,-0.6209,-0.5828,-0.5277,-0.5277,-0.4952,-0.4519,-0.4519,-0.4519,-0.4519]},{"header":{"parameterUnit":"m.s-1","parameterCategory":1,"la1":30.6,"la2":28.766,"lo1":-90.7593,"lo2":-88.6598,"dy":0.0162,"dx":0.0183,"nx":116,"ny":114,"refTime":"2024-06-22T18:00:00:Z","depth":0,"parameterNumber":3,"parameterNumberName":"V-component_of_WINDS"},"data":[0.0,0.0,0.0,0.0,0.0,0.0,0.0,0.0,0.0,0.0,0.0,0.0,0.0,0.0,0.0,0.0,0.0,0.0,0.0,0.0,0.0,0.0,0.0,0.0,0.0,0.0,0.0,0.0,0.0,0.0,0.0,0.0,0.0,0.0,0.0,0.0,0.0,0.0,0.0,0.0,0.0,0.0,0.0,0.0,0.0,0.0,0.0,0.0,0.0,0.0,0.0,0.0,0.0,0.0,0.0,0.0,0.0,0.0,0.0,0.0,0.0,0.0,0.0,0.0,0.0,0.0,0.0,0.0,0.0,0.0,0.0,0.0,0.0,0.0,0.0,0.0,0.0,0.0,0.0,0.0,0.0,0.0,0.0,0.0,0.0,0.0,0.0,0.0,0.0,0.0,0.0,0.0,0.0,0.0,0.0,0.0,0.0,0.0,0.0,0.0,0.0,0.0,0.0,0.0,0.0,0.0,0.0,0.0,0.0,0.0,0.0,0.0,0.0,0.0,0.0,0.0,0.0,0.0,0.0,0.0,0.0,0.0,0.0,0.0,0.0,0.0,0.0,0.0,0.0,0.0,0.0,0.0,0.0,0.0,0.0,0.0,0.0,0.0,0.0,0.0,0.0,0.0,0.0,0.0,0.0,0.0,0.0,0.0,0.0,0.0,0.0,0.0,0.0,0.0,0.0,0.0,0.0,0.0,0.0,0.0,0.0,0.0,0.0,0.0,0.0,0.0,0.0,0.0,0.0,0.0,0.0,0.0,0.0,0.0,0.0,0.0,0.0,0.0,0.0,0.0,0.0,0.0,0.0,0.0,0.0,0.0,0.0,0.0,0.0,0.0,0.0,0.0,0.0,0.0,0.0,0.0,0.0,0.0,0.0,0.0,0.0,0.0,0.0,0.0,0.0,0.0,0.0,0.0,0.0,0.0,0.0,0.0,0.0,0.0,0.0,0.0,0.0,0.0,0.0,0.0,0.0,0.0,0.0,0.0,0.0,0.0,0.0,0.0,0.0,0.0,0.0,0.0,0.0,0.0,0.0,0.0,0.0,0.0,0.0,0.0,0.0,0.0,0.0,0.0,0.0,0.0,0.0,0.0,0.0,0.0,0.0,0.0,0.0,0.0,0.0,0.0,0.0,0.0,0.0,0.0,0.0,0.0,0.0,0.0,0.0,0.0,0.0,0.0,0.0,0.0,0.0,0.0,0.0,0.0,0.0,0.0,0.0,0.0,0.0,0.0,0.0,0.0,0.0,0.0,0.0,0.0,0.0,0.0,0.0,0.0,0.0,0.0,0.0,0.0,0.0,0.0,0.0,0.0,0.0,0.0,0.0,0.0,0.0,0.0,0.0,0.0,0.0,0.0,0.0,0.0,0.0,0.0,0.0,0.0,0.0,0.0,0.0,0.0,0.0,0.0,0.0,0.0,0.0,0.0,0.0,0.0,0.0,0.0,0.0,0.0,0.0,0.0,0.0,0.0,0.0,0.0,0.0,0.0,0.0,0.0,0.0,0.0,0.0,0.0,0.0,0.0,0.0,0.0,0.0,0.0,0.0,0.0,0.0,0.0,0.0,0.0,0.0,0.0,0.0,0.0,0.0,0.0,0.0,0.0,0.0,0.0,0.0,0.0,0.0,0.0,0.0,0.0,0.0,0.0,0.0,0.0,0.0,0.0,0.0,0.0,0.0,0.0,0.0,0.0,0.0,0.0,0.0,0.0,0.0,0.0,0.0,0.0,0.0,0.0,0.0,0.0,0.0,0.0,0.0,0.0,0.0,0.0,0.0,0.0,0.0,0.0,0.0,0.0,0.0,0.0,0.0,0.0,0.0,0.0,0.0,0.0,0.0,0.0,0.0,0.0,0.0,0.0,0.0,0.0,0.0,0.0,0.0,0.0,0.0,0.0,0.0,0.0,0.0,0.0,0.0,0.0,0.0,0.0,0.0,0.0,0.0,0.0,0.0,0.0,0.0,0.0,0.0,0.0,0.0,0.0,0.0,0.0,0.0,0.0,0.0,0.0,0.0,0.0,0.0,0.0,0.0,0.0,0.0,0.0,0.0,0.0,0.0,0.0,0.0,0.0,0.0,0.0,0.0,0.0,0.0,0.0,0.0,0.0,0.0,0.0,0.0,0.0,0.0,0.0,0.0,0.0,0.0,0.0,0.0,0.0,0.0,0.0,0.0,0.0,0.0,0.0,0.0,0.0,0.0,0.0,0.0,0.0,0.0,0.0,0.0,0.0,0.0,0.0,0.0,0.0,0.0,0.0,0.0,0.0,0.0,0.0,0.0,0.0,0.0,0.0,0.0,0.0,0.0,0.0,0.0,0.0,0.0,0.0,0.0,0.0,0.0,0.0,0.0,0.0,0.0,0.0,0.0,0.0,0.0,0.0,0.0,0.0,0.0,0.0,0.0,0.0,0.0,0.0,0.0,0.0,0.0,0.0,0.0,0.0,0.0,0.0,0.0,0.0,0.0,0.0,0.0,0.0,0.0,0.0,0.0,0.0,0.0,0.0,0.0,0.0,0.0,0.0,0.0,0.0,0.0,0.0,0.0,0.0,0.0,0.0,0.0,0.0,0.0,0.0,0.0,0.0,0.0,0.0,0.0,0.0,0.0,0.0,0.0,0.0,0.0,0.0,0.0,0.0,0.0,0.0,0.0,0.0,0.0,0.0,0.0,0.0,0.0,0.0,0.0,0.0,0.0,0.0,0.0,0.0,0.0,0.0,0.0,0.0,0.0,0.0,0.0,0.0,0.0,0.0,0.0,0.0,0.0,0.0,0.0,0.0,0.0,0.0,0.0,0.0,0.0,0.0,0.0,0.0,0.0,0.0,0.0,0.0,0.0,0.0,0.0,0.0,0.0,0.0,0.0,0.0,0.0,0.0,0.0,0.0,0.0,0.0,0.0,0.0,0.0,0.0,0.0,0.0,0.0,0.0,0.0,0.0,0.0,0.0,0.0,0.0,0.0,0.0,0.0,0.0,0.0,0.0,0.0,0.0,0.0,0.0,0.0,0.0,0.0,0.0,0.0,0.0,0.0,0.0,0.0,0.0,0.0,0.0,0.0,0.0,0.0,0.0,0.0,0.0,0.0,0.0,0.0,0.0,0.0,0.0,0.0,0.0,0.0,0.0,0.0,0.0,0.0,0.0,0.0,0.0,0.0,0.0,0.0,0.0,0.0,0.0,0.0,0.0,0.0,0.0,0.0,0.0,0.0,0.0,0.0,0.0,0.0,0.0,0.0,0.0,0.0,0.0,0.0,0.0,0.0,0.0,0.0,0.0,0.0,0.0,0.0,0.0,0.0,0.0,0.0,0.0,0.0,0.0,0.0,0.0,0.0,0.0,0.0,0.0,0.0,0.0,0.0,0.0,0.0,0.0,0.0,0.0,0.0,0.0,0.0,0.0,0.0,0.0,0.0,0.0,0.0,0.0,0.0,0.0,0.0,0.0,0.0,0.0,0.0,0.0,0.0,0.0,0.0,0.0,0.0,0.0,0.0,0.0,0.0,0.0,0.0,0.0,0.0,0.0,0.0,0.0,0.0,0.0,0.0,0.0,0.0,0.0,0.0,0.0,0.0,0.0,0.0,0.0,0.0,0.0,0.0,0.0,0.0,0.0,0.0,0.0,0.0,0.0,0.0,0.0,0.0,0.0,0.0,0.0,0.0,0.0,0.0,0.0,0.0,0.0,0.0,0.0,0.0,0.0,0.0,0.0,0.0,0.0,0.0,0.0,0.0,0.0,0.0,0.0,0.0,0.0,0.0,0.0,0.0,0.0,0.0,0.0,0.0,0.0,0.0,0.0,0.0,0.0,0.0,0.0,0.0,0.0,0.0,0.0,0.0,0.0,0.0,0.0,0.0,0.0,0.0,0.0,0.0,0.0,0.0,0.0,0.0,0.0,0.0,0.0,0.0,0.0,0.0,0.0,0.0,0.0,0.0,0.0,0.0,0.0,0.0,0.0,0.0,0.0,0.0,0.0,0.0,0.0,0.0,0.0,0.0,0.0,0.0,0.0,0.0,0.0,0.0,0.0,0.0,0.0,0.0,0.0,0.0,0.0,0.0,0.0,0.0,0.0,0.0,0.0,0.0,0.0,0.0,0.0,0.0,0.0,0.0,0.0,0.0,0.0,0.0,0.0,0.0,0.0,0.0,0.0,0.0,0.0,0.0,0.0,0.0,0.0,0.0,0.0,0.0,0.0,0.0,0.0,0.0,0.0,0.0,0.0,0.0,0.0,0.0,0.0,0.0,0.0,0.0,0.0,0.0,0.0,0.0,0.0,0.0,0.0,0.0,0.0,0.0,0.0,0.0,0.0,0.0,0.0,0.0,0.0,0.0,0.0,0.0,0.0,0.0,0.0,0.0,0.0,0.0,0.0,0.0,0.0,0.0,0.0,0.0,0.0,0.0,0.0,0.0,0.0,0.0,0.0,0.0,0.0,0.0,0.0,0.0,0.0,0.0,0.0,0.0,0.0,0.0,0.0,0.0,0.0,0.0,0.0,0.0,0.0,0.0,0.0,0.0,0.0,0.0,0.0,0.0,0.0,0.0,0.0,0.0,0.0,0.0,0.0,0.0,0.0,0.0,0.0,0.0,0.0,0.0,0.0,0.0,0.0,0.0,0.0,0.0,0.0,0.0,0.0,0.0,0.0,0.0,0.0,0.0,0.0,0.0,0.0,0.0,0.0,0.0,0.0,0.0,0.0,0.0,0.0,0.0,0.0,0.0,0.0,0.0,0.0,0.0,0.0,0.0,0.0,0.0,0.0,0.0,0.0,0.0,0.0,0.0,0.0,0.0,0.0,0.0,0.0,0.0,0.0,0.0,0.0,0.0,0.0,0.0,0.0,0.0,0.0,0.0,0.0,0.0,0.0,0.0,0.0,0.0,0.0,0.0,0.0,0.0,0.0,0.0,0.0,0.0,0.0,0.0,0.0,0.0,0.0,0.0,0.0,0.0,0.0,0.0,0.0,0.0,0.0,0.0,0.0,0.0,0.0,0.0,0.0,0.0,0.0,0.0,0.0,0.0,0.0,0.0,0.0,0.0,0.0,0.0,0.0,0.0,0.0,0.0,0.0,0.0,0.0,0.0,0.0,0.0,0.0,0.0,0.0,0.0,0.0,0.0,0.0,0.0,0.0,0.0,0.0,0.0,0.0,0.0,0.0,0.0,0.0,0.0,0.0,0.0,0.0,0.0,0.0,0.0,0.0,0.0,0.0,0.0,0.0,0.0,0.0,0.0,0.0,0.0,0.0,0.0,0.0,0.0,0.0,0.0,0.0,0.0,0.0,0.0,0.0,0.0,0.0,0.0,0.0,0.0,0.0,0.0,0.0,0.0,0.0,0.0,0.0,0.0,0.0,0.0,0.0,0.0,0.0,0.0,0.0,0.0,0.0,0.0,0.0,0.0,0.0,0.0,0.0,0.0,0.0,0.0,0.0,0.0,0.0,0.0,0.0,0.0,0.0,0.0,0.0,0.0,0.0,0.0,0.0,0.0,0.0,0.0,0.0,0.0,0.0,0.0,0.0,0.0,0.0,0.0,0.0,0.0,0.0,0.0,0.0,0.0,0.0,0.0,0.0,0.0,0.0,0.0,0.0,0.0,0.0,0.0,0.0,0.0,0.0,0.0,0.0,0.0,0.0,0.0,0.0,0.0,0.0,0.0,0.0,0.0,0.0,0.0,0.0,0.0,0.0,0.0,0.0,0.0,0.0,0.0,0.0,0.0,0.0,0.0,0.0,0.0,0.0,0.0,0.0,0.0,0.0,0.0,0.0,0.0,0.0,0.0,0.0,0.0,0.0,0.0,0.0,0.0,0.0,0.0,0.0,0.0,0.0,0.0,0.0,0.0,0.0,0.0,0.0,0.0,0.0,0.0,0.0,0.0,0.0,0.0,0.0,0.0,0.0,0.0,0.0,0.0,0.0,0.0,0.0,0.0,0.0,0.0,0.0,0.0,0.0,0.0,0.0,0.0,0.0,0.0,0.0,0.0,0.0,0.0,0.0,0.0,0.0,0.0,0.0,0.0,0.0,0.0,0.0,0.0,0.0,0.0,0.0,0.0,0.0,0.0,0.0,0.0,0.0,0.0,0.0,0.0,0.0,-2.225,0.0,0.0,0.0,0.0,0.0,0.0,0.0,0.0,0.0,0.0,0.0,0.0,0.0,0.0,0.0,0.0,0.0,0.0,0.0,0.0,0.0,0.0,0.0,0.0,-1.0196,-1.0196,-1.0196,-1.0208,-1.0194,-1.0205,-1.019,0.0,0.0,-1.0234,-1.0242,-1.0242,-1.0286,-1.0484,-1.0873,-1.0873,-1.1515,-1.2742,-1.2754,-1.2306,-1.1495,0.0,0.0,0.0,0.0,0.0,0.0,0.0,0.0,0.0,0.0,0.0,0.0,0.0,0.0,0.0,0.0,0.0,0.0,0.0,0.0,0.0,0.0,0.0,0.0,0.0,0.0,0.0,0.0,0.0,0.0,0.0,0.0,0.0,0.0,0.0,0.0,0.0,0.0,0.0,0.0,0.0,0.0,0.0,0.0,0.0,0.0,0.0,0.0,0.0,0.0,0.0,0.0,0.0,0.0,0.0,0.0,0.0,0.0,0.0,0.0,0.0,0.0,0.0,0.0,0.0,0.0,0.0,0.0,0.0,0.0,0.0,-2.4238,0.0,0.0,0.0,0.0,0.0,0.0,0.0,0.0,0.0,0.0,0.0,0.0,0.0,0.0,0.0,0.0,0.0,0.0,0.0,0.0,0.0,-0.843,-1.0022,-1.0199,-1.0199,-1.0199,-1.02,-1.0205,-1.0191,-1.0198,-1.0207,-1.0195,-1.0211,-1.0217,-1.0217,-1.0401,-1.0912,-1.1729,-1.2177,-1.3229,-1.4808,-1.5665,-1.5371,-1.4126,-1.3522,0.0,0.0,0.0,0.0,0.0,0.0,0.0,0.0,0.0,0.0,0.0,0.0,0.0,0.0,0.0,0.0,0.0,0.0,0.0,0.0,0.0,0.0,0.0,0.0,0.0,0.0,0.0,0.0,0.0,0.0,0.0,0.0,0.0,0.0,0.0,0.0,0.0,0.0,0.0,0.0,0.0,0.0,0.0,0.0,0.0,0.0,0.0,0.0,0.0,0.0,0.0,0.0,0.0,0.0,0.0,0.0,0.0,0.0,0.0,0.0,0.0,0.0,0.0,-3.2732,-3.359,-3.4291,-3.4291,-3.4291,-3.4096,-3.0472,-2.8992,-2.8933,-2.6673,0.0,0.0,0.0,0.0,0.0,0.0,0.0,0.0,0.0,0.0,0.0,0.0,0.0,0.0,0.0,0.0,0.0,0.0,0.0,-0.9107,-1.008,-1.0205,-1.0208,-1.0208,-1.0191,-1.0194,-1.0191,-1.0207,-1.0198,-1.0195,-1.0258,-1.0287,-1.0287,-1.0989,-1.1768,-1.2625,-1.4903,-1.652,-1.7494,-1.832,-1.8983,-1.937,-1.6386,-1.4981,-1.4844,0.0,0.0,0.0,0.0,0.0,0.0,0.0,0.0,0.0,0.0,0.0,0.0,0.0,0.0,0.0,0.0,0.0,0.0,0.0,0.0,0.0,0.0,0.0,0.0,0.0,0.0,0.0,0.0,0.0,0.0,0.0,0.0,0.0,0.0,0.0,0.0,0.0,0.0,0.0,0.0,0.0,-1.697,-1.9526,0.0,0.0,0.0,0.0,0.0,0.0,0.0,0.0,0.0,0.0,0.0,0.0,0.0,-3.0843,-3.2362,-3.4155,-3.5109,-3.5246,-3.6883,-3.772,-3.7837,-3.7837,-3.7837,-3.7798,-3.7214,0.0,-3.2635,-3.1549,0.0,0.0,0.0,0.0,0.0,0.0,0.0,0.0,0.0,0.0,0.0,0.0,0.0,0.0,0.0,0.0,0.0,0.0,0.0,0.0,0.0,-1.0644,-1.0924,-1.0936,-1.1372,-1.1455,-1.0958,-1.093,-1.0723,-1.0275,-1.0284,-1.0503,-1.095,-1.1807,-1.3385,-1.5721,-1.7801,-1.928,-2.0146,-2.0999,-2.16,-2.19,-2.0399,-1.8665,-1.6792,-1.5935,0.0,0.0,0.0,0.0,0.0,0.0,0.0,0.0,0.0,0.0,0.0,0.0,0.0,0.0,0.0,0.0,0.0,0.0,0.0,0.0,0.0,0.0,0.0,0.0,0.0,0.0,0.0,0.0,0.0,0.0,0.0,0.0,0.0,0.0,0.0,0.0,0.0,0.0,0.0,-1.7385,-1.9971,-2.1104,-2.1338,-2.1201,0.0,0.0,0.0,0.0,0.0,0.0,0.0,0.0,0.0,-3.283,-3.3414,-3.4272,-3.5519,-3.772,-3.8811,-3.8831,-4.0545,-4.1364,-4.1364,-4.1364,-4.1364,-4.1364,-4.1364,-4.0526,-3.8889,-3.5597,-3.3785,-3.2927,0.0,0.0,0.0,0.0,-3.094,-3.0804,0.0,0.0,0.0,0.0,0.0,0.0,0.0,0.0,0.0,0.0,0.0,0.0,-1.0447,-1.1112,-1.1589,-1.1802,-1.2434,-1.2523,-1.1888,-1.1624,-1.1239,-1.0635,-1.0619,-1.0893,-1.1495,-1.3229,-1.5604,-1.8643,-2.0338,-2.1606,-2.2487,-2.3124,-2.3553,-2.377,-2.377,-2.2094,-1.9227,-1.8139,-1.6795,-1.5236,0.0,0.0,0.0,0.0,0.0,0.0,0.0,0.0,0.0,0.0,0.0,0.0,0.0,0.0,0.0,0.0,0.0,0.0,0.0,0.0,0.0,0.0,0.0,0.0,0.0,0.0,0.0,0.0,0.0,0.0,0.0,0.0,0.0,0.0,0.0,0.0,0.0,-2.0308,-2.2543,-2.2776,-2.3945,-2.4316,0.0,0.0,0.0,0.0,0.0,0.0,-3.1934,-3.2109,-3.3375,-3.6181,-3.6883,-3.7759,-3.8831,-4.0779,-4.1734,-4.1753,-4.3,-4.3598,-4.3598,-4.3598,-4.3598,-4.3598,-4.3598,-4.3598,-4.3286,-3.9221,-3.7428,-3.7058,-3.5363,-3.4934,-3.5265,-3.5265,-3.4895,-3.4681,0.0,0.0,0.0,0.0,0.0,0.0,0.0,0.0,0.0,0.0,0.0,-1.0467,-1.1337,-1.1463,-1.1829,-1.2667,-1.2778,-1.2783,-1.2747,-1.1968,-1.1482,-1.1443,-1.1431,-1.1456,-1.1495,-1.5604,-1.8607,-2.0363,-2.2117,-2.3423,-2.4277,-2.4316,-2.4783,-2.5563,-2.5563,-2.4549,-2.2737,-2.1026,-1.9779,-1.8727,-1.621,0.0,0.0,0.0,0.0,0.0,0.0,0.0,0.0,0.0,0.0,0.0,0.0,0.0,0.0,0.0,0.0,0.0,0.0,0.0,0.0,0.0,0.0,0.0,0.0,0.0,0.0,0.0,0.0,0.0,0.0,0.0,0.0,0.0,0.0,0.0,0.0,0.0,0.0,-2.5407,-2.7686,0.0,0.0,0.0,0.0,-3.0409,-3.1291,-3.2908,-3.5519,-3.5636,-3.7214,-4.0662,-4.0818,-4.1617,-4.3247,-4.3403,-4.3461,-4.3481,-4.3559,-4.3598,-4.3598,-4.3598,-4.3598,-4.3598,-4.3598,-4.3598,-4.352,-4.2435,-4.1539,-4.0662,-3.8928,-3.7759,-3.7077,-3.7077,-3.7038,-3.7155,0.0,0.0,0.0,-0.5818,-0.6189,-0.6864,-0.8234,-0.8698,-0.9223,-1.008,-1.0699,-1.1144,-1.1473,-1.2955,-1.4078,-1.438,-1.4924,-1.5031,-1.4508,-1.3126,-1.258,-1.3145,-1.2643,-1.3639,-1.6408,-1.8529,-2.0731,-2.301,-2.3634,-2.4374,-2.5231,-2.5231,-2.5679,-2.6459,-2.5933,-2.564,-2.5407,-2.3127,-2.1669,-2.0656,-1.81,-1.6559,0.0,0.0,0.0,0.0,0.0,0.0,0.0,0.0,0.0,0.0,0.0,0.0,0.0,0.0,0.0,0.0,0.0,0.0,0.0,0.0,0.0,0.0,0.0,0.0,0.0,0.0,0.0,0.0,0.0,0.0,0.0,0.0,0.0,0.0,0.0,0.0,0.0,-2.8816,-3.0765,0.0,-3.1875,-3.2421,-3.3375,-3.4817,-3.5207,-3.6512,-3.9104,-3.926,-4.0312,-4.265,-4.2708,-4.3,-4.3578,-4.4169,-4.4442,-4.4442,-4.5007,-4.526,-4.526,-4.526,-4.526,-4.526,-4.526,-4.526,-4.5241,-4.4949,-4.4306,-4.3429,-4.2241,-4.1929,-4.2085,-4.1539,-4.1325,-4.1364,-0.4993,-0.5,0.0,-0.6241,-0.6634,-0.727,-0.8679,-0.9143,-0.9555,-1.0118,-1.0957,-1.1712,-1.2282,-1.4124,-1.5563,-1.6126,-1.6463,-1.6418,-1.5877,-1.4204,-1.3502,-1.4067,-1.4106,-1.584,-1.9564,-2.0773,-2.2367,-2.4394,-2.4978,-2.5543,-2.6108,-2.642,-2.6829,-2.7316,-2.679,-2.6848,-2.7238,-2.5543,-2.3984,-2.2484,-2.0205,-1.8938,-1.8198,0.0,0.0,0.0,0.0,0.0,0.0,0.0,0.0,0.0,0.0,0.0,0.0,0.0,0.0,0.0,0.0,0.0,0.0,0.0,0.0,0.0,0.0,0.0,0.0,0.0,0.0,0.0,0.0,0.0,0.0,0.0,0.0,0.0,0.0,0.0,-3.0278,-3.1135,-3.3531,-3.509,-3.5032,-3.5577,-3.6649,-3.8383,-3.8519,-3.9513,-4.1831,-4.1948,-4.2591,-4.3994,-4.4033,-4.4189,-4.4481,-4.5046,-4.5494,-4.5787,-4.6352,-4.678,-4.7072,-4.7072,-4.7072,-4.7072,-4.7072,-4.7072,-4.7072,-4.7072,-4.6741,-4.6059,-4.4618,-4.4384,-4.4793,-4.3916,-4.3598,-4.3598,-0.4993,-0.5,-0.53,-0.6261,-0.7077,-0.7906,-0.8795,-0.9651,-1.0196,-1.0196,-1.0972,-1.2155,-1.379,-1.4837,-1.6085,-1.7715,-1.7145,-1.6695,-1.6695,-1.5078,-1.4145,-1.4223,-1.5916,-1.8042,-2.0578,-2.227,-2.3575,-2.4471,-2.6108,-2.6907,-2.6965,-2.7803,-2.8212,-2.8251,-2.8212,-2.8212,-2.8251,-2.8212,-2.679,-2.4374,-2.262,-2.1903,-2.1607,0.0,0.0,0.0,0.0,0.0,0.0,0.0,0.0,0.0,0.0,0.0,0.0,0.0,0.0,0.0,0.0,0.0,0.0,0.0,0.0,0.0,0.0,0.0,0.0,0.0,0.0,0.0,0.0,0.0,0.0,0.0,0.0,0.0,-2.6011,-3.0278,-3.3181,-3.2387,-3.5986,-3.7915,-3.6298,-3.7642,-3.9337,-4.1091,-4.1188,-4.1909,-4.3546,-4.3637,-4.4033,-4.491,-4.4968,-4.5397,-4.6235,-4.6274,-4.6702,-4.754,-4.754,-4.7988,-4.8806,-4.8806,-4.8806,-4.8806,-4.8806,-4.8806,-4.8806,-4.8806,-4.8806,-4.8553,-4.6001,-4.5007,-4.4871,-4.4033,-4.3695,-4.3702,-0.4993,-0.5,-0.5473,-0.7012,-0.7461,-0.8101,-0.9613,-1.0041,-1.0196,-1.0196,-1.1476,-1.256,-1.3017,-1.4981,-1.646,-1.6918,-1.6765,-1.6645,-1.6695,-1.5078,-1.4942,-1.6851,-1.9152,-2.1315,-2.3283,-2.379,-2.4764,-2.6205,-2.6673,-2.7219,-2.7842,-2.8095,-2.8544,-2.9104,-2.8485,-2.8544,-2.9104,-2.8466,-2.7803,-2.7004,-2.5309,-2.4257,-2.3478,0.0,0.0,0.0,0.0,0.0,0.0,0.0,0.0,0.0,0.0,0.0,0.0,0.0,0.0,0.0,0.0,0.0,0.0,0.0,0.0,0.0,0.0,0.0,0.0,0.0,0.0,0.0,0.0,0.0,0.0,0.0,0.0,-3.1973,-3.0531,-3.3142,-3.5597,-3.661,-3.8344,-3.998,-4.1344,-4.1344,-4.1987,-4.3721,-4.3273,-4.339,-4.4481,-4.454,-4.4929,-4.5825,-4.6449,-4.6897,-4.7131,-4.7774,-4.8202,-4.8436,-4.8436,-4.8573,-4.8806,-4.8806,-4.8806,-4.8806,-4.8806,-4.8806,-4.8806,-4.8806,-4.8806,-4.8729,-4.8008,-4.7345,-4.6761,-4.6527,-4.602,-4.5572,-0.5005,-0.5294,-0.5982,-0.7352,-0.7895,-0.8612,-0.9983,-1.0196,-1.0196,-1.0196,-1.1673,-1.2873,-1.321,-1.5241,-1.6759,-1.7113,-1.6843,-1.6667,-1.6695,-1.6091,-1.6734,-1.8958,-2.1179,-2.2991,-2.4374,-2.5095,-2.5913,-2.6907,-2.7628,-2.8251,-2.8753,-2.9124,-2.9552,-3.002,-2.9513,-2.9572,-3.0,-2.9494,-2.9279,-2.9162,-2.7823,-2.6556,-2.5309,-2.3945,-2.2893,-2.1978,-2.0734,-2.0286,-2.0169,-1.9328,0.0,0.0,0.0,0.0,0.0,0.0,0.0,0.0,0.0,0.0,0.0,0.0,0.0,0.0,0.0,0.0,0.0,0.0,0.0,0.0,0.0,0.0,0.0,0.0,-3.2947,-3.5304,-3.5791,-3.7136,-3.8324,-3.8967,-4.0117,-4.1442,-4.2922,-4.2942,-4.3429,-4.4793,-4.4423,-4.452,-4.5397,-4.5436,-4.5845,-4.6722,-4.7248,-4.7676,-4.8047,-4.8553,-4.8962,-4.9294,-4.9294,-4.9488,-4.9859,-4.9859,-4.9859,-4.9859,-4.9859,-4.9859,-4.9859,-4.9859,-4.9859,0.0,0.0,0.0,0.0,0.0,-4.7715,-4.7365,-0.5127,-0.5778,-0.66,-0.7573,-0.8383,-0.9198,-1.0077,-1.0196,-1.0196,-1.0196,-1.1628,-1.2927,-1.3635,-1.5186,-1.6512,-1.7404,-1.6911,-1.6636,-1.6829,-1.7747,-1.8994,-2.0575,-2.2328,-2.3653,-2.453,-2.6089,-2.6946,-2.7043,-2.8695,-2.9552,-2.9649,-3.0429,-3.0799,-3.0799,-3.0799,-3.0857,-3.0935,-3.0838,-3.0857,-3.0877,-3.0,-2.866,-2.7102,-2.6283,-2.5446,-2.4471,-2.2835,-2.2231,-2.2114,-2.124,0.0,0.0,0.0,0.0,0.0,0.0,0.0,0.0,0.0,0.0,0.0,0.0,0.0,0.0,0.0,0.0,0.0,0.0,0.0,0.0,0.0,0.0,0.0,0.0,-3.5791,-3.7662,-4.0682,-4.1266,-4.1071,-4.0195,-4.1383,-4.2377,-4.2572,-4.3293,-4.4111,-4.4968,-4.5046,-4.5436,-4.6293,0.0,0.0,0.0,0.0,-4.8144,-4.8923,-4.9021,-4.943,-5.0151,-5.0151,-5.056,-5.13,-5.13,-5.13,-5.13,-5.13,-5.13,-5.13,-5.13,-5.13,-5.1145,-4.9547,-4.8943,-4.8923,-4.8826,-4.8806,-4.8806,-0.5908,-0.6178,-0.6788,-0.8373,-0.8784,-0.9198,-1.0077,-1.0196,-1.0196,-1.0196,-1.1109,-1.1805,-1.1972,-1.2905,-1.3898,-1.4769,-1.5338,-1.6222,-1.7573,-1.9146,-2.0471,-2.1508,-2.3217,-2.4569,-2.5426,-2.64,-2.7238,-2.7959,-2.8987,-2.9864,-3.0546,-3.0721,-3.0799,-3.0799,-3.0799,-3.1193,-3.1797,-3.1096,-3.1213,-3.1778,-3.0901,-2.9922,-2.889,-2.8037,-2.718,-2.6283,-2.5309,-2.4959,-2.4803,-2.3945,-2.3186,-2.2543,-2.2211,-2.0672,0.0,0.0,0.0,0.0,0.0,0.0,0.0,0.0,0.0,0.0,0.0,0.0,0.0,0.0,0.0,0.0,0.0,0.0,0.0,-3.5343,-3.8694,-4.1071,-4.111,-4.226,-4.2786,-4.1929,-4.2104,-4.2844,-4.4267,-4.454,-4.5007,-4.5884,-4.5942,-4.6332,-4.7189,-4.7248,-4.7657,-4.8514,-4.9177,-4.9605,-4.9761,-5.0463,-5.0891,-5.1047,0.0,0.0,-5.13,-5.13,-5.13,-5.13,-5.13,-5.13,-5.13,-5.13,-5.13,-5.1203,-5.017,-4.9761,-4.9683,-4.904,-4.8806,-4.8806,-0.6719,-0.6894,-0.7315,-0.8624,-0.9184,-0.9613,-1.009,-1.0152,-1.0159,-1.0154,-1.0919,-1.1463,-1.1508,-1.2245,-1.2937,-1.3416,-1.4651,-1.6113,-1.7789,-1.9947,-2.1547,-2.2414,-2.4081,-2.5219,-2.5699,-2.6926,-2.7764,-2.8193,-2.9513,-3.037,-3.0799,-3.0799,-3.0799,-3.0818,-3.1252,-3.168,-3.2094,-3.2109,-3.209,-3.2055,-3.1622,-3.094,-3.0059,-2.9182,-2.831,-2.7433,-2.6595,-2.6303,-2.6167,-2.5329,-2.4764,-2.4316,-2.3887,-2.2854,-2.1552,0.0,0.0,0.0,0.0,0.0,0.0,0.0,0.0,0.0,0.0,0.0,0.0,0.0,0.0,-2.9557,-3.1661,0.0,-3.6473,-3.8227,-3.9922,-4.1208,-4.1637,-4.2416,-4.2786,-4.2357,-4.3078,-4.3936,-4.4812,-4.528,-4.5728,-4.6176,-4.6605,-4.7033,-4.7482,-4.791,-4.8534,-4.9372,-4.9781,-5.0209,-5.0657,-5.1086,-5.13,-5.13,-5.13,-5.13,-5.13,-5.13,-5.13,-5.13,-5.13,-5.13,-5.13,-5.13,-5.13,-5.1261,-5.0813,-5.0657,-5.0599,-5.0209,-5.0053,-5.0053,-0.7322,-0.7629,-0.8006,-0.889,-0.9577,-1.0025,-1.0091,-1.0095,-1.0108,-1.0098,-1.0705,-1.1175,-1.1219,-1.1806,-1.2417,-1.2965,-1.463,-1.6347,-1.8013,-2.0579,-2.2343,-2.3043,-2.471,-2.5639,-2.5671,-2.7331,-2.8193,-2.8193,-2.9942,-3.0799,-3.0799,-3.0799,-3.0799,-3.0838,-3.1525,-3.2031,-3.2387,-3.2732,-3.2674,-3.2328,-3.1973,-3.1427,-3.0701,-2.9825,-2.8948,-2.8115,-2.7394,-2.6946,-2.6576,-2.5913,-2.5699,-2.5582,-2.4861,-2.453,-2.3984,-2.1883,-2.165,0.0,0.0,0.0,0.0,0.0,0.0,0.0,0.0,0.0,-2.6868,-3.0297,-3.2245,-3.396,-3.6025,-3.7389,-3.8772,-4.0565,-4.0662,-4.0955,-4.2124,-4.2591,-4.2806,-4.2806,-4.4033,-4.4968,-4.5144,-4.5787,-4.6196,-4.6196,-4.7014,-4.756,-4.7735,-4.8573,-4.941,-5.0229,-5.0248,-5.0599,-5.13,-5.13,-5.13,-5.13,-5.13,-5.13,-5.13,-5.13,-5.13,-5.13,-5.13,-5.13,-5.13,-5.13,-5.13,-5.13,-5.13,-5.13,-5.13,-5.13,-5.13,-5.13,-0.7322,-0.8064,-0.8841,-0.972,-0.9939,-1.0025,-1.0091,-1.0095,-1.01,-1.0104,-1.0176,-1.0257,-1.0266,-1.034,-1.1292,-1.358,-1.5423,-1.7176,-1.8869,-2.1404,-2.2915,-2.3003,-2.4671,-2.5591,-2.5615,-2.7307,-2.8193,-2.8193,-2.9942,-3.0799,-3.0799,-3.0799,-3.0799,-3.0799,-3.0896,-3.1817,-3.3161,-3.1719,-3.1934,-3.3122,-3.1563,-3.0896,-3.0701,-2.9825,-2.8948,-2.8193,-2.8095,-2.7102,-2.5816,-2.5738,-2.5699,-2.5679,-2.5582,-2.5017,-2.4335,-2.4043,0.0,-2.3088,-2.3653,-2.453,-2.5621,-2.7102,-2.6985,-2.7686,0.0,0.0,-3.2206,-3.5636,-3.7116,-3.7876,-3.8168,-4.0136,-4.1344,-4.0136,-4.1753,-4.2981,-4.2377,-4.3624,-4.4618,-4.4618,-4.4773,-4.5202,-4.5981,-4.6137,-4.6196,-4.6196,-4.7014,-4.7832,-4.8612,-4.941,-5.0268,-5.1125,-5.1145,-5.1203,-5.13,-5.13,-5.13,-5.13,-5.13,-5.13,-5.13,-5.13,-5.13,-5.13,-5.13,-5.13,-5.13,-5.13,-5.13,-5.13,-5.13,-5.13,-5.13,-5.13,-5.13,-5.13,-0.7269,-0.8126,-0.8983,-0.9838,-0.9995,-1.0019,-1.0034,-1.0034,-1.0044,-1.0049,-1.003,-1.0054,-1.0091,-1.0108,-1.0927,-1.2959,-1.4757,-1.6516,-1.8223,-2.1229,-2.2965,-2.2997,-2.4669,-2.5604,-2.5604,-2.7303,-2.8194,-2.8194,-2.943,-3.0292,-3.0779,-3.0273,-3.0312,-3.0818,-3.133,-3.1953,-3.264,-3.2401,-3.244,-3.2582,-3.1856,-3.1252,-3.0701,-2.9825,-2.8948,-2.8134,-2.7628,-2.6985,0.0,-2.5855,-2.5699,-2.5699,-2.5699,-2.5446,-2.5056,-2.4549,-2.4822,0.0,-2.6985,-2.7998,0.0,0.0,-3.0921,-3.207,-3.4739,-3.5207,-3.5908,-3.887,-4.0545,-4.1305,-4.0799,-4.2007,-4.2669,0.0,-4.2143,-4.2883,-4.3033,-4.3682,-4.415,-4.415,-4.4598,-4.5241,-4.6118,-4.6196,-4.6196,-4.6196,-4.7482,-4.8417,-4.8787,-5.0034,-5.093,-5.13,-5.13,-5.13,-5.13,-5.13,-5.13,-5.13,-5.13,-5.13,-5.13,-5.13,-5.13,-5.13,-5.13,-5.13,-5.13,-5.13,-5.13,-5.13,-5.13,-5.13,-5.13,-5.13,-5.13,-5.13,-0.7228,-0.8107,-0.8968,-0.9849,-0.9976,-0.9976,-1.0001,-1.0006,-0.9998,-0.9991,-1.0009,-1.0028,-1.0063,-1.0068,-1.0641,-1.2093,-1.381,-1.5555,-1.7273,-2.0398,-2.2411,-2.292,-2.4412,-2.5343,-2.557,-2.7048,-2.794,-2.8163,-2.8807,-2.9576,-3.0419,-2.9547,-2.9606,-3.0468,-3.1096,-3.1641,-3.2133,-3.2518,-3.246,-3.2075,-3.1836,-3.1213,-3.0351,-2.9474,-2.8602,-2.7725,-2.6887,-2.6576,-2.642,-2.5348,-2.5309,-2.566,-2.5426,-2.5504,-2.5621,-2.5212,-2.6128,-2.7589,-2.9085,0.0,0.0,-3.281,-3.4428,-3.5967,-3.7077,-3.7993,-3.9279,-4.1656,-4.3117,-4.378,-4.3137,-4.3351,-4.3383,-4.2767,-4.2669,-4.2961,-4.3838,-4.3955,-4.3955,-4.3955,-4.4306,-4.4871,-4.5767,-4.6059,-4.6196,-4.6196,-4.7813,-4.8806,-4.8806,-5.0385,-5.13,-5.13,-5.13,-5.13,-5.13,-5.13,-5.13,-5.13,-5.13,-5.13,-5.13,-5.13,-5.13,-5.13,-5.13,-5.13,-5.13,-5.13,-5.13,-5.13,-5.13,-5.13,-5.13,-5.13,-5.13,-5.13,-0.7224,-0.8107,-0.8975,-0.9849,-0.9935,-0.9923,-1.0001,-1.0006,-1.0006,-1.0006,-1.0006,-1.0006,-1.0006,-1.0006,-1.0328,-1.1162,-1.2833,-1.4545,-1.6239,-1.8881,-2.1109,-2.2739,-2.378,-2.4696,-2.5499,-2.646,-2.7326,-2.8107,-2.8133,-2.8618,-2.9516,-2.8646,-2.87,-2.9533,-2.9572,-3.0511,-3.2055,-3.1232,-3.1349,-3.2036,-3.1174,-3.0312,-2.9435,-2.8563,-2.7706,-2.6829,-2.603,-2.5738,-2.5465,-2.3751,-2.4296,-2.5543,-2.4705,-2.5017,0.0,-2.6595,-2.7452,-2.8368,0.0,0.0,-3.2659,-3.5168,-3.7097,-3.8831,-4.0545,-4.1578,-4.265,-4.4423,-4.4832,-4.4851,-4.4832,-4.415,-4.3578,-4.3559,-4.3559,-4.3858,-4.4734,-4.4851,-4.4851,-4.4851,-4.415,-4.3975,0.0,-4.5689,-4.6196,-4.6196,-4.7813,-4.8806,-4.8806,-5.0385,-5.13,-5.13,-5.13,-5.13,-5.13,-5.13,-5.13,-5.13,-5.13,-5.13,-5.13,-5.13,-5.13,-5.13,-5.13,-5.13,-5.13,-5.13,-5.13,-5.13,-5.13,-5.13,-5.13,-5.13,-5.13,-5.13,-0.7051,-0.7613,-0.8291,-0.9749,-0.9976,-0.9971,-1.0001,-1.0006,-1.0006,-1.0006,-1.0006,0.0,0.0,0.0,0.0,0.0,-1.2269,-1.3671,-1.5391,-1.7934,-1.9873,-2.1026,-2.3052,-2.4288,-2.4579,-2.6061,-2.6968,-2.7246,-2.7246,-2.7705,-2.8553,-2.7679,-2.7743,-2.8571,-2.8571,-2.9213,-3.025,-2.9388,-2.9847,-3.1051,-2.963,-2.925,-2.9338,-2.7901,-2.6829,-2.5913,0.0,-2.4355,-2.4666,-2.3497,-2.3867,-2.4783,-2.4491,0.0,0.0,-2.7355,-2.8388,-2.9518,0.0,0.0,-3.5246,-3.7837,-3.9357,-4.0818,-4.3098,-4.3838,-4.4033,-4.4033,-4.4033,-4.3526,-4.1831,-4.1753,-4.2124,-4.265,-4.3208,-4.4111,-4.5553,-4.526,-4.4695,-4.4111,-4.4286,0.0,0.0,0.0,0.0,-4.6157,-4.7813,-4.8806,-4.8806,-5.0385,-5.13,-5.13,-5.13,-5.13,-5.13,-5.13,-5.13,-5.13,-5.13,-5.13,-5.13,-5.13,-5.1612,-5.2138,-5.1554,-5.1632,-5.2119,-5.1534,-5.13,-5.13,-5.13,-5.13,-5.13,-5.13,-5.13,-5.13,-0.7025,-0.7568,-0.825,-0.9708,-0.9965,0.0,0.0,0.0,0.0,0.0,0.0,0.0,0.0,0.0,0.0,0.0,0.0,-1.2648,-1.4085,-1.628,-1.8053,-1.923,-2.1197,-2.2404,-2.2711,-2.3874,-2.4902,-2.5793,-2.5543,-2.6172,-2.7581,-2.6722,-2.6799,-2.7647,-2.7647,-2.8113,-2.889,-2.8346,-2.8748,-2.9674,-2.861,-2.8135,-2.7975,-2.6865,-2.5741,0.0,-2.3155,-2.3007,-2.3341,-2.2465,-2.3166,-2.4355,-2.4023,-2.5141,-2.6763,-2.7872,-2.9445,-3.1401,-3.4033,-3.6006,-3.7915,-4.0506,-4.1812,-4.2806,-4.413,-4.4442,-4.4111,-4.2961,-4.2455,-4.1656,-3.9688,-3.9532,-4.0175,-4.1637,-4.2338,-4.3429,-4.5455,-4.5241,-4.4695,-4.413,-4.4286,-4.4345,0.0,0.0,0.0,-4.6137,-4.7813,-4.8806,-4.8806,-5.0385,-5.13,-5.13,-5.13,-5.13,-5.13,-5.13,-5.13,-5.13,-5.13,-5.13,-5.13,-5.13,-5.1787,-5.2547,-5.169,-5.1787,-5.2528,-5.1671,-5.13,-5.13,-5.13,-5.13,-5.13,-5.13,-5.13,-5.13,-0.7112,-0.7946,-0.8792,0.0,0.0,0.0,0.0,0.0,0.0,0.0,0.0,0.0,0.0,0.0,0.0,0.0,0.0,0.0,-1.2382,-1.4027,-1.5704,-1.7385,-1.84,-1.9302,-2.0107,-2.0243,-2.1471,-2.3861,-2.3168,-2.4084,-2.6474,-2.5708,-2.5796,-2.6586,-2.6586,-2.7071,-2.7893,-2.7854,-2.7874,-2.7958,-2.788,-2.6909,-2.5535,-2.5496,-2.4462,-2.2925,-2.2103,-2.1808,-2.1669,-2.0851,0.0,0.0,0.0,0.0,0.0,-2.8408,-3.08,-3.3983,-3.6612,-3.863,-4.0584,-4.3059,-4.4247,-4.4618,-4.3799,-4.352,-4.2981,-4.1208,-4.0136,-3.924,0.0,0.0,-3.7954,-4.0487,-4.1091,-4.2085,-4.454,-4.4929,-4.4949,0.0,0.0,0.0,0.0,0.0,0.0,-4.6274,0.0,-4.8826,-4.8865,-5.0404,-5.13,-5.13,-5.13,-5.13,-5.13,-5.13,-5.13,-5.13,-5.13,-5.13,-5.13,-5.13,-5.1787,-5.2547,-5.169,-5.1787,-5.2528,-5.1671,-5.13,-5.13,-5.13,-5.13,-5.13,-5.13,-5.13,-5.13,0.0,0.0,0.0,0.0,0.0,0.0,0.0,0.0,0.0,0.0,0.0,0.0,0.0,0.0,0.0,0.0,0.0,0.0,-1.1484,-1.2566,-1.3909,-1.5589,-1.7145,-1.8332,-1.9131,-1.9865,-2.085,-2.2142,-2.1938,-2.2504,-2.3726,-2.3522,-2.3531,-2.3741,-2.3741,-2.4248,-2.5089,-2.4424,-2.4967,-2.6126,-2.4824,-2.4462,-2.4631,-2.3988,-2.3077,-2.2107,-2.1878,-2.1808,0.0,0.0,0.0,0.0,0.0,0.0,-3.0345,0.0,0.0,-3.658,-3.8482,-4.0777,-4.2942,-4.4247,-4.4247,-4.3877,-4.3663,-4.263,-4.0877,-3.7857,-3.6532,-3.5285,-3.3161,0.0,0.0,-3.7974,-4.0877,0.0,-4.4715,-4.5455,0.0,0.0,0.0,-4.5611,-4.5845,-4.6449,0.0,0.0,-4.8553,-4.906,-4.9664,-5.0716,-5.13,-5.13,-5.13,-5.13,-5.13,-5.13,-5.13,-5.13,-5.13,-5.13,-5.13,-5.13,-5.1787,-5.2547,-5.169,-5.1787,-5.2528,-5.1671,-5.13,-5.13,-5.13,-5.13,-5.13,-5.13,-5.13,-5.13,0.0,0.0,0.0,0.0,0.0,0.0,0.0,0.0,0.0,0.0,0.0,0.0,0.0,0.0,0.0,0.0,0.0,0.0,0.0,-1.1465,-1.2356,-1.3292,-1.497,-1.6105,-1.6554,-1.783,-1.889,-1.9735,-2.0169,-2.0772,-2.157,-2.1587,-2.1807,-2.2172,-2.2172,-2.2651,-2.3456,-2.2966,-2.3364,0.0,0.0,-2.2972,-2.3085,-2.261,-2.1934,-2.1235,-2.1231,0.0,0.0,0.0,0.0,-2.7245,-2.926,-3.0808,-3.226,-3.4347,0.0,-3.9103,-4.0424,-4.2712,-4.4773,-4.4871,-4.4247,-4.3305,-4.2202,-4.0331,-3.7837,-3.4369,-3.2966,0.0,-2.9981,0.0,0.0,0.0,0.0,0.0,-4.4091,-4.5416,-4.602,0.0,-4.5903,0.0,-4.6722,-4.7209,-4.8008,0.0,-4.9333,-4.9527,-4.9976,-5.0833,-5.13,-5.13,-5.13,-5.13,-5.13,-5.13,-5.13,-5.13,-5.13,-5.13,-5.13,-5.13,-5.1787,-5.2547,0.0,-5.1787,-5.2528,-5.1671,-5.13,-5.13,-5.13,-5.13,-5.13,-5.13,-5.13,-5.13,0.0,0.0,0.0,0.0,0.0,0.0,0.0,0.0,0.0,0.0,0.0,0.0,0.0,0.0,0.0,0.0,0.0,0.0,0.0,0.0,-1.1086,-1.12,-1.2583,-1.3474,-1.3709,-1.5186,-1.6415,-1.7331,-1.8141,-1.8958,-1.9755,-1.9807,-2.0255,-2.0975,-2.0975,-2.1367,-2.2019,-2.2019,-2.2105,-2.221,-2.221,-2.1861,-2.1332,0.0,-2.1035,-2.0493,0.0,0.0,0.0,0.0,-2.7225,-2.7994,-3.1247,-3.2933,-3.4204,-3.6625,-3.9123,-4.128,-4.2194,-4.4279,-4.5981,-4.5124,-4.4072,-4.2611,-4.0039,-3.735,-3.4467,-3.113,0.0,-2.889,-2.8037,-2.9377,-3.1466,-3.4038,0.0,-4.0565,-4.3234,-4.5007,-4.6059,-4.6196,-4.6196,-4.6585,-4.7579,-4.7676,-4.8378,-5.0053,-5.017,-5.017,-5.017,-5.0891,-5.13,-5.13,-5.13,-5.13,-5.13,-5.13,-5.13,-5.13,-5.13,-5.13,-5.13,-5.13,-5.171,-5.2391,-5.1632,-5.1729,-5.2372,-5.1612,-5.13,-5.13,-5.13,-5.13,-5.13,-5.13,-5.13,-5.13,0.0,0.0,0.0,0.0,0.0,0.0,0.0,0.0,0.0,0.0,0.0,0.0,0.0,0.0,0.0,0.0,0.0,0.0,0.0,0.0,0.0,-1.1181,-1.1484,-1.228,-1.3664,-1.4001,-1.4893,-1.6439,-1.658,-1.712,-1.7947,-1.7966,-1.8051,-1.8184,-1.8184,-1.8298,-1.8482,-1.8482,-1.8934,-1.9638,-1.9638,-1.9969,-2.0429,-2.0495,0.0,0.0,0.0,0.0,0.0,0.0,-2.8879,-3.0487,-3.2538,-3.4714,-3.6722,-3.7794,-3.9984,-4.2233,-4.2994,-4.467,-4.5981,-4.5124,-4.3195,-4.0857,-3.8246,-3.5109,0.0,0.0,0.0,-2.7102,-2.6283,-2.8095,0.0,-3.3181,0.0,0.0,0.0,0.0,-4.5397,0.0,0.0,0.0,0.0,0.0,0.0,0.0,0.0,-5.1067,-5.1067,-5.1222,-5.13,-5.13,-5.13,-5.13,-5.13,-5.13,-5.13,-5.13,-5.13,-5.13,-5.13,-5.13,-5.1378,-5.1515,-5.1378,0.0,-5.1515,-5.1359,-5.13,-5.13,-5.13,-5.13,-5.13,-5.13,-5.13,-5.13,0.0,0.0,0.0,0.0,0.0,0.0,0.0,-0.9912,-0.9965,-1.0001,-1.0006,-1.0006,-1.0006,-1.0006,-1.0006,0.0,0.0,0.0,0.0,0.0,0.0,-1.0556,-1.0973,-1.1579,-1.2375,0.0,0.0,0.0,0.0,0.0,-1.6203,0.0,0.0,0.0,0.0,0.0,-1.7556,-1.7556,-1.7811,-1.8264,-1.8684,-1.9101,-1.9531,0.0,0.0,0.0,0.0,0.0,0.0,0.0,-2.7954,-2.9985,-3.3064,-3.5168,-3.6857,-3.8571,-4.0305,-4.1942,-4.3171,-4.4491,-4.5202,-4.3877,-4.1968,-3.9513,-3.6025,0.0,0.0,0.0,0.0,-2.5621,-2.5699,0.0,0.0,0.0,0.0,0.0,0.0,0.0,0.0,0.0,0.0,0.0,0.0,0.0,0.0,0.0,0.0,-5.13,-5.13,-5.13,-5.13,-5.13,-5.13,-5.13,-5.13,-5.13,-5.13,-5.13,-5.13,-5.13,-5.13,-5.13,-5.13,-5.13,-5.13,-5.13,-5.13,-5.13,-5.13,-5.13,-5.13,-5.13,-5.13,-5.13,-5.13,-5.13,0.0,0.0,0.0,0.0,0.0,0.0,-0.9445,-0.9725,-0.9893,-0.9971,-1.0001,-1.0006,-1.0006,-1.0006,-1.0006,0.0,0.0,0.0,0.0,0.0,0.0,0.0,0.0,0.0,0.0,0.0,0.0,0.0,0.0,0.0,0.0,0.0,0.0,0.0,0.0,0.0,0.0,0.0,-1.7047,0.0,0.0,0.0,0.0,0.0,0.0,0.0,0.0,0.0,0.0,0.0,-2.591,-2.7799,-3.1719,-3.4057,-3.5791,-3.8032,-3.9708,-4.1149,-4.2669,-4.3838,-4.4208,-4.2474,-4.0487,-3.7935,-3.3999,-3.0297,0.0,0.0,-2.4881,-2.4608,-2.5309,0.0,0.0,0.0,0.0,0.0,0.0,0.0,0.0,0.0,0.0,0.0,0.0,0.0,0.0,0.0,0.0,0.0,-5.13,-5.13,-5.13,-5.13,-5.13,-5.13,-5.13,-5.13,-5.13,-5.13,-5.13,-5.13,-5.13,-5.13,-5.13,-5.13,-5.13,-5.13,-5.13,-5.13,-5.13,-5.13,-5.13,-5.13,-5.13,-5.13,-5.13,-5.13,0.0,0.0,0.0,0.0,0.0,0.0,-0.8674,-0.9333,-0.9832,-0.9893,-0.9965,-1.0006,-1.0006,-1.0006,-1.0006,0.0,0.0,0.0,0.0,0.0,0.0,0.0,0.0,0.0,0.0,0.0,0.0,0.0,0.0,0.0,0.0,0.0,0.0,0.0,0.0,0.0,0.0,0.0,0.0,0.0,0.0,0.0,0.0,0.0,0.0,0.0,0.0,0.0,0.0,0.0,0.0,-2.4038,-2.6747,-3.0375,-3.3824,-3.4798,0.0,0.0,-4.1071,-4.2494,-4.3332,-4.1637,-3.8714,-3.5558,-3.2835,0.0,0.0,-2.4705,-2.4452,-2.4413,-2.4491,-2.529,-2.6732,0.0,0.0,-3.2849,0.0,0.0,0.0,0.0,0.0,0.0,0.0,0.0,0.0,0.0,0.0,0.0,-5.13,-5.13,-5.13,-5.13,-5.13,-5.13,-5.13,-5.13,-5.13,-5.13,-5.13,-5.13,-5.13,-5.13,-5.13,-5.13,-5.13,-5.13,0.0,-5.13,-5.13,-5.13,-5.13,-5.13,-5.13,-5.13,-5.13,-5.13,0.0,0.0,0.0,0.0,0.0,0.0,-0.8382,-0.9205,-0.9767,-0.9832,-0.9893,-0.9959,-1.0001,-1.0006,-1.0006,-1.0006,0.0,0.0,0.0,0.0,0.0,0.0,0.0,0.0,0.0,0.0,0.0,0.0,0.0,0.0,0.0,0.0,0.0,0.0,0.0,0.0,0.0,0.0,0.0,0.0,0.0,0.0,0.0,0.0,0.0,0.0,0.0,0.0,0.0,0.0,0.0,0.0,-2.3677,-2.61,0.0,0.0,-3.4798,-3.7097,-3.9006,-4.0409,-4.1033,-3.9825,-3.7311,-3.4447,-3.1895,0.0,-2.4822,-2.4471,-2.3984,-2.377,-2.4296,-2.5114,-2.6186,-2.7686,-2.7823,0.0,0.0,0.0,0.0,0.0,0.0,0.0,0.0,0.0,0.0,0.0,0.0,0.0,-5.13,-5.13,-5.13,-5.13,-5.13,-5.13,-5.13,-5.13,-5.13,-5.13,-5.13,-5.13,-5.13,-5.13,-5.13,-5.13,-5.1248,-5.1256,0.0,-5.1248,-5.1256,-5.13,-5.13,-5.13,-5.13,-5.13,-5.13,-5.13,0.0,0.0,0.0,0.0,0.0,-0.7278,-0.7912,-0.8942,-0.9669,-0.9767,-0.9825,-0.9893,-0.9965,-0.9982,-1.0006,-1.0006,-1.0006,0.0,0.0,0.0,0.0,0.0,0.0,0.0,0.0,0.0,0.0,0.0,-1.3311,0.0,0.0,0.0,0.0,0.0,0.0,0.0,0.0,0.0,0.0,0.0,0.0,0.0,0.0,0.0,0.0,0.0,0.0,0.0,0.0,0.0,0.0,0.0,0.0,0.0,0.0,0.0,-3.2129,-3.4311,-3.6415,-3.7798,-3.8441,-3.7564,-3.5402,-3.2947,0.0,0.0,-2.4082,-2.4355,-2.3712,-2.3361,-2.4238,-2.5114,-2.5894,-2.6459,-2.6264,-2.7686,0.0,0.0,0.0,0.0,0.0,0.0,0.0,0.0,0.0,0.0,0.0,0.0,-5.056,-5.0794,-5.1028,-5.13,-5.13,-5.13,-5.13,-5.13,-5.13,-5.13,-5.13,-5.13,-5.13,-5.13,-5.13,-5.13,-5.1248,-5.1248,0.0,-5.1248,-5.1248,-5.13,-5.13,-5.13,-5.13,-5.13,-5.1292,-5.1265,0.0,0.0,0.0,0.0,0.0,-0.7021,-0.7098,-0.8482,-0.9555,-0.9677,-0.9767,-0.9832,-0.9887,-0.9965,-1.0006,-1.0006,-1.0006,0.0,0.0,0.0,0.0,0.0,0.0,0.0,0.0,0.0,-1.1636,-1.2496,-1.3311,-1.4145,0.0,0.0,0.0,0.0,0.0,0.0,0.0,0.0,0.0,0.0,0.0,0.0,-1.6409,0.0,0.0,0.0,0.0,0.0,0.0,0.0,0.0,0.0,0.0,-2.1822,-2.2504,0.0,-2.9401,-3.2328,-3.32,-3.4661,-3.5733,-3.4856,-3.2713,-3.0604,0.0,-2.6186,-2.3361,-2.4218,-2.3712,-2.3361,-2.4238,-2.5114,-2.5699,-2.5718,-2.6361,0.0,0.0,0.0,0.0,0.0,0.0,0.0,0.0,0.0,0.0,0.0,0.0,0.0,-4.8826,-4.9586,-5.0404,-5.1261,-5.13,-5.13,-5.13,-5.13,-5.13,-5.13,-5.13,-5.13,-5.13,-5.13,-5.13,-5.13,-5.13,-5.13,0.0,-5.13,-5.13,-5.13,-5.13,-5.13,-5.13,-5.13,-5.1256,-5.1211,0.0,0.0,0.0,0.0,0.0,0.0,-0.7017,-0.7994,-0.8915,-0.955,-0.9695,-0.9766,-0.9831,-0.9894,-0.9929,-0.9929,-0.9971,0.0,0.0,0.0,0.0,0.0,0.0,0.0,0.0,0.0,-1.1086,-1.2496,-1.2761,-1.3614,-1.4998,0.0,0.0,0.0,0.0,0.0,0.0,0.0,0.0,0.0,0.0,-1.6267,-1.639,0.0,0.0,0.0,0.0,0.0,0.0,0.0,0.0,0.0,0.0,0.0,0.0,-2.2913,-2.5855,-2.8738,-2.9615,-3.1096,-3.2206,-3.133,-3.0063,-2.8948,-2.868,-2.5757,-2.3341,-2.4218,-2.3712,-2.3361,-2.4238,-2.5114,-2.6089,-2.7219,-2.7628,-2.8797,0.0,0.0,0.0,0.0,0.0,0.0,0.0,0.0,0.0,0.0,0.0,0.0,-4.8806,-4.904,-4.9566,-5.0385,-5.0989,-5.13,-5.13,-5.13,-5.13,-5.13,-5.13,-5.13,-5.13,-5.13,-5.13,-5.13,-5.1248,-5.1248,-5.13,-5.1248,-5.1256,-5.13,-5.13,-5.13,-5.1292,-5.1248,-5.1248,-5.117,0.0,0.0,0.0,0.0,0.0,0.0,-0.6567,-0.7328,-0.8055,-0.8628,-0.8993,-0.9247,-0.9345,-0.9682,-0.9912,-0.9929,-0.9971,0.0,0.0,0.0,0.0,0.0,0.0,0.0,-1.0006,-1.0006,-1.0821,-1.2496,-1.2496,-1.3368,-1.4998,-1.4998,-1.4828,0.0,0.0,0.0,0.0,0.0,0.0,0.0,-1.5413,-1.5592,-1.5448,0.0,0.0,0.0,0.0,0.0,0.0,0.0,0.0,0.0,0.0,0.0,0.0,0.0,-2.2562,-2.4822,0.0,-2.8017,-2.9201,-2.8656,-2.7881,-2.7258,-2.7258,-2.4842,-2.2854,-2.3731,-2.3478,-2.3361,-2.4238,-2.5114,-2.605,-2.7082,-2.7511,0.0,0.0,0.0,0.0,0.0,0.0,0.0,0.0,0.0,0.0,0.0,0.0,0.0,-4.7813,-4.8125,-4.8534,-4.904,-4.9898,-5.0365,-5.0365,-5.0365,-5.0494,-5.0769,-5.0494,-5.0669,-5.1256,-5.0942,-5.0989,-5.13,-5.1248,-5.1256,0.0,-5.123,-5.1044,-5.0813,-5.078,-5.0577,-5.0302,-5.0267,-5.0267,-5.0189,0.0,0.0,0.0,0.0,0.0,0.0,0.0,-0.6531,-0.7059,-0.7172,-0.789,-0.8439,-0.8584,-0.9363,-0.9925,-0.9995,-1.0001,0.0,0.0,0.0,0.0,0.0,0.0,0.0,-1.0006,-1.0006,-1.0821,-1.2496,-1.2496,-1.3368,-1.4998,-1.5006,-1.4551,-1.3709,-1.3709,0.0,0.0,0.0,0.0,0.0,-1.4665,-1.4558,0.0,0.0,0.0,0.0,0.0,0.0,0.0,0.0,0.0,0.0,0.0,0.0,0.0,0.0,0.0,0.0,0.0,-2.5309,-2.6615,-2.6556,-2.603,-2.5524,-2.5524,-2.3595,0.0,-2.2913,-2.3108,-2.338,-2.4316,-2.5153,-2.5757,-2.5933,-2.6654,0.0,0.0,0.0,0.0,0.0,0.0,0.0,0.0,0.0,0.0,0.0,0.0,0.0,-4.6196,-4.6956,-4.7404,-4.7404,-4.8183,-4.867,-4.8806,-4.8806,-4.9134,-4.981,-4.9114,-4.9582,-5.0996,-5.0244,-5.0338,0.0,-5.1117,-5.1117,-5.1089,-5.1045,-5.0568,-4.9882,-4.9838,-4.9361,-4.871,-4.871,-4.8652,-4.8621,0.0,0.0,0.0,0.0,0.0,0.0,0.0,0.0,0.0,0.0,-0.7866,-0.8434,-0.852,-0.9295,-0.9844,0.0,0.0,0.0,0.0,0.0,0.0,0.0,0.0,0.0,-1.0006,-1.0006,-1.0821,-1.2496,-1.2496,-1.3368,-1.4998,-1.5053,-1.4604,-1.3783,-1.3785,-1.341,0.0,0.0,0.0,0.0,-1.4731,-1.4986,0.0,0.0,0.0,0.0,-1.5497,-1.559,0.0,0.0,0.0,0.0,0.0,0.0,0.0,0.0,-1.8429,-1.886,-2.0091,0.0,-2.3828,-2.3166,-2.3361,-2.3712,0.0,-2.2718,-2.2055,0.0,0.0,-2.3575,-2.5114,-2.5563,-2.6342,-2.829,-2.9318,0.0,0.0,0.0,0.0,0.0,0.0,0.0,0.0,0.0,0.0,0.0,0.0,-4.6146,-4.6196,-4.6341,-4.6458,-4.6507,-4.6702,-4.7443,-4.8787,-4.8806,-4.8861,-4.8973,-4.8816,-4.8895,-4.9195,-4.9011,-4.9041,-4.9236,-4.9236,-4.9236,-4.9236,-4.9215,-4.9098,-4.8924,-4.8973,-4.8866,-4.871,-4.8701,-4.8719,-4.865,0.0,0.0,0.0,0.0,0.0,0.0,0.0,0.0,0.0,0.0,-0.6761,-0.7476,-0.7946,-0.8749,-0.9438,0.0,0.0,0.0,0.0,0.0,0.0,0.0,0.0,-1.0006,-1.0006,-1.0006,-1.0838,-1.2554,-1.2554,-1.3404,-1.5045,-1.508,-1.443,-1.3227,-1.2838,-1.2387,0.0,0.0,0.0,-1.2807,-1.4049,0.0,0.0,0.0,0.0,0.0,-1.4707,-1.4989,0.0,-1.5927,-1.5799,-1.5565,0.0,0.0,0.0,0.0,-1.7084,-1.7494,-1.7925,-2.0224,-2.2484,-2.2406,-2.2757,-2.3108,-2.3108,0.0,0.0,0.0,0.0,0.0,-2.4335,0.0,0.0,0.0,0.0,0.0,0.0,0.0,0.0,0.0,0.0,0.0,0.0,0.0,0.0,0.0,0.0,-4.613,-4.6146,-4.6093,-4.6075,-4.6102,-4.6138,-4.6629,-4.7599,-4.7618,-4.7762,-4.8049,-4.768,-4.7864,-4.8545,-4.8172,-4.8222,-4.8591,-4.8591,-4.8591,-4.861,-4.8577,-4.8336,-4.8008,-4.7975,-4.7734,-4.7425,-4.7425,-4.7446,-4.7408,0.0,0.0,0.0,0.0,0.0,0.0,0.0,0.0,0.0,0.0,0.0,0.0,0.0,0.0,0.0,0.0,0.0,0.0,0.0,0.0,0.0,0.0,-0.9998,-0.9998,-0.9998,-1.0003,-1.0809,-1.2399,-1.2532,-1.3391,-1.4916,-1.5044,-1.4219,-1.2582,-1.1695,-1.1249,0.0,0.0,0.0,-1.1545,-1.3103,0.0,0.0,0.0,0.0,0.0,0.0,0.0,0.0,-1.5187,-1.5292,-1.539,-1.539,0.0,0.0,0.0,0.0,0.0,-1.6987,-1.9289,-2.1786,-2.2523,-2.2893,-2.3108,-2.3108,0.0,0.0,0.0,0.0,0.0,0.0,0.0,0.0,0.0,0.0,0.0,0.0,0.0,0.0,0.0,0.0,0.0,0.0,0.0,0.0,0.0,0.0,-4.6075,-4.6084,-4.6017,-4.5986,-4.5997,-4.6066,-4.6102,-4.6162,-4.6189,-4.6508,-4.7114,-4.6416,-4.6795,-4.8089,-4.7389,-4.747,-4.818,0.0,0.0,-4.8169,-4.8108,-4.7694,-4.7051,-4.6971,-4.6493,-4.5886,-4.5898,-4.5929,-4.591,0.0,0.0,0.0,0.0,0.0,0.0,0.0,0.0,0.0,0.0,0.0,0.0,0.0,0.0,0.0,0.0,0.0,0.0,0.0,0.0,0.0,-1.0001,-1.0006,-1.0006,-1.0006,-1.0068,-1.0541,-1.1497,-1.2235,-1.3116,-1.4099,-1.4843,-1.4299,-1.2659,-1.1767,-1.0961,-1.034,-1.1211,-1.1551,-1.1564,0.0,0.0,0.0,0.0,0.0,0.0,0.0,0.0,0.0,-1.4299,-1.4786,-1.539,-1.539,0.0,0.0,0.0,0.0,0.0,-1.8239,-1.974,-2.0734,-2.087,-2.2017,-2.3108,-2.3108,0.0,0.0,0.0,0.0,0.0,0.0,0.0,0.0,0.0,0.0,0.0,0.0,0.0,0.0,0.0,0.0,0.0,0.0,0.0,0.0,0.0,0.0,-4.5964,-4.6007,-4.5953,-4.5953,-4.5997,-4.6007,-4.6017,-4.6027,-4.6146,-4.6232,-4.6279,-4.6105,-4.6111,-4.6293,-4.6119,-4.6093,-4.6228,0.0,-4.6228,-4.6228,-4.6215,-4.6137,-4.6035,-4.6074,-4.6021,-4.5917,-4.5964,-4.5986,-4.5986,0.0,0.0,0.0,0.0,0.0,0.0,0.0,0.0,0.0,0.0,0.0,0.0,0.0,0.0,0.0,0.0,0.0,0.0,0.0,0.0,-1.0009,-0.9992,-1.003,-1.0058,-1.0058,-1.054,-1.1211,-1.207,-1.2926,-1.3802,-1.4645,-1.4135,-1.3496,-1.2695,-1.1347,-1.0528,-1.018,-1.0576,-1.0765,-1.0867,0.0,0.0,0.0,0.0,0.0,0.0,0.0,0.0,0.0,0.0,-1.4379,-1.4786,-1.5253,0.0,0.0,0.0,0.0,0.0,-1.6834,-1.8434,-1.9915,-2.0383,-2.2153,-2.3926,-2.4394,0.0,0.0,0.0,0.0,0.0,0.0,0.0,0.0,0.0,0.0,0.0,0.0,0.0,0.0,0.0,0.0,0.0,0.0,0.0,0.0,0.0,0.0,0.0,-4.5933,-4.5873,-4.5867,-4.5886,-4.5941,-4.5953,-4.5953,-4.6037,-4.6066,-4.5997,-4.5997,-4.5956,-4.5905,-4.588,-4.5848,-4.5848,0.0,-4.58,-4.58,-4.58,-4.58,-4.5814,-4.5822,-4.5854,-4.5854,-4.5873,-4.5886,-4.5886,0.0,0.0,0.0,0.0,0.0,0.0,0.0,0.0,0.0,0.0,0.0,0.0,0.0,0.0,0.0,0.0,0.0,0.0,0.0,-0.9892,-1.0009,-1.0025,-1.0067,-1.02,-1.04,-1.1075,-1.1843,-1.2689,-1.3566,-1.4338,-1.4955,-1.3481,-1.2694,-1.2446,-1.1103,-1.0387,-1.0205,-1.0228,-1.0211,-1.0261,0.0,0.0,0.0,0.0,0.0,0.0,0.0,0.0,0.0,0.0,0.0,0.0,0.0,0.0,0.0,-1.539,-1.539,-1.5487,-1.5896,-1.7574,-1.9467,-2.0539,-2.262,-2.4725,-2.5991,0.0,0.0,0.0,0.0,0.0,0.0,0.0,0.0,0.0,0.0,0.0,0.0,0.0,0.0,0.0,0.0,0.0,0.0,0.0,0.0,0.0,0.0,0.0,-4.588,-4.5841,-4.58,-4.58,-4.5854,-4.588,-4.588,-4.5941,-4.5933,-4.591,-4.5964,-4.5953,-4.5905,-4.5873,-4.588,-4.5861,-4.5827,-4.58,-4.58,-4.58,-4.58,-4.58,-4.58,-4.58,-4.58,-4.58,-4.58,-4.58,0.0,0.0,0.0,0.0,0.0,0.0,0.0,0.0,0.0,0.0,0.0,0.0,0.0,0.0,0.0,0.0,0.0,0.0,0.0,-0.9546,-1.0038,-1.0091,-1.0095,-1.0481,-1.1284,-1.1432,-1.1891,-1.2703,-1.3573,-1.4037,-1.4076,-1.3206,-1.2371,-1.1585,-1.1465,-1.0967,-1.0193,-1.0263,-1.0263,-1.0215,-1.0343,0.0,0.0,0.0,0.0,0.0,0.0,0.0,0.0,0.0,0.0,0.0,0.0,0.0,-1.539,-1.539,-1.539,-1.574,-1.7377,-1.849,-1.9603,-2.1299,-2.3069,0.0,-2.7472,-2.7978,0.0,-3.0,0.0,0.0,0.0,0.0,0.0,0.0,0.0,0.0,0.0,0.0,0.0,0.0,0.0,0.0,0.0,0.0,0.0,0.0,0.0,0.0,-4.5814,-4.5814,-4.58,-4.58,-4.5794,-4.5814,-4.5814,-4.5814,-4.5861,-4.5997,-4.5922,-4.5898,-4.5905,-4.5841,-4.5814,-4.5814,-4.5814,-4.58,-4.58,-4.58,-4.58,-4.58,-4.58,-4.58,-4.58,-4.58,-4.58,-4.58,0.0,0.0,0.0,0.0,0.0,0.0,0.0,0.0,0.0,0.0,0.0,0.0,0.0,0.0,0.0,0.0,0.0,0.0,0.0,-0.9534,-1.0025,-1.0109,-1.0094,-1.0533,-1.1435,-1.1988,-1.2146,-1.1953,-1.2784,-1.3187,-1.3167,-1.2365,-1.1815,-1.1472,-1.0924,-1.0505,-1.0195,-1.0238,-1.0219,-1.0215,-1.0265,-1.0308,0.0,0.0,0.0,0.0,0.0,0.0,0.0,0.0,-1.2567,-1.3346,-1.3678,-1.4533,-1.5292,-1.4747,-1.4981,-1.5546,-1.6208,-1.8159,-2.0169,-2.0831,-2.3127,0.0,0.0,-2.8621,-2.9498,-3.1252,0.0,0.0,0.0,0.0,0.0,0.0,0.0,0.0,0.0,0.0,0.0,0.0,0.0,0.0,0.0,0.0,0.0,0.0,0.0,0.0,-4.5026,-4.4543,-4.4717,-4.5761,-4.5316,-4.5297,-4.58,-4.58,-4.5827,-4.588,-4.5886,-4.5905,-4.5905,-4.5861,-4.5848,-4.5867,-4.5827,-4.58,-4.58,-4.58,-4.58,-4.5838,-4.6399,-4.6283,-4.5858,-4.6399,-4.6264,-4.58,0.0,0.0,0.0,0.0,0.0,0.0,0.0,0.0,0.0,0.0,0.0,0.0,0.0,0.0,0.0,0.0,0.0,0.0,-0.836,-0.9166,-0.9765,-1.009,-1.0094,-1.0417,-1.1086,-1.1895,-1.2185,-1.1875,-1.2185,-1.2324,-1.2308,-1.1479,-1.1083,-1.1064,-1.0483,-1.0219,-1.0195,-1.0219,-1.024,-1.024,-1.0286,-1.0308,0.0,0.0,0.0,0.0,0.0,0.0,0.0,0.0,-1.1904,-1.2489,-1.3035,-1.4028,-1.4922,-1.4591,-1.5136,-1.5818,-1.5818,-1.81,-2.0578,-2.0851,0.0,0.0,-2.8505,-2.9474,-3.0628,-3.3181,0.0,0.0,0.0,0.0,0.0,0.0,0.0,0.0,0.0,0.0,0.0,0.0,0.0,0.0,0.0,0.0,0.0,0.0,0.0,0.0,0.0,-4.3614,-4.3827,-4.4968,-4.4485,-4.4446,-4.5007,-4.5007,-4.5007,-4.5007,-4.5331,-4.5628,-4.588,-4.588,-4.588,-4.588,-4.5827,-4.58,-4.58,-4.58,-4.58,-4.5877,-4.6748,-4.6728,-4.6283,-4.6883,-4.6709,-4.6167,0.0,0.0,0.0,0.0,0.0,0.0,0.0,0.0,0.0,0.0,0.0,0.0,0.0,0.0,0.0,0.0,0.0,0.0,-0.7432,-0.8318,-0.9187,-1.0052,-1.0094,-1.0128,-1.0196,-1.1047,-1.1875,-1.2684,-1.1875,-1.148,-1.1479,-1.0598,-1.0195,-1.0195,-1.0279,-1.0263,-1.0195,-1.0265,-1.0308,-1.0308,-1.0308,-1.0308,-1.0308,0.0,0.0,0.0,0.0,0.0,0.0,0.0,-1.1495,-1.1807,-1.3522,-1.4087,-1.4281,-1.5136,-1.6013,-1.6695,-1.6695,-1.8568,-2.0714,0.0,0.0,0.0,-3.0039,-3.0799,-3.2026,-3.6317,0.0,0.0,0.0,0.0,0.0,0.0,0.0,0.0,0.0,0.0,0.0,0.0,0.0,0.0,0.0,0.0,0.0,0.0,0.0,0.0,-4.3285,-4.3285,-4.3285,-4.3305,-4.3285,-4.3285,-4.3305,-4.3305,-4.3305,-4.3305,-4.4175,-4.5007,-4.578,-4.58,-4.58,-4.58,-4.58,-4.58,-4.58,-4.58,-4.58,-4.5877,-4.6748,-4.7096,-4.7096,-4.7096,-4.7096,-4.696,0.0,0.0,0.0,0.0,0.0,0.0,0.0,0.0,0.0,0.0,0.0,0.0,0.0,0.0,0.0,0.0,0.0,0.0,-0.6633,-0.8037,-0.8989,-0.9247,-0.9852,-1.019,-1.0196,-1.0447,-1.1008,-1.1856,-1.1008,-1.0589,-1.0582,-1.0324,-1.0195,-1.0195,-1.0213,-1.0217,-1.0195,-1.0219,-1.0263,-1.0308,-1.0308,-1.0308,-1.0308,0.0,0.0,0.0,0.0,0.0,0.0,0.0,0.0,0.0,-1.2119,-1.3522,-1.4942,-1.4591,-1.5546,-1.6695,-1.6695,-1.9016,0.0,0.0,0.0,0.0,0.0,-3.17,0.0,0.0,0.0,0.0,0.0,0.0,0.0,0.0,0.0,0.0,0.0,0.0,0.0,0.0,0.0,0.0,0.0,0.0,0.0,0.0,0.0,0.0,-4.2396,-4.1854,-4.2086,-4.3266,-4.2705,-4.2686,-4.3285,-4.3305,-4.3305,-4.3305,-4.3556,-4.4136,-4.4987,-4.5529,-4.58,-4.58,-4.58,-4.58,-4.58,-4.58,-4.58,-4.5877,-4.6748,-4.6728,-4.6264,-4.6864,-4.6709,-4.6148,0.0,0.0,0.0,0.0,0.0,0.0,0.0,0.0,0.0,0.0,0.0,-0.4997,0.0,0.0,0.0,0.0,0.0,0.0,0.0,-0.7598,-0.8529,-0.8889,-0.9729,-1.0196,-1.0196,-1.0196,-1.0467,-1.0989,-1.0467,-1.0205,-1.02,-1.019,-1.0198,-1.0205,-1.0236,-1.0219,-1.0195,-1.0238,-1.0263,-1.0308,-1.0308,-1.0308,-1.0308,0.0,0.0,0.0,0.0,0.0,0.0,0.0,0.0,0.0,-1.1398,-1.2586,-1.395,-1.4474,-1.5604,-1.6929,-1.7925,0.0,0.0,0.0,0.0,0.0,0.0,0.0,0.0,0.0,0.0,0.0,0.0,0.0,0.0,0.0,0.0,0.0,0.0,0.0,0.0,0.0,0.0,0.0,0.0,0.0,0.0,0.0,0.0,-4.2512,-4.2512,-4.1719,-4.1738,-4.2744,-4.1951,-4.1777,-4.2299,-4.2318,-4.2318,-4.2318,-4.2628,-4.3053,-4.3595,-4.4427,-4.4813,-4.4833,-4.5162,-4.5316,-4.5355,-4.5664,-4.58,-4.5877,-4.6748,-4.6786,-4.638,-4.6902,-4.6718,-4.6205,0.0,0.0,-0.4835,-0.4882,0.0,0.0,0.0,0.0,0.0,-0.4995,-0.4995,-0.5,0.0,0.0,0.0,-0.4998,-0.5063,-0.5403,0.0,-0.707,-0.7964,-0.8756,-0.969,-1.0196,-1.0196,-1.0196,-1.0196,-1.0196,-1.0199,-1.0191,-1.0193,-1.0193,-1.0202,-1.0193,-1.0263,-1.0263,-1.0195,-1.0265,-1.0308,-1.0308,-1.0308,-1.0308,-1.0308,-1.0308,0.0,0.0,0.0,0.0,0.0,0.0,0.0,0.0,-1.1242,-1.1554,-1.2099,-1.4552,-1.5955,-1.724,-1.972,0.0,0.0,0.0,0.0,0.0,0.0,0.0,0.0,0.0,0.0,0.0,0.0,0.0,0.0,0.0,0.0,0.0,0.0,0.0,0.0,0.0,0.0,0.0,0.0,0.0,0.0,0.0,0.0,-4.3382,-4.3305,-4.255,-4.2086,-4.2009,-4.1293,-4.0868,-4.079,-4.079,-4.079,-4.081,-4.1545,-4.1893,-4.1912,-4.2879,-4.3305,-4.3343,-4.4136,-4.4485,-4.4543,-4.5278,-4.5568,-4.5645,-4.6438,-4.6748,-4.6767,-4.6844,-4.6804,-4.6576,0.0,0.0,-0.4882,-0.4902,0.0,0.0,0.0,0.0,-0.4995,-0.4995,-0.4995,-0.4995,-0.5,-0.5001,0.0,-0.4998,-0.507,-0.5182,-0.5356,-0.6765,-0.7693,-0.7867,-0.9361,-1.0196,-1.0196,-1.0196,-1.0196,-1.0196,-1.0205,-1.0191,-1.0197,-1.021,-1.0195,-1.02,-1.0213,-1.0217,-1.0195,-1.0265,-1.0308,-1.0308,-1.0308,-1.0308,-1.0308,-1.0308,-1.0308,0.0,0.0,0.0,0.0,0.0,0.0,0.0,-1.1242,-1.1963,-1.2762,-1.4009,-1.5487,-1.7104,-1.898,-2.126,0.0,0.0,0.0,0.0,0.0,0.0,0.0,0.0,0.0,0.0,0.0,0.0,0.0,0.0,0.0,0.0,0.0,0.0,0.0,0.0,0.0,0.0,0.0,0.0,0.0,0.0,-4.3924,-4.402,-4.3343,-4.3131,-4.2705,-4.2028,-4.1835,-4.1429,-4.081,-4.079,-4.079,-4.079,-4.0984,-4.1061,-4.11,-4.2609,-4.3305,-4.3305,-4.3498,-4.3576,-4.3595,-4.3769,-4.3846,-4.3866,-4.404,-4.4117,-4.4194,-4.4891,-4.5128,-4.5143,0.0,0.0,0.0,0.0,0.0,0.0,0.0,0.0,-0.4995,-0.4995,-0.4995,-0.4997,-0.5005,-0.5005,0.0,0.0,-0.5077,-0.5108,-0.5108,-0.6671,-0.7966,-0.88,-0.9712,-1.0196,-1.0196,-1.0196,-1.0196,-1.0196,-1.0205,-1.0191,-1.0211,-1.0629,-1.0814,-1.0829,-1.0812,-1.0818,-1.0806,-1.0442,-1.0308,-1.0308,-1.0308,-1.0308,-1.0308,-1.0308,-1.0308,-1.0308,-1.0308,0.0,0.0,0.0,0.0,0.0,0.0,0.0,-1.1924,-1.3619,-1.5039,-1.6714,0.0,0.0,0.0,0.0,0.0,0.0,0.0,0.0,0.0,0.0,0.0,0.0,0.0,0.0,0.0,0.0,0.0,0.0,0.0,0.0,0.0,0.0,0.0,0.0,0.0,0.0,0.0,0.0,-4.373,-4.3788,-4.3324,-4.3305,-4.3092,-4.2647,-4.2628,-4.2415,-4.199,-4.1583,-4.1371,-4.1371,-4.0984,-4.079,-4.0829,-4.1699,-4.2106,-4.2125,-4.2512,-4.2686,-4.2705,-4.3131,-4.3305,-4.3305,-4.3305,-4.3305,-4.3363,-4.3808,-4.3892,-4.3843,0.0,0.0,0.0,0.0,0.0,0.0,0.0,0.0,0.0,-0.4995,-0.4995,-0.5,-0.4996,-0.4991,-0.5029,0.0,0.0,0.0,-0.5108,-0.6671,-0.8372,-1.0118,-1.0196,-1.0196,-1.0196,-1.0196,-1.0196,-1.0196,-1.0205,-1.0285,-1.044,-1.1163,-1.1413,-1.1278,-1.1431,-1.1419,-1.1221,-1.058,-1.0308,-1.0308,-1.0308,-1.0308,-1.0308,-1.0308,-1.0308,-1.0308,-1.0308,-1.0308,-1.0308,-1.0308,0.0,0.0,0.0,0.0,-1.0737,-1.2996,-1.4377,-1.5977,0.0,0.0,0.0,0.0,0.0,0.0,0.0,0.0,0.0,0.0,0.0,0.0,0.0,0.0,0.0,0.0,0.0,0.0,0.0,0.0,0.0,0.0,0.0,0.0,0.0,0.0,0.0,0.0,-4.3208,-4.3305,-4.3305,-4.3305,-4.3227,-4.3073,-4.3073,-4.3015,-4.2879,-4.2144,-4.1783,-4.1731,-4.121,-4.0958,-4.0978,-4.1158,-4.1061,-4.0829,-4.1506,-4.1796,-4.1854,-4.257,-4.2879,-4.2879,-4.2879,-4.2879,-4.2899,-4.3015,-4.2941,-4.2768,0.0,0.0,0.0,0.0,0.0,0.0,0.0,0.0,0.0,0.0,-0.4995,-0.5,-0.4996,-0.4991,-0.5029,-0.5093,-0.5103,-0.5108,-0.5108,0.0,0.0,-1.0118,-1.0196,-1.0196,-1.0196,-1.0196,-1.0196,-1.0196,-1.0199,-1.0586,-1.1337,-1.1451,-1.1111,-1.0413,-1.1158,-1.1074,-1.0372,-1.0325,-1.0308,-1.0308,-1.0308,-1.0308,-1.0308,-1.0308,-1.0308,-1.0308,-1.0308,-1.0308,-1.0308,-1.0308,-1.0308,0.0,0.0,0.0,0.0,-1.1534,-1.2996,-1.4554,0.0,0.0,0.0,0.0,0.0,0.0,0.0,0.0,0.0,0.0,0.0,0.0,0.0,0.0,0.0,0.0,0.0,0.0,0.0,0.0,0.0,0.0,0.0,0.0,0.0,0.0,0.0,0.0,-4.2879,-4.3305,-4.3305,-4.3305,-4.2957,-4.2202,-4.2164,-4.1835,-4.1139,-4.1023,-4.0868,-4.0699,-4.1369,-4.1677,-4.1697,-4.2568,-4.2164,-4.081,-4.0906,-4.0965,-4.0965,-4.1081,-4.1119,-4.1119,-4.1119,-4.1119,-4.1216,-4.1912,-4.2151,-4.2193,0.0,0.0,0.0,0.0,0.0,0.0,0.0,0.0,0.0,0.0,0.0,-0.4993,-0.5008,-0.5027,-0.5064,-0.5093,-0.5103,-0.5301,-0.5804,-0.6518,0.0,-0.9397,-0.9474,-0.9709,-1.0196,-1.0196,-1.0196,-1.0196,-1.0196,-1.0641,-1.1511,-1.196,-1.2222,-1.2329,-1.2264,-1.2024,-1.1606,-1.0691,-1.0286,-1.0242,-1.0286,-1.0867,-1.1596,-1.0654,-1.0886,-1.1577,-1.0635,-1.0308,-1.0308,-1.0308,-1.0308,-1.0308,-1.0308,0.0,0.0,0.0,0.0,0.0,0.0,0.0,0.0,0.0,0.0,0.0,0.0,0.0,0.0,0.0,0.0,0.0,0.0,0.0,0.0,0.0,0.0,0.0,0.0,0.0,0.0,0.0,0.0,0.0,0.0,0.0,0.0,0.0,-4.023,-4.0442,-4.0442,-4.0906,-4.1003,-4.0597,-4.099,-4.1059,-4.0693,-4.0617,-4.0519,-4.0383,-4.0784,-4.0976,-4.0995,-4.1928,-4.199,-4.1354,-4.1354,-4.1311,-4.1212,-4.0727,-4.0823,-4.1212,-4.0786,-4.0621,-4.0693,-4.1165,-4.1208,-4.1097,0.0,0.0,0.0,0.0,0.0,0.0,0.0,0.0,0.0,0.0,0.0,-0.5003,-0.5025,0.0,0.0,0.0,-0.5104,-0.5475,-0.6344,0.0,0.0,0.0,-0.8911,-0.93,-1.0177,-1.0196,-1.0196,-1.0196,-1.0196,-1.0757,-1.1817,-1.2417,-1.3276,-1.4283,-1.3461,-1.2869,-1.2393,-1.1147,-1.0587,-1.0559,-1.0822,-1.1672,-1.2706,-1.1886,-1.2348,-1.3228,-1.1538,-1.0941,0.0,0.0,0.0,0.0,0.0,0.0,0.0,0.0,0.0,0.0,0.0,0.0,0.0,0.0,0.0,0.0,0.0,0.0,0.0,0.0,0.0,0.0,0.0,0.0,0.0,0.0,0.0,0.0,0.0,0.0,0.0,0.0,0.0,0.0,0.0,0.0,0.0,0.0,-3.8199,-3.8199,-3.8199,-3.8818,-3.9146,-3.9122,-3.9642,-3.9914,-3.9884,-3.9758,-3.9768,-3.9942,-4.0152,-4.0363,-4.0612,-4.1529,-4.185,-4.1706,-4.195,-4.1997,-4.1855,-4.1184,-4.1318,-4.1816,-4.1104,-4.0808,-4.0773,-4.0731,-4.053,-4.03,0.0,0.0,0.0,0.0,0.0,0.0,0.0,0.0,0.0,0.0,0.0,-0.5017,-0.5087,-0.5093,-0.5098,-0.5108,-0.5108,-0.5475,-0.6344,0.0,0.0,0.0,0.0,0.0,-1.0177,-1.0196,-1.0196,-1.0196,-1.0196,-1.1047,-1.2649,-1.2684,-1.3616,-1.5192,-1.4314,-1.3062,-1.1557,-1.1469,-1.1433,-1.1491,-1.2348,-1.272,-1.2969,-1.4477,-1.5094,-1.4958,-1.328,0.0,0.0,0.0,0.0,0.0,0.0,0.0,0.0,0.0,0.0,0.0,0.0,0.0,0.0,0.0,0.0,0.0,0.0,0.0,0.0,0.0,0.0,0.0,0.0,0.0,0.0,0.0,0.0,0.0,0.0,0.0,0.0,0.0,0.0,0.0,0.0,0.0,0.0,0.0,-3.8199,-3.8199,-3.8199,-3.8237,-3.8221,-3.8092,-3.8117,-3.806,-3.7936,-3.7823,-3.8155,-3.8975,-3.9814,-4.0616,-4.138,-4.2392,-4.2316,-4.1456,-4.2355,-4.2755,-4.2718,-4.2679,-4.2699,-4.2679,-4.2008,-4.1649,-4.1451,-4.0773,-4.0415,-4.0283,0.0,0.0,0.0,0.0,0.0,0.0,0.0,0.0,0.0,0.0,0.0,0.0,0.0,-0.51,-0.5104,-0.5108,-0.5108,0.0,0.0,0.0,0.0,0.0,0.0,0.0,-0.9339,-0.9906,-1.0196,-1.0196,-1.0196,-1.0796,-1.1933,-1.1933,-1.2262,-1.2866,-1.3113,-1.3171,-1.3005,-1.1366,-1.0986,-1.1588,-1.2445,-1.3432,-1.4473,-1.5074,-1.5978,-1.6687,0.0,0.0,0.0,0.0,0.0,0.0,-1.1023,-1.0675,-1.0228,-1.0205,0.0,0.0,0.0,0.0,0.0,0.0,0.0,0.0,0.0,0.0,0.0,0.0,0.0,0.0,0.0,0.0,0.0,0.0,0.0,0.0,0.0,0.0,0.0,0.0,0.0,0.0,0.0,0.0,0.0,0.0,-3.6593,-3.6593,-3.6593,-3.6593,-3.6528,-3.6402,-3.6301,-3.6435,-3.6766,-3.673,-3.7129,-3.7946,-3.825,-3.8554,-3.8877,-4.0326,-4.0781,-4.0509,-4.1941,-4.2248,-4.1772,-4.1772,-4.2077,-4.2536,-4.2374,-4.1973,-4.1514,-4.1853,-4.1549,-4.1074,0.0,0.0,0.0,-0.4899,0.0,-0.4916,-0.4986,-0.5003,-0.501,-0.5027,0.0,0.0,0.0,0.0,-0.5834,-0.5567,-0.5532,-0.5417,-0.5127,-0.5108,0.0,0.0,0.0,0.0,-0.8891,-0.9474,-0.9906,-1.0196,-0.9906,-1.0367,-1.1492,-1.1492,-1.1643,-1.1914,-1.2238,-1.266,0.0,0.0,0.0,-1.2038,0.0,-1.4733,-1.5834,-1.6682,-1.7704,0.0,0.0,0.0,0.0,0.0,0.0,0.0,0.0,-1.1144,-1.0207,-1.0207,-1.1236,0.0,0.0,0.0,0.0,0.0,0.0,0.0,0.0,0.0,0.0,0.0,0.0,0.0,0.0,0.0,0.0,0.0,0.0,0.0,0.0,0.0,0.0,0.0,0.0,0.0,0.0,0.0,0.0,0.0,-3.5704,0.0,-3.5639,-3.562,-3.554,-3.5369,-3.5235,-3.5373,-3.5761,-3.5761,-3.6178,-3.6992,-3.6992,-3.7125,-3.7428,-3.8546,-3.9058,-3.9153,-4.0555,-4.1332,-4.1598,-4.1598,-4.209,-4.2834,-4.2648,-4.2423,-4.2231,-4.2584,-4.2315,-4.181,-0.4878,-0.49,-0.49,-0.4938,-0.4934,-0.4966,-0.5062,-0.5082,-0.5094,-0.5164,0.0,0.0,0.0,0.0,0.0,-0.6501,-0.6415,-0.6034,-0.5185,-0.5108,0.0,0.0,0.0,0.0,-0.8891,-0.893,-0.9358,-1.0196,-0.9358,-0.9803,-1.1453,-1.1453,-1.1875,-1.2591,-1.1817,-1.1453,-1.1511,0.0,-1.2668,-1.2939,0.0,-1.6542,-1.689,0.0,0.0,0.0,-1.8509,-1.7891,0.0,-1.6,0.0,0.0,0.0,-1.1664,-1.0288,-1.0269,-1.0899,0.0,0.0,0.0,0.0,0.0,0.0,0.0,0.0,0.0,0.0,0.0,0.0,0.0,0.0,0.0,0.0,0.0,0.0,0.0,0.0,0.0,0.0,0.0,0.0,0.0,0.0,0.0,0.0,-3.5607,-3.5607,-3.5562,-3.5438,-3.5445,-3.5316,-3.5066,-3.4963,-3.4908,-3.4908,-3.4908,-3.5325,-3.6159,-3.6159,-3.6557,-3.7315,-3.7353,-3.7353,-3.7409,-3.8262,-4.0044,-4.2299,-4.2356,-4.2867,-4.3573,-4.2857,-4.3003,-4.3554,-4.2876,-4.2528,-4.2412,-0.4878,-0.49,-0.5086,-0.5661,-0.5813,-0.6059,-0.6701,-0.6851,-0.6896,0.0,0.0,0.0,-0.7273,-0.7471,-0.7509,-0.7294,-0.6744,-0.6305,-0.6054,-0.5456,-0.5495,-0.6363,-0.7173,-0.8002,-0.8891,-0.9516,-0.9964,-1.0196,-0.9964,-1.0099,-1.0563,-1.0563,-1.068,-1.0873,-1.066,-1.0563,-1.0563,-1.0796,0.0,0.0,-1.4181,-1.5463,0.0,0.0,0.0,0.0,0.0,-2.0211,-1.9606,0.0,-1.7987,-1.6387,0.0,0.0,-1.2071,-1.2018,-1.263,-1.3171,-1.2541,0.0,0.0,0.0,0.0,0.0,0.0,0.0,0.0,0.0,0.0,0.0,0.0,0.0,0.0,0.0,0.0,0.0,0.0,0.0,0.0,0.0,0.0,0.0,0.0,0.0,0.0,0.0,-3.3596,-3.3603,-3.3544,-3.4055,-3.4308,-3.4227,-3.466,-3.4908,-3.4908,-3.4908,-3.5022,-3.5249,-3.5249,-3.5382,-3.5609,-3.6234,-3.6519,-3.6576,-3.739,-3.8509,-3.9816,-4.1029,-4.1673,-4.192,-4.2306,-4.2231,-4.2014,-4.3008,-4.297,-4.2583,-0.582,-0.5903,-0.6051,-0.6515,-0.6662,-0.6882,-0.7412,-0.7525,-0.7567,0.0,0.0,0.0,-0.8598,-0.867,-0.8538,-0.8182,-0.7707,-0.7289,-0.6922,-0.6112,-0.6015,-0.6864,-0.7345,-0.8002,-0.8891,-0.9397,-0.9825,-1.0196,-0.9825,-0.9845,-1.0196,-1.0196,-1.0196,-1.0196,-1.0196,-1.0196,-1.0196,-1.0196,0.0,0.0,-1.4452,0.0,0.0,-1.8993,-1.9954,0.0,0.0,0.0,-2.0985,-2.1333,-2.0057,0.0,0.0,-1.4224,-1.369,-1.292,-1.3577,0.0,0.0,0.0,0.0,0.0,0.0,0.0,0.0,-2.0386,0.0,0.0,0.0,0.0,0.0,0.0,0.0,0.0,0.0,0.0,0.0,0.0,0.0,0.0,0.0,0.0,0.0,-3.2574,-3.2793,-3.2793,-3.2793,-3.2779,-3.2723,-3.3064,-3.3268,-3.3268,-3.3997,-3.4396,-3.4396,-3.4737,-3.4908,-3.4908,-3.4908,-3.4908,-3.4927,-3.542,-3.5647,-3.5704,-3.6538,-3.7182,-3.775,-3.9077,-4.0252,-4.1256,-4.173,-4.1825,-4.1825,-4.281,-4.2848,-4.2545,0.0,-0.729,-0.7327,-0.7425,-0.7503,-0.7599,-0.7755,-0.778,-0.7816,0.0,-0.8559,-0.9314,-1.0017,-1.0154,-0.989,-0.9108,-0.8963,-0.856,-0.7787,-0.6978,-0.6903,-0.7712,-0.7751,-0.8157,-0.9027,-0.9046,-0.9416,-1.0196,-0.9416,-0.9436,-1.0196,-1.0196,-1.0196,-1.0196,-1.0196,-1.0196,-1.0215,-1.0293,-1.1315,-1.3055,-1.5376,-1.6904,0.0,0.0,-2.0321,-2.0534,-2.1495,-2.1823,-2.1959,-2.2765,-2.1411,0.0,0.0,-1.5807,-1.54,-1.3752,-1.4351,0.0,-1.4641,-1.5628,0.0,0.0,0.0,0.0,-2.0624,-2.0076,-1.9631,0.0,0.0,0.0,0.0,0.0,0.0,0.0,0.0,0.0,0.0,0.0,0.0,0.0,0.0,0.0,-3.1085,-3.1852,-3.2382,-3.2478,-3.2478,-3.2441,-3.2305,-3.2286,-3.2274,-3.2274,-3.3107,-3.3562,-3.3562,-3.4263,-3.4624,-3.4624,-3.4718,-3.4775,-3.4775,-3.4851,-3.4908,-3.4946,-3.5723,-3.6102,-3.6253,-3.6973,-3.8717,-4.0915,-4.0915,-4.1408,-4.2147,-4.2242,-4.228,-4.228,-0.7266,-0.729,-0.7518,-0.8223,-0.8397,-0.8699,-0.94,-0.9552,-0.9587,-0.9614,-0.9809,-0.9989,-1.0094,-1.0157,-1.0128,-0.9957,-0.9311,-0.8828,-0.8667,-0.7835,-0.7743,-0.8601,-0.864,-0.9049,-0.9925,-0.9944,-1.0022,-1.0196,-1.0022,-1.0022,-1.0196,-1.0196,-1.0196,-1.0196,-1.0196,-1.0196,-1.0254,-1.095,0.0,-1.3786,-1.4308,0.0,-1.791,-1.8954,-1.978,-2.0592,-2.2126,-2.2668,-2.2803,-2.3654,-2.2726,-2.0992,0.0,0.0,-1.8142,-1.7117,-1.7059,-1.7272,-1.7098,-1.7813,-1.849,-1.7949,0.0,0.0,-1.8722,-1.8297,-1.8393,0.0,0.0,0.0,0.0,0.0,0.0,0.0,0.0,0.0,0.0,0.0,0.0,0.0,0.0,0.0,-2.9159,-2.9399,-2.9775,-3.0421,-3.0478,-3.0443,-3.043,-3.1078,-3.144,-3.144,-3.2236,-3.2653,-3.2653,-3.2823,-3.2899,-3.2899,-3.36,-3.3922,-3.396,-3.4605,-3.4908,-3.4908,-3.5078,-3.5552,-3.6196,-3.6367,-3.7504,-3.9191,-3.9191,-3.9683,-4.0457,-4.1181,-4.1446,-4.1541,-0.8458,-0.8539,-0.8687,-0.9114,-0.9233,-0.9399,-0.9886,-0.9979,-1.0148,-1.0583,-1.0679,-1.0522,-1.0105,-1.007,-1.0097,-1.01,-0.9701,-0.9456,-0.9452,-0.8639,-0.8532,-0.9418,-0.9068,-0.9264,-1.0133,-1.0152,-1.0152,-1.0152,-1.0152,-1.0152,-1.0152,-1.0152,-1.036,-1.0722,-1.0321,-1.039,-1.0807,-1.0791,-1.1787,-1.3477,-1.4777,0.0,-1.8548,-1.9418,-2.0012,-2.0611,-2.23,-2.3461,-2.4138,-2.3693,-2.3287,0.0,0.0,-2.0676,-2.0656,0.0,-1.8761,-1.8993,-1.8567,-1.878,-1.9109,-1.9109,0.0,0.0,0.0,-1.8761,-1.8819,-2.0134,0.0,0.0,0.0,0.0,0.0,0.0,0.0,0.0,0.0,0.0,0.0,0.0,0.0,0.0,-2.8066,-2.8104,-2.8275,-2.8673,-2.9071,-2.9301,-2.9301,-3.0097,-3.0549,-3.0549,-3.1364,-3.18,-3.18,-3.2198,-3.2406,-3.2406,-3.2842,-3.3278,-3.3714,-3.4112,-3.4529,-3.4908,-3.4908,-3.5154,-3.5552,-3.5552,-3.6291,-3.7485,-3.7883,-3.8546,-3.9342,-3.9797,-4.0214,-4.0612,-0.9671,-0.9801,-0.9801,-0.9801,-0.9815,-0.983,-0.9894,-0.9913,-1.0232,-1.1093,-1.1339,-1.1238,-1.0751,-1.0692,-1.0768,-1.0922,-1.0654,-1.0451,-1.047,-0.9662,-0.943,-0.9982,-0.9377,-0.9367,-1.0067,-1.0072,-1.0072,-1.0086,-1.0091,-1.0095,-1.0072,-1.0095,-1.0459,-1.1043,-1.055,-1.0726,0.0,0.0,0.0,-1.3618,0.0,-1.7402,-1.8722,-1.9761,-2.0147,-2.0379,-2.2228,-2.4014,-2.526,-2.3678,-2.3608,-2.3809,-2.1585,-2.1817,0.0,0.0,0.0,0.0,0.0,0.0,0.0,0.0,0.0,-2.0095,0.0,0.0,0.0,-2.074,0.0,0.0,0.0,0.0,0.0,0.0,0.0,0.0,0.0,0.0,0.0,0.0,0.0,0.0,-2.7228,-2.7247,-2.7323,-2.7494,-2.7953,-2.8294,-2.8464,-2.9225,-2.9661,-2.9661,-3.0511,-3.0947,-3.0947,-3.1591,-3.1933,-3.1933,-3.2103,-3.2539,-3.3221,-3.3543,-3.4055,-3.468,-3.4832,-3.4908,-3.4908,-3.4908,-3.5306,-3.6026,-3.6841,-3.7675,-3.8454,-3.8454,-3.8963,-3.9683,-0.9775,-0.9801,-0.9801,-0.9801,-0.9843,-0.9894,-0.99,-0.9948,-1.0279,-1.1081,-1.1818,-1.2499,-1.3108,-1.3244,0.0,0.0,0.0,0.0,-1.2126,-1.1377,-1.0643,-1.0033,-0.991,-0.9901,-1.0001,-1.0006,-1.0006,-1.0001,-1.0077,-1.0072,-1.002,-1.0072,-1.0153,-1.0268,-1.0895,0.0,0.0,0.0,-1.3821,0.0,-1.6381,-1.6667,0.0,-1.8645,-1.9244,-1.9561,-2.1937,-2.3967,-2.5348,0.0,-2.4072,-2.4002,0.0,-2.2745,-2.2842,0.0,0.0,0.0,0.0,0.0,0.0,0.0,-2.259,0.0,0.0,0.0,-1.9877,-1.8529,0.0,0.0,0.0,0.0,0.0,0.0,0.0,0.0,0.0,0.0,0.0,0.0,0.0,0.0,0.0,-2.6356,-2.6679,-2.7437,-2.6868,-2.6816,-2.7608,-2.8408,-2.8828,-2.8828,-2.9623,-3.004,-3.004,-3.0135,-3.0173,-3.0191,-3.0985,-3.1402,-3.1535,-3.3013,-3.3752,-3.3884,-3.4586,-3.4908,-3.4908,-3.4908,-3.4965,-3.5135,-3.5988,-3.6822,-3.7542,-3.7542,-3.8092,-3.8831,-0.9794,-0.9801,-0.9801,-0.9801,-0.9817,-0.9837,-0.9837,-1.0653,-1.1229,-1.1098,-1.2221,-1.3175,0.0,0.0,0.0,0.0,0.0,-1.3316,0.0,0.0,-1.1213,-0.9931,-0.9887,-0.9899,-0.9941,-0.9938,-0.9938,-0.9941,-0.9974,-0.9965,-0.9936,-1.0005,-1.0282,-1.0777,-1.1609,0.0,-1.2812,0.0,-1.3978,0.0,0.0,0.0,0.0,-1.871,-2.0038,-2.0627,-2.2199,-2.3553,-2.4562,0.0,-2.4052,0.0,0.0,0.0,0.0,0.0,0.0,0.0,0.0,0.0,0.0,0.0,0.0,0.0,-2.0921,0.0,-2.0282,0.0,0.0,0.0,0.0,0.0,0.0,0.0,0.0,0.0,0.0,0.0,0.0,0.0,0.0,0.0,0.0,-2.475,-2.511,-2.5977,-2.5712,-2.5882,-2.6698,-2.7536,-2.8218,-2.8676,-2.9017,-2.9415,-2.9888,-2.9888,-2.9888,-2.9888,-3.0267,-3.072,-3.1231,-3.1933,-3.2785,-3.3714,-3.4055,-3.4472,-3.4908,-3.4908,-3.4908,-3.4946,-3.5306,-3.595,-3.6689,-3.6689,-3.722,-3.794,-0.9794,0.0,-0.9801,-0.9801,-0.9801,-0.9875,-1.0098,-1.1119,-1.1824,-1.1694,-1.2938,0.0,-1.4441,-1.4478,0.0,0.0,-1.5611,-1.4831,0.0,0.0,-1.2138,-1.1184,-1.0271,-1.003,-1.0525,-1.0107,-0.9869,-0.9869,-0.99,-0.9893,-0.9893,-0.9971,-1.0309,-1.0916,-1.2015,-1.2971,-1.3804,0.0,0.0,-1.5271,-1.5627,-1.6029,-1.6686,-1.8992,-2.0638,-2.1847,-2.2441,-2.3389,-2.4272,-2.3992,-2.3956,0.0,-2.3937,0.0,0.0,0.0,0.0,0.0,-2.3697,0.0,0.0,0.0,0.0,0.0,0.0,0.0,0.0,0.0,0.0,0.0,0.0,0.0,0.0,0.0,0.0,-2.1111,0.0,0.0,0.0,0.0,0.0,0.0,0.0,-2.3158,-2.3461,-2.4561,0.0,-2.4782,-2.5825,-2.6679,-2.7403,-2.801,-2.8449,-2.8979,-2.9566,-2.9775,-2.9888,-2.9888,-2.9888,-3.0229,-3.0852,-3.1099,-3.1857,-3.3032,-3.3259,-3.3809,-3.4567,-3.4567,-3.4699,-3.4908,-3.4908,-3.5287,-3.5836,-3.5836,-3.6348,-3.7068,-0.9794,-0.9801,0.0,0.0,-0.9801,-1.0061,-1.084,-1.1007,-1.1601,-1.3207,0.0,0.0,0.0,0.0,0.0,0.0,0.0,-1.7003,-1.6947,0.0,-1.3783,-1.4507,-1.1498,-1.0525,0.0,-1.0606,-0.9806,-0.9806,-0.9863,-0.9893,-0.9893,-0.9971,-1.0006,-1.012,-1.175,-1.2985,-1.385,-1.4623,-1.6385,-1.8564,-1.7756,-1.8384,-1.9787,0.0,-2.0495,-2.2652,-2.2618,0.0,0.0,-2.4114,-2.3842,0.0,0.0,0.0,0.0,0.0,0.0,0.0,0.0,0.0,0.0,-2.3112,0.0,0.0,0.0,0.0,-2.1377,0.0,0.0,0.0,0.0,0.0,-2.1942,-2.0308,-2.1396,0.0,0.0,0.0,0.0,0.0,0.0,0.0,0.0,0.0,-2.1964,0.0,-2.3026,-2.3291,-2.4953,-2.5806,-2.6261,-2.6266,-2.7858,-2.8714,-2.8733,-2.951,-2.9888,-2.9888,-2.9888,-2.9907,-2.9964,-3.0833,-3.1231,-3.1326,-3.2103,-3.2937,-3.3733,-3.3733,-3.4207,-3.4908,-3.4908,-3.4927,-3.4946,-3.4946,-3.5495,-3.6234,0.0,0.0,0.0,0.0,0.0,-1.0061,-1.0877,-1.1935,-1.303,0.0,0.0,0.0,0.0,-1.7771,-1.8269,0.0,0.0,-1.8284,-1.717,-1.5833,0.0,0.0,0.0,-1.1638,0.0,-1.1153,-1.0324,-0.9803,-0.9812,-0.9838,-0.9838,-0.9894,-0.9936,-1.0024,0.0,-1.3715,0.0,0.0,0.0,0.0,0.0,-1.8779,-2.077,0.0,-2.0972,-2.1847,-2.2954,-2.3707,0.0,-2.4512,-2.4264,-2.3923,-2.4467,-2.4289,-2.406,-2.4885,-2.5168,-2.5192,0.0,0.0,-2.4866,-2.3772,0.0,0.0,0.0,0.0,0.0,0.0,0.0,0.0,0.0,0.0,-2.1487,-2.0884,-2.0827,-2.0164,0.0,0.0,0.0,0.0,0.0,0.0,0.0,0.0,0.0,0.0,-2.2646,0.0,-2.4915,-2.5256,-2.5655,-2.6186,-2.7308,-2.8161,-2.8676,-2.9491,-2.9888,-2.9888,-2.9888,-2.9888,-2.9907,-3.021,-3.0663,-3.1231,-3.1497,-3.2084,-3.288,-3.3468,-3.3866,-3.4169,-3.468,-3.4908,-3.4908,-3.4908,-3.5097,-3.542,-0.972,0.0,0.0,0.0,0.0,0.0,-1.1304,0.0,0.0,0.0,-1.6059,0.0,-1.8658,0.0,-1.939,0.0,-2.0074,-1.9411,-1.8079,-1.6947,0.0,-1.5982,-1.4126,0.0,0.0,0.0,-1.1498,-1.0696,-1.0408,-1.0111,-0.9825,-0.9875,-0.9894,-0.9994,0.0,-1.3789,-1.4963,0.0,-1.7659,0.0,0.0,-1.9733,0.0,0.0,-2.2073,-2.223,0.0,-2.3897,-2.4238,-2.482,-2.4657,-2.4315,-2.4834,-2.467,-2.4393,-2.4905,-2.5101,-2.5141,-2.5141,-2.5113,0.0,-2.4049,-2.3404,0.0,-2.1577,0.0,-2.1741,0.0,0.0,0.0,0.0,0.0,-2.1888,-2.1301,-2.077,-1.9747,0.0,-1.7018,0.0,0.0,0.0,0.0,0.0,0.0,-2.0145,-2.1907,-2.1775,0.0,0.0,-2.4839,-2.5237,-2.5768,-2.6603,-2.7441,-2.8275,-2.9071,-2.9623,-2.9888,-2.9888,-2.9888,-2.9888,-2.9888,-3.021,-3.0739,-3.0739,-3.1212,-3.2027,-3.2577,-3.3164,-3.3752,-3.4263,-3.4643,-3.4908,-3.4908,-3.4908,-3.4984,0.0,0.0,0.0,0.0,-1.0499,0.0,0.0,0.0,-1.5129,0.0,-1.7729,-1.8822,-2.0189,-2.0509,-2.0939,-2.1711,-2.1068,-2.0378,-1.974,-1.8141,0.0,0.0,-1.6082,-1.5507,-1.7065,0.0,0.0,0.0,-1.1442,-1.0642,-0.99,-0.99,-0.99,-0.9976,-1.1648,0.0,-1.4907,-1.6576,-1.829,-1.996,-2.085,-2.1214,-2.141,-2.3005,-2.3661,-2.3752,-2.3765,-2.4295,-2.501,-2.501,-2.501,-2.501,-2.501,-2.501,-2.501,-2.501,-2.501,-2.501,-2.501,-2.501,-2.4801,-2.3973,-2.3727,0.0,0.0,0.0,-2.2552,0.0,0.0,0.0,0.0,0.0,0.0,-2.1472,-2.113,-2.0259,0.0,0.0,0.0,0.0,0.0,0.0,0.0,0.0,-1.7634,-2.0789,-2.0391,0.0,0.0,-2.4447,-2.4915,-2.501,-2.5787,-2.6603,-2.7437,-2.8275,-2.9074,-2.9832,-2.9869,-2.9888,-2.9888,-2.9888,-2.9888,-2.9888,-2.9888,-3.0362,-3.1137,-3.1193,-3.2141,-3.3581,-3.3676,-3.4188,-3.4908,-3.4908,-3.4889,-3.4927,-0.963,-1.011,-1.0703,0.0,-1.1166,-1.1455,0.0,0.0,0.0,0.0,-1.8762,-1.9939,-2.0797,-2.104,-2.1188,-2.1424,-2.1316,0.0,0.0,0.0,0.0,-1.9813,-1.7596,-1.6527,-1.6951,-1.4677,0.0,-1.2231,0.0,-1.0033,-0.9817,-0.9817,-0.983,-0.9894,0.0,0.0,-1.482,-1.6466,-1.8161,-1.9826,-2.0664,-2.1365,-2.2063,0.0,-2.3911,-2.4448,-2.4507,-2.4714,-2.501,-2.501,-2.501,-2.501,-2.501,-2.501,-2.501,-2.501,-2.501,-2.501,-2.501,-2.501,-2.4953,-2.4712,-2.4182,-2.3594,0.0,0.0,0.0,0.0,0.0,0.0,0.0,0.0,0.0,0.0,-2.0153,0.0,0.0,0.0,0.0,0.0,0.0,0.0,0.0,0.0,-1.8174,-1.8429,-1.9406,0.0,0.0,0.0,-2.3708,-2.4972,-2.5787,-2.6318,-2.6527,-2.7972,-2.879,-2.9017,-2.9604,-2.9888,-2.9888,-2.9888,-2.9888,-2.9888,-2.9888,-3.0021,-3.0267,-3.0928,-3.1459,-3.197,-3.3202,-3.4188,-3.4908,-3.4908,-3.4963,-3.5035,-1.0159,0.0,0.0,-1.2811,0.0,0.0,-1.4142,-1.5062,0.0,-1.8131,-1.9451,0.0,-2.1137,-2.188,-2.2337,-2.2337,-2.209,0.0,-2.1516,0.0,0.0,-1.9842,-1.894,-1.8258,-1.7925,-1.6298,0.0,-1.3212,0.0,-1.0811,-0.9801,-0.9801,-0.9796,-0.9872,0.0,-1.2928,0.0,-1.666,-1.8454,-1.9812,-2.0998,-2.1756,0.0,-2.3536,-2.4282,-2.4707,-2.4707,-2.4768,-2.4861,-2.4861,-2.4889,-2.4903,-2.4903,-2.495,-2.501,-2.501,-2.501,-2.501,-2.501,-2.501,-2.501,-2.501,-2.4617,-2.4163,-2.3784,-2.3682,-2.3669,0.0,-2.4047,-2.435,0.0,0.0,0.0,0.0,0.0,0.0,0.0,0.0,0.0,0.0,0.0,0.0,0.0,-1.5748,-1.7208,-1.7482,-1.8372,0.0,0.0,0.0,-2.3461,-2.439,-2.5224,-2.5844,-2.6205,-2.7138,-2.7972,-2.8695,-2.915,-2.9547,-2.9888,-2.9888,-2.9888,-2.9888,-2.9888,-2.9888,-2.9926,-3.0435,-3.0871,-3.1383,-3.3051,-3.3979,-3.4415,-3.4775,-3.4945,-3.5,0.0,0.0,0.0,0.0,0.0,0.0,0.0,-1.6145,0.0,-1.9087,0.0,-2.1006,-2.152,-2.2836,-2.3671,-2.3671,0.0,-2.2393,-2.1805,-2.166,-2.0971,-1.9575,-2.0171,-2.0152,-1.935,-1.8458,-1.683,0.0,-1.3578,-1.1995,-0.9801,-0.9801,-0.9801,-0.9875,0.0,0.0,0.0,-1.713,-1.8889,-1.9836,-2.1498,-2.2168,-2.2356,-2.398,-2.4613,-2.466,-2.4615,-2.4647,-2.4707,-2.4707,-2.4753,-2.4779,-2.4779,-2.4875,-2.495,-2.495,-2.495,-2.495,-2.495,-2.495,-2.495,-2.495,-2.495,-2.4761,-2.4004,-2.3779,-2.3738,-2.3738,-2.3752,-2.3941,-2.453,0.0,0.0,0.0,0.0,0.0,0.0,0.0,0.0,0.0,0.0,0.0,0.0,0.0,-1.5843,-1.7085,-1.7274,0.0,0.0,0.0,-2.3367,-2.3689,-2.4542,-2.5351,-2.6053,-2.6148,-2.6986,-2.854,-2.8638,-2.9112,-2.9888,-2.9888,-2.9888,-2.9888,-2.9888,-2.9888,-2.9888,-2.9888,-3.04,-3.1345,-3.2804,-3.3505,-3.3771,-3.4472,-3.4813,-3.4908,0.0,0.0,0.0,0.0,0.0,-1.768,-1.9022,-1.9273,-1.965,-2.0614,-2.2046,-2.3012,-2.3093,-2.3361,-2.3544,-2.3544,-2.3419,0.0,0.0,0.0,0.0,-2.1762,-2.136,-2.0788,-2.0029,-1.8632,-1.6798,0.0,-1.2963,-1.1397,-0.9801,-0.9801,-0.9801,-0.9875,0.0,0.0,-1.6557,-1.7795,0.0,-1.9759,-2.1392,-2.2043,-2.2229,-2.3884,-2.4515,-2.4515,-2.4534,-2.4599,-2.4707,-2.4707,-2.4707,-2.4723,-2.4723,-2.4738,-2.4753,-2.4753,-2.4753,-2.4753,-2.4753,-2.4753,-2.4753,-2.4753,-2.4753,-2.4716,-2.455,-2.4531,-2.4516,-2.4516,-2.4542,-2.4417,-2.3903,0.0,0.0,0.0,0.0,0.0,0.0,0.0,0.0,0.0,0.0,0.0,0.0,0.0,-1.662,-1.5529,0.0,0.0,0.0,0.0,-2.1585,0.0,-2.4542,-2.5067,0.0,0.0,-2.6716,-2.7721,-2.8389,-2.9112,-2.9888,-2.9888,-2.9888,-2.9888,-2.9888,-2.9888,-2.9888,-2.9888,-3.04,-3.1231,-3.1516,-3.2482,-3.3714,-3.3866,-3.432,-3.4908,0.0,0.0,0.0,0.0,0.0,0.0,0.0,-2.1363,-2.1985,-2.1276,-2.187,-2.2353,-2.2353,-2.3039,-2.3494,-2.3494,-2.3494,-2.3494,-2.3494,-2.3142,-2.2732,-2.2303,-2.1974,0.0,-2.0671,-1.956,-1.7866,-1.5533,-1.3962,-1.2219,-1.0363,-0.9983,-1.0024,-1.0506,0.0,-1.4726,0.0,0.0,0.0,-2.027,-2.1962,-2.2627,-2.2757,-2.4035,-2.45,-2.45,-2.45,-2.4532,-2.4599,-2.4599,-2.4631,-2.4645,-2.4645,-2.4676,-2.4707,-2.4707,-2.4707,-2.4707,-2.4707,-2.4707,-2.4707,-2.4707,-2.4707,-2.4707,-2.4707,-2.4676,-2.4645,-2.4645,-2.4707,-2.452,-2.3793,-2.3019,0.0,0.0,0.0,0.0,0.0,0.0,0.0,0.0,0.0,0.0,0.0,0.0,0.0,0.0,0.0,0.0,0.0,0.0,-2.096,0.0,0.0,0.0,-2.501,0.0,-2.5996,-2.6849,-2.7669,-2.8502,-2.9282,-2.9699,-2.9888,-2.9888,-2.9888,-2.9888,-2.9888,-2.9888,-3.0135,-3.0587,-3.1023,-3.1686,-3.252,-3.3373,-3.3941,-3.4339,0.0,-1.5981,0.0,0.0,-1.9383,0.0,-2.0877,-2.2847,-2.377,-2.221,-2.198,-2.198,-2.2019,-2.2901,-2.3494,-2.3494,-2.3494,-2.3494,-2.3494,-2.3494,-2.3231,-2.2571,-2.2553,-2.2178,-2.1375,-2.0626,-1.9093,0.0,-1.5252,-1.3472,-1.1388,-1.0613,-1.0766,-1.1782,-1.3637,0.0,0.0,0.0,-1.9926,-2.0988,-2.2545,-2.3169,-2.3295,-2.4184,-2.45,-2.45,-2.45,-2.45,-2.45,-2.45,-2.4551,-2.4582,-2.4582,-2.4596,-2.466,-2.466,-2.466,-2.466,-2.466,-2.466,-2.466,-2.466,-2.466,-2.466,-2.466,-2.4631,-2.4582,-2.4582,-2.4629,-2.4479,-2.3793,-2.3277,0.0,0.0,0.0,0.0,0.0,0.0,0.0,0.0,0.0,0.0,0.0,0.0,0.0,0.0,0.0,0.0,-1.7691,0.0,0.0,0.0,0.0,-2.403,-2.4712,0.0,-2.5408,-2.6223,-2.7077,-2.7915,-2.8733,-2.9529,-2.9888,-2.9888,-2.9888,-2.9888,-2.9888,-2.9888,-2.9888,-2.9964,-3.0663,-3.1042,-3.1383,-3.288,-3.3543,-3.3828,0.0,0.0,0.0,0.0,0.0,0.0,-2.2454,-2.3804,-2.4572,-2.4403,-2.4218,-2.4176,-2.4355,-2.3856,-2.3494,-2.3494,-2.3494,-2.3494,-2.3494,-2.3494,-2.3481,-2.3387,-2.3392,-2.3017,-2.2196,-2.1411,-1.9879,0.0,0.0,-1.4542,-1.3065,-1.2136,-1.2524,-1.401,-1.4217,-1.6019,-1.8913,-1.9059,-2.0126,-2.1782,-2.2664,-2.3084,-2.3295,-2.4184,-2.45,-2.45,-2.45,-2.45,-2.45,-2.45,-2.45,-2.4517,-2.4517,-2.4517,-2.4517,-2.4517,-2.4517,-2.4517,-2.4517,-2.4517,-2.4517,-2.4517,-2.4517,-2.4517,-2.4517,-2.4517,-2.4517,-2.4517,-2.4566,-2.4404,-2.3656,-2.4046,-2.402,0.0,0.0,0.0,0.0,0.0,0.0,0.0,0.0,0.0,0.0,-1.6734,0.0,0.0,0.0,0.0,-1.8467,-1.8732,0.0,-2.2419,-2.3272,-2.3746,-2.3821,-2.4598,-2.5408,-2.6223,-2.7077,-2.7915,-2.8733,-2.9529,-2.9888,-2.9888,-2.9888,-2.9888,-2.9888,-2.9888,-2.9888,-2.9907,-2.9983,-3.0511,-3.1307,-3.2198,-3.3032,-3.3828,0.0,0.0,0.0,0.0,0.0,0.0,0.0,-2.5229,-2.504,-2.5108,-2.5121,-2.5154,-2.5222,-2.4646,-2.423,-2.423,-2.3761,-2.3494,-2.3494,-2.3494,-2.3494,-2.3494,-2.3494,-2.3356,-2.3035,-2.2232,-2.0914,0.0,0.0,0.0,-1.4554,-1.3721,-1.4204,-1.5782,-1.6667,-1.8043,-1.9758,-2.0771,-2.1624,-2.2354,-2.3327,-2.375,-2.3859,-2.4316,-2.45,-2.45,-2.45,-2.45,-2.45,-2.45,-2.45,-2.45,-2.45,-2.45,-2.45,-2.45,-2.45,-2.45,-2.45,-2.45,-2.45,-2.45,-2.45,-2.45,-2.45,-2.45,-2.45,-2.45,-2.4549,-2.4519,-2.4279,-2.4091,-2.3938,-2.3761,0.0,0.0,0.0,0.0,0.0,0.0,0.0,0.0,0.0,0.0,0.0,0.0,0.0,-1.5862,-1.7861,-1.8429,0.0,-2.1661,0.0,-2.3689,-2.3689,-2.4561,-2.5162,-2.5503,-2.6318,-2.7172,-2.801,-2.8825,-2.9434,-2.9888,-2.9888,-2.9888,-2.9888,-2.9888,-2.9888,-2.9888,-2.9888,-3.0097,-3.053,-3.1383,-3.2217,-3.3051,-1.8211,0.0,-2.2572,0.0,-2.3382,-2.4665,-2.652,-2.595,-2.538,-2.5592,-2.5799,-2.5869,-2.5752,-2.5252,-2.491,-2.496,-2.4444,-2.4147,-2.4153,-2.4195,-2.4088,-2.3873,-2.3832,0.0,-2.3494,-2.2714,-2.1768,-2.068,-1.9129,0.0,-1.6772,-1.6023,-1.6366,-1.7722,-1.8752,-1.9793,-2.0816,-2.2006,-2.2679,-2.2994,-2.376,-2.4096,-2.4154,-2.4339,-2.4393,-2.4358,-2.4393,-2.4411,-2.4411,-2.4411,-2.4446,-2.45,-2.45,-2.45,-2.45,-2.45,-2.45,-2.45,-2.45,-2.45,-2.45,-2.45,-2.45,-2.45,-2.45,-2.45,-2.45,-2.45,-2.4551,-2.4582,-2.4629,-2.4179,-2.3899,-2.4229,0.0,0.0,0.0,0.0,0.0,0.0,-2.0126,-1.9482,-1.9111,0.0,0.0,0.0,0.0,-1.6715,-1.8164,-1.8524,0.0,0.0,0.0,0.0,-2.3689,-2.4561,-2.501,-2.501,-2.5825,-2.6527,-2.7153,-2.8218,-2.9131,-2.9888,-2.9888,-2.9888,-2.9888,-2.9888,-2.9888,-2.9888,-2.9888,-2.9888,-3.0002,-3.089,-3.1572,-3.2217,-1.8211,-2.2175,-2.5567,-2.5567,-2.6505,-2.6875,-2.5787,-2.5616,-2.5717,-2.6052,-2.6437,-2.6534,-2.6122,-2.5673,-2.5446,-2.5588,-2.557,-2.5648,-2.5758,-2.5783,-2.5461,0.0,0.0,-2.432,-2.3512,-2.2714,-2.2285,-2.2268,0.0,0.0,-2.0029,-1.9237,-1.9237,-1.9948,-1.9984,-2.084,-2.2271,-2.2307,-2.2841,-2.3674,-2.3692,-2.3816,-2.4016,-2.4154,-2.4115,-2.4016,-2.4154,-2.421,-2.421,-2.421,-2.4339,-2.45,-2.45,-2.45,-2.45,-2.45,-2.45,-2.45,-2.45,-2.45,-2.45,-2.45,-2.45,-2.45,-2.45,-2.45,-2.45,-2.45,-2.45,-2.45,-2.45,-2.4481,-2.4219,-2.3446,0.0,0.0,0.0,0.0,0.0,0.0,-1.9244,-1.9054,-1.9899,0.0,0.0,0.0,0.0,-1.9035,-1.9918,-1.9149,0.0,-2.24,-2.3272,0.0,-2.3689,-2.4561,-2.501,-2.501,-2.5825,-2.6223,-2.628,-2.7953,-2.9131,-2.9888,-2.9888,-2.9888,-2.9888,-2.9888,-2.9888,-2.9888,-2.9888,-2.9888,-3.0002,-3.089,-3.1212,-3.1476,-2.2848,-2.4531,-2.5616,-2.5616,-2.5897,-2.6043,-2.5654,-2.5616,-2.5637,-2.5733,-2.5881,-2.5964,-2.6049,-2.5928,-2.5901,0.0,-2.5662,-2.549,0.0,-2.5614,-2.5559,-2.5329,-2.5412,-2.5337,-2.5069,-2.432,-2.3677,-2.3124,0.0,-2.1289,-2.0793,-2.0505,-2.0827,-2.1554,-2.1554,-2.2143,-2.3124,-2.3124,-2.3289,-2.3571,-2.3667,-2.3735,-2.3816,-2.3998,-2.4036,-2.4016,-2.4056,-2.4115,-2.4192,-2.4192,-2.4229,-2.4303,-2.4303,-2.4393,-2.45,-2.45,-2.45,-2.45,-2.45,-2.45,-2.45,-2.45,-2.45,-2.45,-2.45,-2.45,-2.45,-2.45,-2.45,-2.45,-2.45,-2.45,-2.4407,-2.4161,-2.3995,0.0,-2.2041,0.0,0.0,0.0,-1.9766,-1.9709,0.0,-1.952,0.0,0.0,0.0,0.0,-1.9955,0.0,0.0,0.0,-2.3537,0.0,-2.3708,-2.4561,-2.501,-2.501,-2.5256,-2.5977,-2.7115,-2.8218,-2.9131,-2.9888,-2.9888,-2.9888,-2.9888,-2.9888,-2.9888,-2.9888,-2.9888,-2.9888,-2.9926,-3.021,-3.075,-3.142,-2.526,-2.5616,-2.5616,-2.5616,-2.5616,-2.5616,-2.5616,-2.5616,-2.5616,-2.5616,-2.5616,-2.5637,-2.5844,-2.5983,0.0,-2.6316,-2.6074,-2.5964,-2.6109,-2.6205,-2.6166,-2.5985,-2.6074,-2.5967,-2.5743,-2.528,-2.4824,-2.4349,-2.3588,-2.2785,-2.2,-2.2,-2.2268,-2.2749,-2.2749,-2.3035,-2.3494,-2.3494,-2.3494,-2.3517,-2.3576,-2.3602,-2.3642,-2.3834,-2.3873,-2.381,-2.3876,-2.4137,-2.4456,-2.4456,-2.4514,-2.4629,-2.4902,-2.4669,-2.4321,-2.4375,-2.4429,-2.45,-2.45,-2.45,-2.45,-2.45,-2.45,-2.45,-2.45,-2.45,-2.45,-2.45,-2.45,-2.45,-2.45,-2.45,-2.45,-2.45,-2.391,-2.3146,-2.2289,0.0,0.0,0.0,0.0,0.0,0.0,-2.0581,-2.0941,0.0,0.0,0.0,0.0,0.0,-2.2059,-2.2135,-2.3992,-2.4731,-2.4182,-2.4745,-2.501,-2.501,-2.501,-2.5712,-2.7039,-2.7877,-2.8692,-2.9472,-2.9756,-2.9888,-2.9888,-2.9888,-2.9888,-2.9888,-2.9888,-2.9888,-2.9888,-2.9888,-3.0345,-3.0967,-2.5616,-2.5616,-2.5616,-2.5616,-2.5616,-2.5616,-2.5616,-2.5616,-2.5616,-2.5616,-2.5616,-2.5616,-2.5616,-2.5807,-2.6154,-2.659,-2.6657,0.0,-2.7192,-2.7241,-2.707,-2.6632,-2.6626,-2.636,-2.5712,-2.5685,-2.5693,-2.5775,-2.5098,-2.4367,-2.3654,-2.3654,-2.3654,-2.3654,-2.3654,-2.3654,-2.3654,-2.3654,-2.3654,-2.3654,-2.3654,-2.3654,-2.3659,-2.3786,-2.3759,-2.3682,-2.3808,-2.4338,-2.4987,-2.4987,-2.5117,-2.5375,-2.6081,-2.5281,-2.4162,-2.4264,-2.4376,-2.4482,-2.45,-2.4482,-2.4465,-2.4482,-2.4482,-2.4465,-2.4465,-2.4482,-2.4482,-2.4482,-2.45,-2.45,-2.45,-2.45,-2.4481,-2.4425,-2.3785,-2.3026,-2.2137,-2.1424,-2.0753,0.0,0.0,0.0,-2.0229,-2.1642,-2.2552,0.0,0.0,0.0,0.0,0.0,-2.2097,-2.3651,-2.4542,-2.501,-2.501,-2.501,-2.501,-2.501,-2.501,-2.5427,-2.6242,-2.7096,-2.7934,-2.8733,-2.9547,-2.9888,-2.9888,-2.9888,-2.9888,-2.9888,-2.9888,-2.9888,-2.9888,-2.9888,-2.9984,-3.0252,-2.5616,-2.5616,-2.5616,-2.5616,-2.5616,-2.5616,-2.5616,-2.5616,-2.5616,-2.5616,-2.5616,-2.5616,-2.5616,-2.5654,-2.5749,-2.5844,-2.6208,-2.6505,-2.6607,-2.6741,-2.6805,-2.6667,-2.6968,-2.7048,-2.6887,-2.6538,-2.6126,-2.564,-2.5463,-2.5336,-2.5265,-2.5265,-2.5265,-2.5265,-2.5265,-2.5265,-2.5265,-2.5265,-2.5265,-2.5265,-2.5265,-2.5265,-2.5265,-2.5296,-2.5272,-2.5265,-2.5296,-2.5518,-2.5834,-2.5834,-2.5858,-2.5922,-2.608,-2.5899,-2.5534,-2.5196,-2.463,-2.4172,-2.4429,-2.4321,-2.4134,-2.4247,-2.4191,-2.4114,-2.4114,-2.421,-2.4284,-2.4284,-2.4393,-2.45,-2.45,-2.45,-2.4276,-2.3628,-2.2893,-2.2133,-2.1311,-2.1086,-2.0947,0.0,-2.1526,-2.1985,-2.1926,-2.2817,-2.3158,0.0,0.0,-2.3689,-2.3689,-2.331,-2.3291,-2.3689,-2.4542,-2.501,-2.501,-2.501,-2.501,-2.501,-2.501,-2.5427,-2.6242,-2.7096,-2.7934,-2.8733,-2.9547,-2.9888,-2.9888,-2.9888,-2.9888,-2.9888,-2.9888,-2.9888,-2.9888,-2.9888,-3.0064,-3.0272,-2.5616,-2.5616,-2.5616,-2.5616,-2.5616,-2.5616,-2.5616,-2.5616,-2.5616,-2.5616,-2.5616,-2.5616,-2.5616,-2.5616,-2.5616,-2.5616,-2.5881,-2.6082,-2.6208,-2.6314,-2.6418,-2.6556,-2.6757,-2.6922,-2.7019,-2.6909,-2.6592,-2.6073,-2.6073,-2.5932,-2.5717,-2.5717,-2.5743,-2.58,-2.58,-2.58,-2.58,-2.58,-2.58,-2.58,-2.58,-2.58,-2.58,-2.58,-2.58,-2.58,-2.58,-2.6101,-2.6505,-2.6505,-2.6505,-2.6577,-2.6928,-2.6552,-2.5997,-2.6222,-2.5433,-2.4511,-2.432,-2.4134,-2.4016,-2.4077,-2.4037,-2.3996,-2.3996,-2.4096,-2.4192,-2.4192,-2.4357,-2.45,-2.45,-2.45,-2.4221,-2.3333,-2.2864,-2.2319,-2.1533,-2.1432,-2.1489,-2.1553,-2.2299,-2.2698,-2.2432,-2.3504,-2.3877,-2.3101,-2.3821,0.0,-2.4276,-2.4276,-2.4276,-2.4276,-2.475,-2.501,-2.501,-2.501,-2.501,-2.501,-2.501,-2.5237,-2.5693,-2.6925,-2.774,-2.8218,-2.9393,-2.9888,-2.9888,-2.9888,-2.9888,-2.9924,-2.9953,-2.9984,-2.9984,-3.0064,-3.0188,-3.0355,-2.5616,-2.5616,-2.5616,-2.5616,-2.5616,-2.5616,-2.5616,-2.5616,-2.5616,-2.5616,-2.5616,-2.5616,-2.5616,-2.5616,-2.5616,-2.5616,-2.5616,-2.5712,-2.5917,-2.5954,-2.6046,-2.6279,-2.6314,-2.6418,-2.659,-2.6858,-2.6902,-2.676,-2.6685,-2.642,-2.5915,-2.5915,-2.5994,-2.6132,-2.6132,-2.6132,-2.6175,-2.6175,-2.6175,-2.6175,-2.6175,-2.6175,-2.6175,-2.6175,-2.6175,-2.6175,-2.6175,-2.6603,-2.7174,-2.7174,-2.7174,-2.7299,-2.7995,-2.7264,-2.6308,-2.7033,-2.641,-2.5277,-2.4413,-2.4067,-2.3955,-2.3935,-2.3915,-2.3915,-2.3915,-2.4037,-2.4173,-2.4173,-2.4358,-2.45,-2.45,-2.45,-2.4184,-2.3184,-2.3128,-2.2887,-2.194,0.0,-2.2213,-2.2286,-2.3048,-2.3334,-2.2712,-2.395,-2.4525,-2.3896,-2.4534,-2.495,-2.4964,-2.4964,-2.4977,-2.501,-2.501,-2.501,-2.501,-2.501,-2.501,-2.501,-2.501,-2.501,-2.5048,-2.6603,-2.738,-2.7589,-2.9071,-2.9775,-2.9888,-2.9888,-2.9888,-2.9905,-3.0049,-3.0109,-3.0123,-3.0253,-3.0336,-3.0398,-2.5616,-2.5616,-2.5616,-2.5616,-2.5616,-2.5616,-2.5616,-2.5616,-2.5616,-2.5616,-2.5616,-2.5616,-2.5616,-2.5616,-2.5616,-2.5616,-2.5616,-2.5616,-2.5654,-2.5637,-2.5675,-2.5712,-2.5954,-2.6082,-2.6118,-2.6383,-2.6807,-2.7352,-2.712,-2.7126,-2.7361,-2.7361,-2.7465,-2.767,-2.767,-2.7725,-2.7825,-2.7825,-2.7825,-2.7825,-2.7825,-2.7825,-2.7825,-2.7825,-2.7825,-2.7825,-2.7825,-2.7924,-2.8004,-2.8004,-2.8004,-2.8049,-2.8146,-2.8021,-2.7727,-2.7183,-2.6895,-2.6469,-2.5332,-2.4384,-2.371,-2.3611,-2.3567,-2.3567,-2.3567,-2.381,-2.4036,-2.4036,-2.4266,-2.45,-2.45,-2.45,-2.3998,-2.2442,-2.2757,-2.2683,-2.1198,0.0,-2.305,-2.3179,-2.3923,-2.4404,-2.4332,-2.4554,-2.4666,-2.455,-2.4663,-2.4768,-2.4827,-2.4842,-2.4889,-2.4996,-2.501,-2.501,-2.501,-2.501,-2.501,-2.501,-2.501,-2.501,-2.5029,-2.5977,-2.6811,-2.7551,-2.8483,-2.9263,-2.9888,-2.9888,-2.9888,-2.9905,-3.0049,-3.0109,-3.0123,-3.0253,-3.0336,-3.0398,-2.5616,-2.5616,-2.5616,-2.5616,-2.5616,-2.5616,-2.5616,-2.5616,-2.5616,-2.5616,-2.5616,-2.5616,-2.5616,-2.5616,-2.5616,-2.5616,-2.5616,-2.5616,-2.5616,-2.5616,-2.5616,-2.5616,-2.5712,-2.5844,-2.599,-2.6118,-2.6418,-2.6923,-2.6791,-2.6873,-2.7164,-2.7289,-2.7444,-2.7624,-2.7911,-2.8025,-2.8099,-2.8154,-2.8182,-2.8182,-2.8182,-2.8182,-2.8182,-2.8182,-2.8182,-2.8182,-2.8182,-2.8182,-2.8182,-2.8182,-2.8182,-2.8182,-2.8182,-2.8182,-2.8138,-2.7763,-2.6746,-2.5654,-2.5085,-2.4271,-2.3571,-2.3517,-2.3494,-2.3494,-2.3494,-2.3682,-2.3876,-2.3976,-2.4191,-2.4357,-2.4482,-2.45,-2.4091,-2.285,-2.3349,-2.3479,-2.2256,-2.3145,-2.3923,-2.3992,-2.4309,-2.4566,-2.4629,-2.4645,-2.466,-2.4707,-2.4707,-2.4723,-2.4734,-2.4753,-2.4798,-2.4889,-2.4964,-2.501,-2.501,-2.501,-2.501,-2.501,-2.501,-2.501,-2.5029,-2.5844,-2.6432,-2.6868,-2.8161,-2.895,-2.9391,-2.9829,-3.0064,-3.0123,-3.0215,-3.0267,-3.0279,-3.0414,-3.0469,-3.05,-2.4989,-2.5317,-2.5616,-2.5616,-2.5616,-2.5616,-2.5616,-2.5616,-2.5616,-2.5616,-2.5616,-2.5616,-2.5616,-2.5616,-2.5616,-2.5616,-2.5616,-2.5616,-2.5616,-2.5616,-2.5616,-2.5616,-2.5616,-2.5712,-2.5974,-2.5954,-2.6082,-2.6418,-2.6349,-2.6418,-2.6624,-2.6825,-2.7004,-2.7178,-2.7612,-2.7806,-2.7836,-2.8025,-2.8081,-2.8081,-2.8126,-2.8154,-2.8154,-2.8182,-2.8182,-2.8182,-2.8182,-2.8182,-2.8182,-2.8182,-2.8182,-2.8182,-2.8182,-2.8182,-2.8182,-2.8182,-2.68,-2.5158,-2.4801,-2.4248,-2.3725,-2.3547,-2.3494,-2.3494,-2.3494,-2.3598,-2.3774,-2.3976,-2.4096,-2.4248,-2.4446,-2.45,-2.4221,-2.3333,-2.3925,-2.4202,-2.3314,-2.3944,-2.45,-2.45,-2.45,-2.4534,-2.4566,-2.4582,-2.4599,-2.4645,-2.4645,-2.466,-2.4676,-2.4676,-2.4707,-2.4764,-2.4917,-2.501,-2.501,-2.501,-2.501,-2.501,-2.501,-2.501,-2.5029,-2.5655,-2.6034,-2.628,-2.757,-2.8327,-2.866,-2.9284,-2.9715,-2.9986,-3.0075,-3.0224,-3.0428,-3.055,-3.0598,-3.0598,-2.3112,-2.4451,-2.5616,-2.5616,-2.5616,-2.5616,-2.5616,-2.5616,-2.5616,-2.5616,-2.5616,-2.5616,-2.5616,-2.5616,-2.5616,-2.5616,-2.5616,-2.5616,-2.5616,-2.5616,-2.5616,-2.5616,-2.5616,-2.5712,-2.5974,-2.5749,-2.5881,-2.6418,-2.6154,-2.6137,-2.6418,-2.6453,-2.6556,-2.6758,-2.7021,-2.7244,-2.7365,-2.7624,-2.773,-2.776,-2.794,-2.7996,-2.8042,-2.8154,-2.8182,-2.8182,-2.8182,-2.8182,-2.8182,-2.8182,-2.8182,-2.8182,-2.8182,-2.8182,-2.8182,-2.8182,-2.7549,-2.6514,-2.5087,-2.4659,-2.4427,-2.3672,-2.3494,-2.3494,-2.3494,-2.3598,-2.3774,-2.3976,-2.4096,-2.4248,-2.4446,-2.45,-2.4221,-2.3333,-2.3925,0.0,-2.3314,-2.3944,-2.45,-2.45,-2.45,-2.45,-2.4517,-2.4517,-2.4517,-2.4517,-2.4517,-2.4532,-2.4615,-2.4615,-2.4629,-2.4707,-2.4908,-2.501,-2.501,-2.501,-2.501,-2.501,-2.501,-2.501,-2.501,-2.5067,-2.5503,-2.6205,-2.6401,-2.6936,-2.7712,-2.7822,-2.8351,-2.9104,-2.9159,-2.9685,-3.0428,-3.055,-3.0598,-3.0598,-2.2888,-2.3436,-2.3952,-2.3952,-2.3952,-2.4313,-2.541,-2.5616,-2.5616,-2.5616,-2.5616,-2.5616,-2.5616,-2.5616,-2.5616,-2.5616,-2.5616,-2.5616,-2.5616,-2.5616,-2.5616,-2.5616,-2.5616,-2.5654,-2.5749,-2.5637,-2.5712,-2.5917,-2.5824,-2.5807,-2.5917,-2.6082,-2.6189,-2.6279,-2.6691,-2.6989,-2.7195,-2.7365,-2.7565,-2.7701,-2.7789,-2.7806,-2.7836,-2.7864,-2.7893,-2.7893,-2.8025,-2.8071,-2.8099,-2.8154,-2.8182,-2.8182,-2.8182,-2.8182,-2.8182,-2.8182,-2.7995,-2.7406,-2.5818,-2.5051,-2.4516,-2.3713,-2.3494,-2.3494,-2.3494,-2.3544,-2.366,-2.3935,-2.4036,-2.4172,-2.4447,-2.45,-2.4388,-2.4055,-2.4276,-2.4388,-2.4036,-2.4295,-2.45,-2.45,-2.45,-2.45,-2.45,-2.45,-2.45,-2.45,-2.45,-2.4517,-2.4551,-2.4582,-2.4615,-2.4647,-2.4738,-2.4817,-2.4817,-2.4861,-2.4889,-2.4889,-2.4964,-2.501,-2.501,-2.501,-2.5189,-2.5545,-2.6079,-2.6567,-2.7028,-2.7588,-2.8354,-2.9196,-2.9207,-2.9757,-3.054,-3.0588,-3.0598,-3.0598,-2.2843,-2.2888,-2.2888,-2.2888,-2.2888,-2.3319,-2.4574,-2.4735,-2.495,-2.554,-2.5448,-2.541,-2.5578,-2.5616,-2.5616,-2.5616,-2.5616,-2.5616,-2.5616,-2.5616,-2.5616,-2.5616,-2.5616,-2.5616,-2.5616,-2.5616,-2.5616,-2.5616,-2.5616,-2.5616,-2.5616,-2.5787,-2.5881,-2.5881,-2.6295,-2.659,-2.6791,-2.7019,-2.7241,-2.7444,-2.7582,-2.7659,-2.7642,-2.7672,-2.7701,-2.773,-2.7864,-2.7911,-2.794,-2.8025,-2.8081,-2.8126,-2.8126,-2.8154,-2.8182,-2.8182,-2.8182,-2.7843,-2.6247,-2.5426,-2.4801,-2.3743,-2.3494,-2.3494,-2.3494,-2.3494,-2.3589,-2.3935,-2.3996,-2.4095,-2.4447,-2.45,-2.45,-2.45,-2.45,-2.45,-2.45,-2.45,-2.45,-2.45,-2.45,-2.45,-2.45,-2.45,-2.45,-2.45,-2.45,-2.45,-2.45,-2.4532,-2.4566,-2.4566,-2.4596,-2.4647,-2.4647,-2.4704,-2.4764,-2.4764,-2.4861,-2.4908,-2.4908,-2.4977,-2.5031,-2.5095,-2.5715,-2.6058,-2.6246,-2.6872,-2.7672,-2.8509,-2.878,-2.9418,-3.0211,-3.0501,-3.0598,-3.0598,-2.2797,-2.2888,-2.2888,-2.2888,-2.2888,-2.2888,-2.2888,-2.2888,-2.3566,-2.5355,-2.5068,-2.4934,-2.554,-2.5616,-2.5616,-2.5616,-2.5616,-2.5616,-2.5616,-2.5616,-2.5616,-2.5616,-2.5616,-2.5616,-2.5616,-2.5616,-2.5616,-2.5616,-2.5616,-2.5616,-2.5616,-2.5616,-2.5616,-2.5616,-2.5881,-2.601,-2.6046,-2.659,-2.6774,-2.6858,-2.7324,-2.7496,-2.7526,-2.7659,-2.7701,-2.7701,-2.7701,-2.7701,-2.7701,-2.7701,-2.7836,-2.8014,-2.8014,-2.8099,-2.8182,-2.8182,-2.8182,-2.7843,-2.6247,-2.58,-2.5444,-2.3886,-2.3494,-2.3494,-2.3494,-2.3494,-2.3589,-2.3935,-2.3996,-2.4095,-2.4447,-2.45,-2.45,-2.45,-2.45,-2.45,-2.45,-2.45,-2.45,-2.45,-2.45,-2.45,-2.45,-2.45,-2.45,-2.45,-2.45,-2.45,-2.45,-2.45,-2.45,-2.45,-2.45,-2.45,-2.45,-2.4629,-2.4707,-2.4707,-2.4707,-2.4707,-2.4707,-2.4912,-2.4993,-2.5006,-2.5205,-2.5302,-2.5302,-2.5448,-2.5967,-2.6779,-2.7658,-2.8528,-2.9399,-3.0288,-3.0598,-3.0598,-2.2797,-2.2888,-2.2888,-2.2888,-2.2888,-2.2888,-2.2888,-2.2888,-2.3275,-2.4214,-2.4542,-2.4799,-2.5091,-2.5394,-2.5616,-2.5616,-2.5616,-2.5616,-2.5616,-2.5616,-2.5616,-2.5616,-2.5616,-2.5616,-2.5616,-2.5616,-2.5616,-2.5616,-2.5616,-2.5616,-2.5616,-2.5616,-2.5616,-2.5616,-2.5675,-2.5807,-2.601,-2.6189,-2.6349,-2.6556,-2.6891,-2.7021,-2.7021,-2.731,-2.7421,-2.7421,-2.7526,-2.7569,-2.7569,-2.7672,-2.773,-2.7806,-2.7968,-2.8099,-2.8182,-2.8182,-2.8182,-2.795,-2.6925,-2.6229,-2.5444,-2.3886,-2.3494,-2.3494,-2.3494,-2.3494,-2.3589,-2.3935,-2.3996,-2.4095,-2.4447,-2.45,-2.45,-2.45,-2.45,-2.45,-2.45,-2.45,-2.45,-2.45,-2.45,-2.45,-2.45,-2.45,-2.45,-2.45,-2.45,-2.45,-2.45,-2.45,-2.45,-2.45,-2.45,-2.45,-2.45,-2.4582,-2.4629,-2.4629,-2.4779,-2.4832,-2.4847,-2.4994,-2.5122,-2.5217,-2.5273,-2.5332,-2.5359,-2.5404,-2.5934,-2.6774,-2.7614,-2.8492,-2.94,-3.0221,-3.0559,-3.0598,-2.2555,-2.2615,-2.2615,-2.2615,-2.2615,-2.2615,-2.2615,-2.2661,-2.2904,-2.3507,-2.3906,-2.4241,-2.4542,-2.4855,-2.5107,-2.5301,-2.5486,-2.5616,-2.5616,-2.5616,-2.5616,-2.5616,-2.5616,-2.5616,-2.5616,-2.5616,-2.5616,-2.5616,-2.5616,-2.5616,-2.5616,-2.5616,-2.5616,-2.5616,-2.5616,-2.5675,-2.5844,-2.5937,-2.6082,-2.626,-2.6521,-2.6657,-2.6657,-2.6892,-2.6925,-2.6957,-2.7166,-2.7213,-2.7261,-2.7478,-2.763,-2.773,-2.794,-2.8099,-2.8182,-2.8182,-2.8182,-2.8031,-2.721,-2.6639,-2.5908,-2.4373,-2.3749,-2.3494,-2.3494,-2.3494,-2.3567,-2.3834,-2.3876,-2.3978,-2.4321,-2.4393,-2.4411,-2.4482,-2.45,-2.45,-2.45,-2.45,-2.45,-2.45,-2.45,-2.45,-2.45,-2.45,-2.45,-2.45,-2.45,-2.45,-2.45,-2.45,-2.45,-2.45,-2.45,-2.45,-2.45,-2.4532,-2.4549,-2.4566,-2.4734,-2.4818,-2.4818,-2.5024,-2.513,-2.5222,-2.5312,-2.537,-2.5406,-2.5406,-2.5715,-2.6274,-2.7103,-2.7778,-2.8367,-2.9197,-2.9757,-3.0085,-2.2184,-2.2184,-2.2184,-2.2184,-2.2184,-2.2184,-2.2231,-2.2324,-2.2618,-2.3143,-2.3201,-2.3391,-2.3979,-2.4063,-2.4313,-2.4784,-2.5224,-2.5486,-2.554,-2.5524,-2.5578,-2.5616,-2.5616,-2.5616,-2.5616,-2.5616,-2.5616,-2.5616,-2.5616,-2.5616,-2.5616,-2.5616,-2.5616,-2.5616,-2.5616,-2.5616,-2.5616,-2.5844,-2.5937,-2.599,-2.6243,-2.6349,-2.6383,-2.6383,-2.6418,-2.6453,-2.6691,-2.6741,-2.6825,-2.7137,-2.7434,-2.7701,-2.7911,-2.8042,-2.8154,-2.8154,-2.8154,-2.7994,-2.7273,-2.7049,-2.6639,-2.5158,-2.4212,-2.3583,-2.3512,-2.3494,-2.3544,-2.3667,-2.3714,-2.3819,-2.4154,-2.421,-2.4284,-2.4482,-2.45,-2.45,-2.45,-2.45,-2.45,-2.45,-2.45,-2.45,-2.45,-2.45,-2.45,-2.45,-2.45,-2.45,-2.45,-2.45,-2.45,-2.45,-2.45,-2.45,-2.45,-2.45,-2.45,-2.4517,-2.4645,-2.4719,-2.4734,-2.5005,-2.5122,-2.5133,-2.5313,-2.5387,-2.5387,-2.5387,-2.5387,-2.5483,-2.6351,-2.6698,-2.6795,-2.7662,-2.8492,-2.9178,-2.2184,-2.2184,-2.2184,-2.2184,-2.2184,-2.2231,-2.2324,-2.237,-2.2509,-2.2723,-2.3009,-2.3304,-2.3537,-2.3894,-2.4204,-2.441,-2.4508,-2.471,-2.5036,-2.5036,-2.5224,-2.5578,-2.5616,-2.5616,-2.5616,-2.5616,-2.5616,-2.5616,-2.5616,-2.5616,-2.5616,-2.5616,-2.5616,-2.5616,-2.5616,-2.5616,-2.5616,-2.5637,-2.5675,-2.5712,-2.599,-2.6082,-2.6118,-2.6314,-2.6418,-2.6418,-2.6487,-2.6487,-2.6521,-2.6791,-2.7181,-2.7539,-2.7587,-2.7689,-2.7818,-2.7818,-2.7818,-2.7783,-2.7784,-2.7315,-2.665,-2.5793,-2.4998,-2.4284,-2.3636,-2.3494,-2.3544,-2.3667,-2.3816,-2.3978,-2.4173,-2.4321,-2.4446,-2.45,-2.45,-2.45,-2.45,-2.45,-2.45,-2.45,-2.45,-2.45,-2.45,-2.45,-2.45,-2.45,-2.45,-2.45,-2.45,-2.45,-2.45,-2.45,-2.45,-2.45,-2.45,-2.45,-2.4549,-2.466,-2.4775,-2.4915,-2.5012,-2.5182,-2.5264,-2.5264,-2.5293,-2.5322,-2.5322,-2.5322,-2.5322,-2.5399,-2.6275,-2.6612,-2.6738,-2.7605,-2.8049,-2.8193,-2.2184,-2.2184,-2.2184,-2.2184,-2.2184,-2.2231,-2.2278,-2.2324,-2.2324,-2.2417,-2.2572,-2.2785,-2.2889,-2.3157,-2.3421,-2.3767,-2.3979,-2.423,-2.4502,-2.4502,-2.4639,-2.4966,-2.4966,-2.4966,-2.4966,-2.5146,-2.5394,-2.5616,-2.5616,-2.5616,-2.5616,-2.5616,-2.5616,-2.5616,-2.5616,-2.5616,-2.5616,-2.5616,-2.5616,-2.5616,-2.5749,-2.5807,-2.5807,-2.5937,-2.601,-2.6046,-2.6137,-2.6279,-2.6418,-2.6556,-2.6825,-2.7135,-2.7135,-2.7289,-2.7487,-2.7487,-2.7595,-2.773,-2.7836,-2.7536,-2.707,-2.6348,-2.5648,-2.4828,-2.3761,-2.3494,-2.3522,-2.3576,-2.3682,-2.3831,-2.4057,-2.4191,-2.4321,-2.4482,-2.45,-2.45,-2.45,-2.45,-2.45,-2.45,-2.45,-2.45,-2.45,-2.45,-2.45,-2.45,-2.45,-2.45,-2.45,-2.45,-2.45,-2.45,-2.45,-2.45,-2.45,-2.45,-2.4566,-2.4707,-2.4779,-2.4832,-2.4915,-2.5115,-2.5192,-2.5222,-2.5264,-2.5303,-2.5303,-2.5303,-2.5303,-2.5341,-2.5813,-2.5976,-2.6054,-2.6526,-2.6969,-2.7374,-2.2184,-2.2184,-2.2184,-2.2184,-2.2184,-2.2184,-2.2184,-2.2184,-2.2184,-2.2184,-2.2184,-2.2231,-2.237,-2.2417,-2.2632,-2.3054,-2.345,-2.3752,-2.3937,-2.3937,-2.4021,-2.4219,-2.4219,-2.4219,-2.4219,-2.4599,-2.5013,-2.5486,-2.5562,-2.5616,-2.5616,-2.5616,-2.5616,-2.5616,-2.5616,-2.5616,-2.5616,-2.5616,-2.5616,-2.5616,-2.5616,-2.5616,-2.5616,-2.5616,-2.5616,-2.5616,-2.5844,-2.6118,-2.6314,-2.6314,-2.6487,-2.6657,-2.6657,-2.6906,-2.7192,-2.7192,-2.7413,-2.7659,-2.7672,-2.7672,-2.7496,-2.676,-2.6098,-2.526,-2.3963,-2.3583,-2.3494,-2.3494,-2.3562,-2.3678,-2.3955,-2.4056,-2.4172,-2.4446,-2.45,-2.45,-2.45,-2.45,-2.45,-2.45,-2.45,-2.45,-2.45,-2.45,-2.45,-2.45,-2.45,-2.45,-2.45,-2.45,-2.45,-2.45,-2.45,-2.45,-2.45,-2.45,-2.4549,-2.466,-2.466,-2.4692,-2.4734,-2.4949,-2.508,-2.5061,-2.5171,-2.5233,-2.5233,-2.5233,-2.5243,-2.5264,-2.5264,-2.5274,-2.5313,-2.5361,-2.5842,-2.6554,-2.2184,-2.2184,-2.2184,-2.2184,-2.2184,-2.2184,-2.2184,-2.2184,-2.2184,-2.2184,-2.2184,-2.2231,-2.237,-2.2509,-2.2601,-2.2692,-2.2737,-2.2949,-2.3319,-2.3304,-2.3522,-2.3937,-2.3964,-2.3964,-2.3964,-2.4105,-2.4477,-2.4997,-2.5394,-2.5616,-2.5616,-2.5616,-2.5616,-2.5616,-2.5616,-2.5616,-2.5616,-2.5616,-2.5616,-2.5616,-2.5616,-2.5616,-2.5616,-2.5616,-2.5616,-2.5616,-2.5654,-2.5807,-2.6046,-2.6046,-2.6225,-2.6453,-2.6453,-2.6657,-2.6873,-2.6873,-2.7103,-2.7376,-2.7496,-2.7526,-2.7365,-2.6777,-2.6098,-2.5375,-2.4474,-2.3863,-2.3494,-2.3494,-2.3725,-2.3955,-2.3996,-2.4247,-2.4447,-2.45,-2.45,-2.45,-2.45,-2.45,-2.45,-2.45,-2.45,-2.45,-2.45,-2.45,-2.45,-2.45,-2.45,-2.45,-2.45,-2.45,-2.45,-2.45,-2.45,-2.45,-2.45,-2.45,-2.4517,-2.4534,-2.4534,-2.4645,-2.4874,-2.4915,-2.4929,-2.4929,-2.4955,-2.4955,-2.4955,-2.4955,-2.5012,-2.5138,-2.5138,-2.5192,-2.5303,-2.5313,-2.539,-2.5495,-2.1019,-2.1348,-2.1636,-2.1746,-2.1996,-2.2184,-2.2184,-2.2184,-2.2184,-2.2184,-2.2184,-2.2231,-2.2278,-2.2324,-2.237,-2.237,-2.237,-2.2495,-2.2754,-2.2754,-2.2889,-2.3157,-2.3157,-2.3157,-2.3157,-2.345,-2.3694,-2.3933,-2.4558,-2.4989,-2.5224,-2.5224,-2.5224,-2.5208,-2.5486,-2.5432,-2.5224,-2.5486,-2.5616,-2.5616,-2.5616,-2.5616,-2.5616,-2.5616,-2.5616,-2.5616,-2.5616,-2.5691,-2.5787,-2.5787,-2.5844,-2.5937,-2.5937,-2.6243,-2.659,-2.659,-2.6925,-2.7313,-2.7376,-2.7407,-2.7321,-2.7052,-2.619,-2.5277,-2.4944,-2.4081,-2.3407,-2.3494,-2.3682,-2.3876,-2.3976,-2.4191,-2.4375,-2.4482,-2.45,-2.45,-2.45,-2.45,-2.45,-2.45,-2.45,-2.45,-2.45,-2.45,-2.45,-2.45,-2.45,-2.45,-2.45,-2.45,-2.45,-2.45,-2.45,-2.45,-2.45,-2.45,-2.45,-2.45,-2.45,-2.4566,-2.4673,-2.4749,-2.4794,-2.4794,-2.4861,-2.4902,-2.4902,-2.4902,-2.4994,-2.5096,-2.5096,-2.5182,-2.5303,-2.5303,-2.5303,-2.5303]}]]